[[{"header":{"parameterUnit":"m.s-1","parameterCategory":1,"la1":30.6,"la2":29.2853,"lo1":-89.7004,"lo2":-87.6739,"dy":0.0162,"dx":0.0183,"nx":112,"ny":82,"refTime":"2024-08-09T12:00:00:Z","depth":0,"parameterNumber":2,"parameterNumberName":"U-component_of_WINDS"},"data":[0.0,0.0,0.0,0.0,0.0,0.0,0.0,0.0,0.0,0.0,0.0,0.0,0.0,0.0,0.0,0.0,0.0,0.0,0.0,0.0,0.0,0.0,0.0,0.0,0.0,0.0,0.0,0.0,0.0,0.0,0.0,0.0,0.0,0.0,0.0,0.0,0.0,0.0,0.0,0.0,0.0,0.0,0.0,0.0,0.0,0.0,0.0,0.0,0.0,0.0,0.0,0.0,0.0,0.0,0.0,0.0,0.0,0.0,0.0,0.0,0.0,0.0,0.0,0.0,0.0,0.0,0.0,0.0,0.0,0.0,0.0,0.0,0.0,0.0,0.0,0.0,0.0,0.0,0.0,0.0,0.0,0.0,0.0,0.0,0.0,0.0,0.0,0.0,0.0,0.0,0.0,-1.6875,-2.0222,-2.2198,-2.2179,-2.1339,-1.9604,-1.6799,0.0,0.0,0.0,0.0,0.0,0.0,0.0,0.0,0.0,0.0,0.0,0.0,0.0,0.0,0.0,0.0,0.0,0.0,0.0,0.0,0.0,0.0,0.0,0.0,0.0,0.0,0.0,0.0,0.0,0.0,0.0,0.0,0.0,0.0,0.0,0.0,0.0,0.0,0.0,0.0,0.0,0.0,0.0,0.0,0.0,0.0,0.0,0.0,0.0,0.0,0.0,0.0,0.0,0.0,0.0,0.0,0.0,0.0,0.0,0.0,0.0,0.0,0.0,0.0,0.0,0.0,0.0,0.0,0.0,0.0,0.0,0.0,0.0,0.0,0.0,0.0,0.0,0.0,0.0,0.0,0.0,0.0,0.0,0.0,0.0,0.0,0.0,0.0,0.0,0.0,0.0,0.0,0.0,0.0,0.0,0.0,0.0,0.0,0.0,0.0,0.0,0.0,0.0,0.0,-1.6409,-1.9692,-2.0997,-2.1608,-2.16,-2.0526,-1.9027,-1.7206,0.0,0.0,0.0,0.0,0.0,0.0,0.0,0.0,0.0,0.0,0.0,0.0,0.0,0.0,0.0,0.0,0.0,0.0,0.0,0.0,0.0,0.0,0.0,0.0,0.0,0.0,0.0,0.0,0.0,0.0,0.0,0.0,0.0,0.0,0.0,0.0,0.0,0.0,0.0,0.0,0.0,0.0,0.0,0.0,0.0,0.0,0.0,0.0,0.0,0.0,0.0,0.0,0.0,0.0,0.0,0.0,0.0,0.0,0.0,0.0,0.0,0.0,0.0,0.0,0.0,0.0,0.0,0.0,0.0,0.0,0.0,0.0,0.0,0.0,0.0,0.0,0.0,0.0,0.0,0.0,0.0,0.0,0.0,0.0,0.0,0.0,0.0,0.0,0.0,0.0,0.0,0.0,0.0,0.0,0.0,0.0,0.0,0.0,0.0,0.0,0.0,0.0,0.0,-1.6075,-1.8018,-2.0459,-2.1156,-2.1495,-2.151,-2.0305,-1.879,-1.6912,-1.4981,0.0,0.0,0.0,0.0,0.0,0.0,0.0,0.0,0.0,0.0,0.0,0.0,0.0,0.0,0.0,0.0,0.0,0.0,0.0,0.0,0.0,0.0,0.0,0.0,0.0,0.0,0.0,0.0,0.0,0.0,0.0,0.0,0.0,0.0,0.0,0.0,0.0,0.0,0.0,0.0,0.0,0.0,0.0,0.0,0.0,0.0,0.0,0.0,0.0,0.0,0.0,0.0,0.0,0.0,0.0,0.0,0.0,0.0,0.0,0.0,0.0,0.0,0.0,0.0,0.0,0.0,0.0,0.0,0.0,0.0,0.0,0.0,0.0,0.0,0.0,0.0,0.0,0.0,0.0,0.0,0.0,0.0,0.0,0.0,0.0,0.0,0.0,0.0,0.0,0.0,0.0,0.0,0.0,0.0,0.0,0.0,0.0,0.0,0.0,0.0,0.0,0.0,-1.77,-1.8785,-2.0335,-2.0862,-2.103,-2.0836,-1.9753,-1.8219,-1.6192,-1.4133,0.0,0.0,0.0,0.0,0.0,0.0,0.0,0.0,0.0,0.0,0.0,0.0,0.0,0.0,0.0,0.0,0.0,0.0,0.0,0.0,0.0,0.0,0.0,0.0,0.0,0.0,0.0,0.0,0.0,0.0,0.0,0.0,0.0,0.0,0.0,0.0,0.0,0.0,0.0,0.0,0.0,0.0,0.0,0.0,0.0,0.0,0.0,0.0,0.0,0.0,0.0,0.0,0.0,0.0,0.0,0.0,0.0,0.0,0.0,0.0,0.0,0.0,0.0,0.0,0.0,0.0,0.0,0.0,0.0,0.0,0.0,0.0,0.0,0.0,0.0,0.0,0.0,0.0,0.0,0.0,0.0,0.0,0.0,0.0,0.0,0.0,0.0,0.0,0.0,0.0,0.0,0.0,0.0,0.0,0.0,0.0,0.0,0.0,0.0,0.0,0.0,0.0,-1.725,-1.8609,-1.9722,-1.99,-1.9614,-1.8947,-1.8113,-1.6811,-1.487,-1.3065,0.0,0.0,0.0,0.0,0.0,0.0,0.0,0.0,0.0,0.0,0.0,0.0,0.0,0.0,0.0,0.0,0.0,0.0,0.0,0.0,0.0,0.0,0.0,0.0,0.0,0.0,0.0,0.0,0.0,0.0,0.0,0.0,0.0,0.0,0.0,0.0,0.0,0.0,0.0,0.0,0.0,0.0,0.0,0.0,0.0,0.0,0.0,0.0,0.0,0.0,0.0,0.0,0.0,0.0,0.0,0.0,0.0,0.0,0.0,0.0,0.0,0.0,0.0,0.0,0.0,0.0,0.0,0.0,0.0,0.0,0.0,0.0,0.0,0.0,0.0,0.0,0.0,0.0,0.0,0.0,0.0,0.0,0.0,0.0,0.0,0.0,0.0,0.0,0.0,0.0,0.0,0.0,0.0,0.0,0.0,0.0,0.0,0.0,0.0,0.0,0.0,0.0,-1.6892,-1.8259,0.0,-1.9798,-1.9512,-1.875,-1.7763,-1.6348,-1.4345,0.0,0.0,0.0,0.0,0.0,0.0,0.0,0.0,0.0,0.0,0.0,0.0,0.0,0.0,0.0,0.0,0.0,0.0,0.0,0.0,0.0,0.0,0.0,0.0,0.0,0.0,0.0,0.0,0.0,0.0,0.0,0.0,0.0,0.0,0.0,0.0,0.0,0.0,0.0,0.0,0.0,0.0,0.0,0.0,0.0,0.0,0.0,0.0,0.0,0.0,0.0,0.0,0.0,0.0,0.0,0.0,0.0,0.0,0.0,0.0,0.0,0.0,0.0,0.0,0.0,0.0,0.0,0.0,0.0,0.0,0.0,0.0,0.0,0.0,0.0,0.0,0.0,0.0,0.0,0.0,0.0,0.0,0.0,0.0,0.0,0.0,0.0,0.0,0.0,0.0,0.0,0.0,0.0,0.0,0.0,0.0,0.0,0.0,0.0,0.0,0.0,0.0,-1.4801,-1.6362,-1.7694,0.0,-1.9052,-1.8732,-1.7867,-1.6838,-1.5372,-1.3386,0.0,0.0,0.0,0.0,0.0,0.0,0.0,0.0,0.0,0.0,0.0,0.0,0.0,0.0,0.0,0.0,0.0,0.0,0.0,0.0,0.0,0.0,0.0,0.0,0.0,0.0,0.0,0.0,0.0,0.0,0.0,0.0,0.0,0.0,0.0,0.0,0.0,0.0,0.0,0.0,0.0,0.0,0.0,0.0,0.0,0.0,0.0,0.0,0.0,0.0,0.0,0.0,0.0,0.0,0.0,0.0,0.0,0.0,0.0,0.0,0.0,0.0,0.0,0.0,0.0,0.0,0.0,0.0,0.0,0.0,0.0,0.0,0.0,0.0,0.0,0.0,0.0,0.0,0.0,0.0,0.0,0.0,0.0,0.0,0.0,0.0,0.0,0.0,0.0,0.0,0.0,0.0,0.0,0.0,0.0,0.0,0.0,0.0,0.0,0.0,0.0,0.0,-1.3314,-1.5531,-1.7062,-1.7017,-1.7342,-1.7148,-1.5965,-1.5088,-1.373,0.0,0.0,0.0,0.0,0.0,0.0,0.0,0.0,0.0,0.0,0.0,0.0,0.0,0.0,0.0,0.0,0.0,0.0,0.0,0.0,0.0,0.0,0.0,0.0,0.0,0.0,0.0,0.0,0.0,0.0,0.0,0.0,0.0,0.0,0.0,0.0,0.0,0.0,0.0,0.0,0.0,0.0,0.0,0.0,0.0,0.0,0.0,0.0,0.0,0.0,0.0,0.0,0.0,0.0,0.0,0.0,0.0,0.0,0.0,0.0,0.0,0.0,0.0,0.0,0.0,0.0,0.0,0.0,0.0,0.0,0.0,0.0,0.0,0.0,0.0,0.0,0.0,0.0,0.0,0.0,0.0,0.0,0.0,0.0,0.0,0.0,0.0,0.0,0.0,0.0,0.0,0.0,0.0,0.0,0.0,0.0,0.0,0.0,0.0,0.0,0.0,0.0,0.0,-1.3678,-1.5374,-1.6621,-1.6965,-1.7092,-1.6705,-1.5531,-1.4898,-1.3876,-1.2135,0.0,0.0,0.0,0.0,0.0,0.0,0.0,0.0,0.0,0.0,0.0,0.0,0.0,0.0,0.0,0.0,0.0,0.0,0.0,0.0,0.0,0.0,0.0,0.0,0.0,0.0,0.0,0.0,0.0,0.0,0.0,0.0,0.0,0.0,0.0,0.0,0.0,0.0,0.0,0.0,0.0,0.0,0.0,0.0,0.0,0.0,0.0,0.0,0.0,0.0,0.0,0.0,0.0,0.0,0.0,0.0,0.0,0.0,0.0,0.0,0.0,0.0,0.0,0.0,0.0,0.0,0.0,0.0,0.0,0.0,0.0,0.0,0.0,0.0,0.0,0.0,0.0,0.0,0.0,0.0,0.0,0.0,0.0,0.0,0.0,0.0,0.0,0.0,0.0,0.0,0.0,0.0,0.0,0.0,0.0,0.0,0.0,0.0,0.0,0.0,0.0,0.0,-1.317,-1.4729,-1.5864,-1.6127,-1.6277,-1.59,-1.4829,-1.4543,-1.3709,-1.2077,0.0,0.0,0.0,0.0,0.0,0.0,0.0,0.0,0.0,0.0,0.0,0.0,0.0,0.0,0.0,0.0,0.0,0.0,0.0,0.0,0.0,0.0,0.0,0.0,0.0,0.0,0.0,0.0,0.0,0.0,0.0,0.0,0.0,0.0,0.0,0.0,0.0,0.0,0.0,0.0,0.0,0.0,0.0,0.0,0.0,0.0,0.0,0.0,0.0,0.0,0.0,0.0,0.0,0.0,0.0,0.0,0.0,0.0,0.0,0.0,0.0,0.0,0.0,0.0,0.0,0.0,0.0,0.0,0.0,0.0,0.0,0.0,0.0,0.0,0.0,0.0,0.0,0.0,0.0,0.0,0.0,0.0,0.0,0.0,0.0,0.0,0.0,0.0,0.0,0.0,0.0,0.0,0.0,0.0,0.0,0.0,0.0,0.0,0.0,0.0,0.0,0.0,-1.2201,-1.3871,-1.494,-1.4792,-1.5127,-1.501,-1.4097,-1.4019,-1.3369,-1.1773,0.0,0.0,0.0,0.0,0.0,0.0,0.0,0.0,0.0,0.0,0.0,0.0,0.0,0.0,0.0,0.0,0.0,0.0,0.0,0.0,0.0,0.0,0.0,0.0,0.0,0.0,0.0,0.0,0.0,0.0,0.0,0.0,0.0,0.0,0.0,0.0,0.0,0.0,0.0,0.0,0.0,0.0,0.0,0.0,0.0,0.0,0.0,0.0,0.0,0.0,0.0,0.0,0.0,0.0,0.0,0.0,0.0,0.0,0.0,0.0,-1.4088,0.0,0.0,0.0,0.0,0.0,0.0,0.0,0.0,0.0,0.0,0.0,0.0,0.0,0.0,0.0,0.0,0.0,0.0,0.0,0.0,0.0,0.0,0.0,0.0,0.0,0.0,0.0,0.0,0.0,0.0,0.0,0.0,0.0,0.0,0.0,0.0,0.0,0.0,0.0,0.0,0.0,-1.2624,-1.3657,-1.4459,-1.4792,-1.4863,-1.457,-1.3711,-1.3643,-1.3193,-1.2158,-1.1044,0.0,0.0,0.0,0.0,0.0,0.0,0.0,0.0,0.0,0.0,0.0,0.0,0.0,0.0,0.0,0.0,0.0,0.0,0.0,0.0,0.0,0.0,0.0,0.0,0.0,0.0,0.0,0.0,0.0,0.0,0.0,0.0,0.0,0.0,0.0,0.0,0.0,0.0,0.0,0.0,0.0,0.0,0.0,0.0,0.0,0.0,0.0,0.0,0.0,0.0,0.0,0.0,0.0,0.0,0.0,0.0,0.0,0.0,0.0,0.0,-1.5114,0.0,0.0,0.0,0.0,0.0,0.0,0.0,0.0,0.0,0.0,0.0,0.0,0.0,0.0,0.0,0.0,0.0,0.0,0.0,0.0,0.0,0.0,0.0,0.0,0.0,0.0,0.0,0.0,0.0,0.0,0.0,0.0,0.0,0.0,0.0,0.0,0.0,0.0,0.0,0.0,-1.3008,-1.374,-1.4321,-1.5019,-1.4902,-1.4521,-1.3867,-1.3623,-1.3072,-1.2062,-1.0929,0.0,0.0,0.0,0.0,0.0,0.0,0.0,0.0,0.0,0.0,0.0,0.0,0.0,0.0,0.0,0.0,0.0,0.0,0.0,0.0,0.0,0.0,0.0,0.0,0.0,0.0,0.0,0.0,0.0,0.0,0.0,0.0,0.0,0.0,0.0,0.0,0.0,0.0,0.0,0.0,0.0,0.0,0.0,0.0,0.0,0.0,0.0,0.0,0.0,0.0,0.0,0.0,0.0,-2.2878,-2.3279,-2.388,-2.2147,-2.137,-2.1222,-1.9071,-1.7601,-1.6798,0.0,0.0,0.0,0.0,0.0,0.0,0.0,0.0,0.0,0.0,0.0,0.0,0.0,0.0,0.0,0.0,0.0,0.0,0.0,0.0,0.0,0.0,0.0,0.0,0.0,-1.628,-1.582,0.0,0.0,0.0,0.0,0.0,0.0,0.0,0.0,0.0,0.0,0.0,0.0,-1.3291,-1.3877,-1.4408,-1.5322,-1.5107,-1.4717,-1.4277,-1.3857,-1.3154,-1.2149,-1.0811,-0.9804,0.0,0.0,0.0,0.0,0.0,0.0,0.0,0.0,0.0,0.0,0.0,0.0,0.0,0.0,0.0,0.0,0.0,0.0,0.0,0.0,0.0,0.0,0.0,0.0,0.0,0.0,0.0,0.0,0.0,0.0,0.0,0.0,0.3231,-0.1764,0.0,0.0,0.0,0.0,0.0,0.0,0.0,0.0,0.0,0.0,0.0,0.0,0.0,-2.2659,-2.3343,-2.4632,-2.5177,-2.4914,-2.5515,-2.5695,-2.5299,-2.3858,-2.323,-2.3179,-2.1626,0.0,-1.7903,-1.6923,0.0,0.0,0.0,0.0,0.0,0.0,0.0,0.0,0.0,0.0,0.0,0.0,0.0,0.0,0.0,0.0,0.0,0.0,0.0,0.0,0.0,0.0,-1.7877,-1.7877,-1.7422,-1.6773,0.0,-1.425,-1.2762,-1.2224,-1.174,0.0,0.0,0.0,0.0,0.0,0.0,0.0,-1.333,-1.3877,-1.4408,-1.5322,-1.5361,-1.5156,-1.4736,-1.4307,-1.3815,-1.3285,-1.1622,-1.0532,-1.0227,-0.8634,0.0,0.0,0.0,0.0,0.0,0.0,0.0,0.0,0.0,0.0,0.0,0.0,0.0,0.0,0.0,0.0,0.0,0.0,0.0,0.0,0.0,0.0,0.0,0.0,0.0,0.0,0.0,0.0,0.0,0.231,-0.2699,-0.9828,-1.0576,-1.1204,0.0,0.0,0.0,0.0,0.0,0.0,0.0,0.0,0.0,-2.329,-2.3889,-2.4356,-2.4651,-2.5419,-2.5847,-2.6031,-2.6365,-2.6572,-2.6643,-2.4915,-2.4138,-2.4006,-2.226,-2.0941,-1.9962,-1.8832,-1.7506,-1.6138,0.0,0.0,0.0,0.0,-1.2763,-1.315,-1.4683,-1.5421,0.0,0.0,0.0,0.0,0.0,0.0,0.0,0.0,0.0,0.0,0.0,0.0,0.0,-1.8668,-1.7998,-1.7231,-1.6762,-1.5257,-1.3834,0.0,-1.2807,-1.2309,-1.2048,0.0,0.0,0.0,0.0,0.0,-1.3721,-1.4228,-1.4736,-1.5352,-1.5205,-1.4883,-1.4453,-1.4033,-1.343,-1.2585,-1.1462,-1.0596,-1.01,-0.8863,-0.7976,0.0,0.0,0.0,0.0,0.0,0.0,0.0,0.0,0.0,0.0,0.0,0.0,0.0,0.0,0.0,0.0,0.0,0.0,0.0,0.0,0.0,0.0,0.0,0.0,0.0,0.0,0.0,0.0,-0.2905,-0.8173,-1.6277,-1.5801,-1.5284,0.0,0.0,0.0,0.0,0.0,0.0,-2.2205,-2.3163,-2.4255,-2.5491,-2.5761,-2.5872,-2.5878,-2.638,-2.6705,-2.6841,-2.7021,-2.726,-2.7545,-2.5597,-2.4747,-2.4612,-2.2726,-2.1832,-2.1606,-2.0489,-1.9129,-1.7625,-1.6553,-1.5903,-1.541,-1.4532,-1.449,-1.5077,-1.6519,-1.7126,-1.7341,-1.808,0.0,-1.6421,-1.4699,0.0,0.0,0.0,0.0,-1.7644,-1.8257,-1.8819,-1.9221,-1.9221,-1.8389,-1.7532,-1.7227,-1.593,-1.467,0.0,-1.3754,-1.333,-1.3293,0.0,0.0,0.0,0.0,-1.3467,-1.4209,-1.458,-1.4941,-1.5371,-1.5127,-1.4814,-1.4437,-1.3975,-1.3311,-1.2452,-1.1378,-1.0568,-1.0064,-0.9045,-0.8343,-0.8049,0.0,0.0,0.0,0.0,0.0,0.0,0.0,0.0,0.0,0.0,0.0,0.0,0.0,0.0,0.0,0.0,0.0,0.0,0.0,0.0,0.0,0.0,0.0,0.0,0.0,0.0,0.0,0.0,0.0,-1.874,-1.8432,0.0,0.0,0.0,0.0,-2.1042,-2.205,-2.3523,-2.5664,-2.5368,-2.5808,-2.7241,-2.7349,-2.7409,-2.746,-2.8694,-2.8725,-2.758,-2.8188,-2.8173,-2.756,-2.6011,-2.5356,-2.5301,-2.3677,-2.2761,-2.2184,-2.1079,-1.9933,-1.8766,-1.8187,-1.7295,-1.6339,-1.6277,-1.6519,-1.6882,-1.6957,-1.7376,-1.7962,-1.8489,-1.8106,-1.7303,-1.6512,-1.5853,0.0,0.0,-1.7516,-1.8022,-1.8759,-1.9371,-1.9761,-1.9761,-1.8638,-1.7567,-1.7599,-1.6095,-1.4648,0.0,-1.4062,-1.4033,-1.4033,0.0,-1.3961,-1.398,-1.4,-1.4238,-1.4697,-1.4775,-1.4941,-1.5371,-1.5391,-1.5371,-1.5352,-1.458,-1.4038,-1.4019,-1.1981,-1.0762,-1.0762,-0.9496,-0.8651,-0.8357,-0.8043,0.0,0.0,0.0,0.0,0.0,0.0,0.0,0.0,0.0,0.0,0.0,0.0,0.0,0.0,0.0,0.0,0.0,0.0,0.0,0.0,0.0,0.0,0.0,0.0,0.0,0.0,0.0,0.0,-1.976,-1.9531,0.0,-2.0372,-2.0246,-2.0662,-2.1936,-2.3088,-2.4484,-2.6119,-2.6468,-2.7303,-2.8792,-2.8431,-2.8601,-2.9495,-2.9529,-2.9139,-2.8233,-2.8487,-2.8233,-2.7575,-2.6549,-2.5837,-2.5342,-2.4337,-2.3487,-2.2811,-2.2422,-2.1594,-2.0538,-1.9824,-1.91,-1.837,-1.7938,-1.7619,-1.7429,-1.7912,-1.8219,-1.847,-1.8763,-1.8471,-1.7771,-1.714,-1.7079,-1.7281,-1.7671,-1.8469,-1.9191,-1.9471,-1.9275,-1.9202,-1.9695,-1.8328,-1.7034,-1.7523,-1.6336,-1.5146,-1.499,-1.4457,-1.4228,-1.4502,-1.4316,-1.4077,-1.4077,-1.4375,-1.4609,-1.4766,-1.5019,-1.5244,-1.5391,-1.541,-1.5186,-1.4629,-1.4253,-1.3896,-1.3359,-1.2136,-1.1266,-1.0813,-0.9917,-0.9207,-0.8651,-0.8363,-0.7816,0.0,0.0,0.0,0.0,0.0,0.0,0.0,0.0,0.0,0.0,0.0,0.0,0.0,0.0,0.0,0.0,0.0,0.0,0.0,0.0,0.0,0.0,0.0,0.0,0.0,0.0,-1.8499,-2.0639,-2.0583,-2.0654,-2.141,-2.1332,-2.1749,-2.3018,-2.4092,-2.5403,-2.6965,-2.7504,-2.8326,-2.9517,-2.9541,-2.9785,-3.0219,-3.0458,-3.0031,-2.8936,-2.8936,-2.8577,-2.7904,-2.6928,-2.6122,-2.5342,-2.4624,-2.3826,-2.3078,-2.3078,-2.2711,-2.1963,-2.1305,-2.0718,-2.0188,-1.9684,-1.9162,-1.8682,-1.8999,-1.9097,-1.9101,-1.9245,-1.9019,-1.8629,-1.8263,-1.8208,-1.837,-1.8576,-1.9049,-1.9475,-1.9747,-1.9423,-1.915,-1.9371,-1.8112,-1.6922,-1.7202,-1.6255,-1.541,-1.541,-1.4951,-1.4658,-1.4951,-1.4756,-1.4561,-1.4561,-1.4814,-1.5,-1.5,-1.5244,-1.541,-1.541,-1.541,-1.5127,-1.4414,-1.4165,-1.3786,-1.3135,-1.2262,-1.1616,-1.1166,-1.0261,-0.9614,-0.9159,-0.8518,-0.8076,-0.7815,0.0,0.0,0.0,0.0,0.0,0.0,0.0,0.0,0.0,0.0,0.0,0.0,0.0,0.0,0.0,0.0,0.0,0.0,0.0,0.0,0.0,0.0,0.0,-1.9968,-1.9862,-2.025,-2.156,-2.1739,-2.1723,-2.1669,-2.2184,-2.3102,-2.4426,-2.5171,-2.6444,-2.8415,-2.8558,-2.8905,-2.9502,-3.0789,-3.0833,-2.9627,-3.1523,-3.1565,-2.9609,-2.9594,-2.9235,-2.8525,-2.7185,-2.6122,-2.5398,-2.4624,-2.3884,-2.3138,-2.3138,-2.3078,-2.3027,-2.2548,-2.1995,-2.1506,-2.1506,-2.1167,-2.0668,-2.0049,-1.9849,-1.9823,-1.9823,-1.9823,-1.9798,-1.9798,-1.9307,-1.8874,-1.9592,-1.9307,-1.8886,-1.9631,-1.9798,-1.9579,-1.8886,-1.8124,-1.7357,-1.6652,-1.5921,-1.541,-1.541,-1.541,-1.541,-1.541,-1.541,-1.541,-1.541,-1.541,0.0,-1.541,-1.541,-1.541,-1.541,-1.541,-1.5244,-1.4814,-1.4385,-1.3902,-1.3535,-1.246,-1.1823,-1.1783,-1.0533,-0.9829,-0.9777,-0.8595,-0.8103,-0.8377,0.0,0.0,0.0,0.0,0.0,0.0,0.0,0.0,0.0,0.0,0.0,0.0,0.0,0.0,0.0,0.0,0.0,0.0,0.0,0.0,0.0,0.0,-2.0526,-2.0639,-2.0761,-2.1271,-2.2274,-2.2407,-2.2597,-2.3065,-2.3589,-2.4334,-2.5217,-2.6762,-2.8137,-2.9257,-3.0227,-3.1292,-3.2417,-3.2333,-3.2353,-3.2466,-3.2515,-3.179,-3.0253,-2.9804,-2.9235,-2.8577,-2.772,-2.6878,-2.6176,-2.5398,-2.4681,-2.3943,-2.3365,-2.3078,-2.3065,-2.2915,-2.2573,-2.2083,-2.2083,-2.1732,-2.1242,-2.1079,-2.0765,-2.0426,-2.0426,-2.015,-1.9798,-1.9798,-1.9643,-1.9527,-1.9747,-1.9643,-1.9527,-1.9747,-1.9423,-1.9097,-1.9423,-1.8112,-1.6866,-1.7246,-1.6301,-1.541,-1.541,-1.541,-1.541,-1.541,-1.541,-1.541,-1.541,-1.541,0.0,-1.541,-1.541,-1.541,-1.541,-1.541,-1.5244,-1.4814,-1.4385,-1.3902,-1.3535,-1.2947,-1.2227,-1.1462,-1.106,-1.0432,-0.9377,-0.9012,-0.8711,0.0,0.0,0.0,0.0,0.0,0.0,0.0,0.0,0.0,0.0,0.0,0.0,0.0,0.0,0.0,0.0,0.0,0.0,0.0,0.0,0.0,0.0,-2.0747,-2.1746,-2.2037,-2.2149,-2.2493,-2.332,-2.3681,-2.3879,-2.4024,-2.4575,-2.5204,-2.5905,-2.7558,-2.8931,-2.991,-3.1244,-3.2449,-3.3484,-3.3449,-3.3419,-3.355,-3.3196,-3.2477,-3.1344,-3.0433,-2.9624,-2.8996,-2.8308,-2.7469,0.0,-2.6068,-2.5287,-2.4292,-2.3826,-2.3424,0.0,0.0,0.0,0.0,0.0,-2.2108,-2.1794,-2.1568,-2.128,-2.102,-2.0794,-2.0589,-2.0413,-1.9949,-1.9974,-2.0112,-1.9874,-1.9798,-1.9798,-1.9798,-1.9475,-1.9202,-1.9319,-1.8112,-1.6978,-1.7079,-1.6197,-1.541,-1.541,-1.541,0.0,-1.541,-1.541,-1.541,-1.541,-1.541,-1.541,-1.541,-1.541,-1.541,-1.541,-1.541,-1.5244,-1.4814,-1.4551,0.0,0.0,0.0,-1.2341,-1.1099,-1.1052,0.0,0.0,0.0,0.0,0.0,0.0,0.0,0.0,-0.9519,-0.9559,0.0,0.0,0.0,0.0,0.0,0.0,0.0,0.0,0.0,0.0,0.0,0.0,0.0,0.0,0.0,0.0,-2.1784,-2.3178,-2.3803,-2.3791,-2.3905,-2.4433,-2.5025,-2.5211,-2.4752,-2.5243,-2.5944,-2.6663,-2.8047,-2.9388,-3.0681,0.0,0.0,0.0,0.0,-3.4281,-3.3653,-3.363,-3.3235,-3.2586,-3.1197,-3.0178,-2.9564,-2.8906,-2.7906,-2.6616,-2.6563,-2.5728,-2.4509,-2.4452,-2.3943,-2.3245,-2.3138,-2.3078,-2.3015,-2.2585,-2.2397,-2.2334,-2.1845,0.0,0.0,-2.1016,-2.1142,-2.1305,-2.03,-2.0313,-2.0618,-2.0037,-1.9849,-1.9798,-1.9798,-1.9798,-1.9643,-1.8992,-1.8178,-1.7413,-1.6765,-1.5979,-1.541,-1.541,-1.541,-1.541,-1.541,-1.541,-1.541,-1.541,-1.541,-1.541,-1.541,-1.541,-1.541,-1.541,0.0,0.0,-1.4893,-1.4814,-1.4332,-1.3177,-1.293,-1.2201,-1.0788,-1.0718,-1.0379,-0.9733,-0.9766,-0.9893,-1.0114,-1.0147,-1.0454,-1.0975,-1.0194,-1.0127,0.0,0.0,0.0,0.0,0.0,0.0,0.0,0.0,0.0,0.0,0.0,0.0,0.0,0.0,0.0,-2.19,-2.3287,-2.4595,-2.5144,-2.5407,-2.5378,-2.5089,-2.5258,-2.5592,-2.5986,-2.6264,-2.6876,-2.8015,-2.9939,-3.131,-3.2085,-3.3963,0.0,-3.5182,-3.5318,-3.5052,-3.4378,-3.3872,-3.3235,-3.2586,0.0,0.0,-2.9564,-2.8906,-2.8166,-2.7357,-2.6774,-2.6336,-2.6014,-2.5453,-2.4738,-2.4002,-2.3365,-2.3078,-2.3065,-2.2952,-2.2975,-2.2902,-2.2862,-2.2523,-2.2133,-2.2033,-2.1769,-2.1443,-2.123,-2.0928,0.0,-2.058,-2.0162,-1.9798,-1.9798,-1.9798,-1.9747,-1.9631,-1.8555,-1.7578,-1.7413,-1.6358,-1.541,-1.541,-1.541,-1.541,-1.541,-1.541,-1.541,-1.541,-1.541,-1.541,-1.541,-1.541,-1.541,-1.541,-1.541,-1.5381,-1.5293,-1.498,-1.469,-1.4436,-1.3226,-1.2067,-1.1064,-1.073,-1.0458,-1.004,-1.0267,-1.0301,-1.0114,-1.0354,-1.0655,-1.0989,-1.0822,-1.0929,0.0,0.0,0.0,0.0,0.0,0.0,0.0,0.0,0.0,0.0,0.0,-1.963,-2.0584,0.0,-2.3421,-2.3652,-2.4893,-2.5822,-2.5891,-2.6315,-2.6386,-2.5672,-2.594,-2.624,-2.6404,-2.7025,-2.7752,-2.8465,-3.0702,-3.2161,-3.2496,-3.4466,-3.5622,-3.5622,-3.5622,-3.5424,-3.5098,-3.4087,-3.3443,-3.3077,-3.1348,-3.0342,-3.0013,-2.9041,-2.8412,-2.8068,-2.7351,-2.6826,-2.6457,-2.5673,-2.5175,-2.4794,-2.4381,-2.3754,-2.3138,-2.3543,-2.3424,-2.3078,-2.3078,-2.289,-2.2636,-2.2083,-2.2083,-2.2096,-2.0991,-2.084,-2.0953,-2.0388,-2.0024,-1.9798,-1.9798,-1.9798,-1.9798,-1.9798,-1.898,-1.8058,-1.7688,-1.6754,-1.5864,-1.5468,-1.541,-1.541,-1.541,-1.541,-1.541,-1.541,-1.541,-1.541,-1.541,-1.541,-1.541,-1.541,-1.541,-1.541,-1.541,-1.4501,-1.3916,-1.3916,-1.2796,-1.1715,-1.0875,-1.1085,-1.0913,-1.0341,-1.0488,-1.0551,-1.0341,-1.0635,-1.0922,-1.1209,-1.1363,-1.151,0.0,0.0,0.0,0.0,0.0,0.0,0.0,0.0,-1.907,-1.9474,-2.0152,-2.1028,-2.2167,-2.3364,-2.445,-2.508,-2.6222,-2.6894,-2.658,-2.7026,-2.7129,-2.6333,-2.6528,-2.6724,-2.6722,-2.7549,-2.8319,-2.881,-3.1118,-3.2541,-3.2691,-3.451,-3.5622,-3.5622,-3.5622,-3.5622,-3.5622,-3.4252,-3.3582,-3.3582,-3.1634,-3.0627,-3.0477,-2.9445,-2.8831,-2.8562,-2.7874,-2.7255,-2.6669,-2.5906,-2.5618,-2.5618,-2.5618,-2.4781,-2.359,-2.4118,-2.3884,-2.3305,-2.3125,-2.3078,-2.2915,-2.197,-2.2246,-2.2623,-2.0702,-2.069,-2.1142,-2.0225,-1.9886,-1.9798,-1.9798,-1.9798,-1.9798,-1.9798,-1.9254,-1.8501,-1.7731,-1.7034,-1.6265,-1.5526,-1.541,-1.541,-1.541,-1.541,-1.541,-1.541,-1.541,-1.541,-1.541,-1.541,-1.541,-1.541,-1.541,-1.541,-1.541,-1.4204,-1.3304,-1.3009,-1.2389,-1.1593,-1.0624,-1.1226,-1.1288,-1.0624,-1.0624,-1.0624,-1.0624,-1.0855,-1.1142,-1.143,-1.173,-1.1897,-1.5339,-1.5544,-1.6086,-1.8172,-1.8274,-1.8555,0.0,0.0,-2.1087,-2.1769,-2.1989,-2.2184,-2.2591,-2.3935,-2.508,-2.5403,-2.6755,-2.7773,-2.7717,-2.7787,-2.7648,-2.7224,-2.6538,-2.6599,-2.7807,-2.7623,-2.8178,-2.9966,-3.1583,-3.2735,-3.3262,-3.4766,-3.5622,-3.5622,-3.5622,-3.5622,-3.5622,-3.4252,-3.3582,-3.3582,-3.2124,-3.1106,-3.0507,-3.0357,-2.9669,-2.8562,-2.7874,-2.756,-2.7408,-2.6654,-2.6404,-2.6404,-2.6404,-2.5892,-2.5063,-2.4509,-2.4234,-2.406,-2.3365,-2.3078,-2.2977,-2.2422,-2.2297,-2.2259,-2.1531,-2.1054,-2.0781,-2.0655,-2.02,-1.9798,-1.9798,-1.9798,-1.9798,-1.9798,-1.9254,-1.8501,-1.7731,-1.7034,-1.6265,-1.5526,-1.541,-1.541,-1.541,-1.541,-1.541,-1.541,-1.541,-1.541,-1.541,-1.541,-1.541,-1.541,-1.541,-1.541,-1.541,-1.5235,-1.451,-1.307,-1.2948,-1.2151,-1.0681,-1.0688,-1.0681,-1.0624,-1.0624,-1.0624,-1.0624,-1.0855,-1.1142,-1.143,-1.173,-1.2004,-1.6538,-1.7523,0.0,0.0,-1.9993,-2.0754,-2.2023,-2.2073,-2.1921,-2.2243,-2.231,-2.2541,-2.3256,-2.4112,-2.5076,0.0,-2.7252,-2.7915,-2.8139,-2.8183,-2.8075,-2.7678,-2.7508,-2.7565,-2.8036,-2.8213,-2.8864,-3.0194,-3.1608,-3.2664,-3.3372,-3.4404,-3.5165,-3.5605,-3.5622,-3.5622,-3.5622,-3.4252,-3.3582,-3.3582,-3.1787,-3.1001,-3.1076,-3.0313,-2.946,-2.8577,-2.8293,-2.7934,-2.7575,-2.7255,-2.7137,-2.7137,-2.7137,-2.6982,-2.6534,-2.5398,-2.4681,-2.4176,-2.3365,-2.3078,-2.2927,-2.2121,-2.2046,-2.2083,-2.0878,-2.0577,-2.0655,-2.0263,-1.9987,-1.9798,-1.9798,-1.9798,-1.9798,-1.9798,-1.9579,-1.9044,-1.7852,-1.7357,-1.681,-1.5633,-1.541,-1.541,-1.541,-1.541,-1.541,-1.541,-1.541,-1.541,-1.541,-1.541,-1.541,-1.541,-1.4991,-1.4688,-1.4688,-1.3837,-1.3235,-1.3009,-1.2573,-1.2205,-1.2035,-1.1973,-1.1787,-1.1288,-1.1288,-1.1136,-1.0815,-1.1102,-1.1396,-1.169,-1.1984,-1.2184,-1.781,0.0,0.0,-2.0204,-2.1177,-2.2057,-2.226,-2.231,-2.231,-2.231,-2.231,-2.2586,-2.3545,-2.4101,-2.4991,-2.6736,-2.747,-2.7995,-2.8481,-2.8565,-2.842,-2.8075,-2.817,-2.8318,-2.8477,-2.8979,-2.9652,-3.0476,-3.1648,-3.251,-3.3068,-3.3981,-3.4742,-3.5301,-3.5504,-3.5622,-3.5622,-3.4252,-3.3582,-3.3582,-3.168,-3.1046,-3.1437,-3.0357,-2.949,-2.8861,-2.8682,-2.8203,-2.7625,-2.7625,-2.7625,-2.7625,-2.7625,-2.7625,-2.7408,-2.5946,-2.5063,-2.4509,-2.3708,-2.3305,-2.289,-2.1845,-2.1757,-2.1794,-2.0263,-2.01,-2.0338,-1.9924,-1.9798,-1.9798,-1.9798,-1.9798,-1.9798,-1.9798,-1.9798,-1.9475,-1.8178,-1.7895,-1.7512,-1.6244,-1.5864,-1.569,-1.569,-1.5517,-1.541,-1.541,-1.541,-1.541,-1.541,-1.541,-1.541,-1.541,-1.4874,-1.4451,-1.4213,-1.3114,-1.2504,-1.2634,-1.2143,-1.2081,-1.2634,-1.2696,-1.2512,-1.2143,-1.1888,-1.1621,-1.1311,-1.1411,-1.1715,-1.2296,-1.2594,-1.2806,0.0,0.0,-1.9283,-2.0797,-2.1204,-2.1414,-2.2141,-2.231,-2.231,-2.231,-2.231,-2.2497,-2.3122,-2.3861,-2.4885,-2.6377,-2.7291,-2.8081,-2.8865,-2.8994,-2.8839,-2.842,-2.8093,-2.831,0.0,-2.9822,-3.0378,-3.114,-3.1867,-3.229,-3.2307,-3.3694,-3.4506,-3.4523,-3.5233,-3.5622,-3.5622,-3.4252,-3.3582,-3.3582,-3.213,-3.1452,-3.1452,-3.0806,-3.0133,-2.952,-2.8876,-2.8203,-2.7625,-2.7625,-2.7625,-2.7625,-2.7625,-2.7625,-2.7408,-2.5946,-2.5398,-2.5231,-2.4509,-2.3767,-2.289,-2.1845,-2.1493,-2.1305,-2.015,-1.9811,-1.9823,-1.9811,-1.9798,-1.9798,-1.9798,-1.9798,-1.9798,-1.9798,-1.9798,-1.9579,-1.8821,-1.8661,-1.8447,-1.7688,-1.6978,-1.6492,-1.6492,-1.5864,-1.541,-1.541,-1.541,-1.541,-1.541,-1.541,-1.541,-1.541,-1.5352,-1.505,-1.4273,-1.4154,-1.3476,-1.195,-1.1826,-1.1834,-1.1834,-1.1826,-1.2205,-1.2948,-1.2205,-1.1929,-1.2186,-1.1674,-1.2054,-1.3267,-1.3524,-1.4171,0.0,0.0,-2.0769,-2.1121,-2.1566,-2.1989,-2.2243,-2.2061,-2.1928,-2.2237,-2.2032,-2.2108,-2.3045,-2.3401,-2.4259,-2.6271,-2.6833,-2.7475,-2.881,-2.8994,-2.8952,-2.8797,-2.9394,0.0,0.0,0.0,0.0,-3.1072,-3.097,-3.1258,-3.2263,-3.2747,-3.3474,-3.4455,-3.4742,-3.5115,-3.5622,-3.4252,-3.3582,-3.3582,-3.2145,-3.1482,-3.1452,-3.0821,-3.0163,-2.9549,-2.8891,-2.8203,-2.7625,-2.7625,-2.7625,-2.7625,-2.7625,-2.7625,-2.756,-2.7019,-2.6269,-2.5231,-2.393,-2.3305,-2.289,-2.1845,-2.1493,-2.128,-2.015,-1.9798,-1.9798,-1.9798,-1.9798,-1.9798,-1.9798,-1.9798,-1.9798,-1.9798,-1.9798,-1.9592,-1.8874,-1.8715,-1.8328,-1.709,-1.6652,-1.6322,-1.5864,-1.5584,-1.541,-1.541,-1.541,-1.541,-1.541,-1.541,-1.541,-1.541,-1.4932,-1.4273,-1.3485,-1.2931,-1.2381,-1.1826,-1.1834,-1.2258,-1.3356,-1.3416,-1.3537,-1.3786,-1.3537,-1.3103,-1.2535,-1.2318,-1.2367,-1.2659,-1.3339,-1.389,0.0,-2.0912,-2.1581,-2.1606,-2.1955,-2.231,-2.231,-2.2077,-2.1861,-2.19,-2.1675,-2.1731,-2.2641,-2.2822,-2.3571,-2.5901,-2.6517,-2.7163,-2.8489,-2.895,-2.9222,-2.9402,-2.9976,-3.0594,0.0,0.0,0.0,-3.1257,-3.0849,-3.1021,-3.2263,-3.2544,-3.3237,-3.4455,-3.4759,-3.5131,-3.5622,-3.4496,-3.3735,-3.3235,-3.2312,-3.1618,-3.115,-3.0717,-3.0043,-2.9205,-2.8786,-2.8203,-2.7625,-2.7625,-2.7625,-2.7625,-2.7625,-2.7625,-2.7575,-2.7306,-2.6428,-2.5231,-2.4266,-2.3462,-2.2686,-2.1782,-2.1355,-2.1029,-2.0087,-1.9798,-1.9798,-1.9798,-1.9798,-1.9798,-1.9798,-1.9798,-1.9798,-1.9798,-1.9798,-1.9695,-1.9202,-1.9097,-1.8715,-1.7523,-1.709,-1.6641,-1.5921,-1.5584,-1.541,-1.541,-1.541,-1.541,-1.541,-1.541,-1.541,-1.541,-1.4932,-1.4332,-1.3485,-1.2931,-1.2504,-1.2266,-1.195,-1.2504,-1.4145,-1.3906,-1.3914,-1.4204,-1.4213,-1.3862,-1.3176,-1.2848,-1.291,-1.3375,-1.3954,-1.445,-2.1765,-2.189,-2.1804,-2.2228,-2.2321,-2.2321,-2.2321,-2.231,-2.2062,-2.1346,-2.1204,-2.1362,0.0,0.0,-2.2908,-2.5282,-2.6357,-2.7196,-2.7977,-2.889,-2.9662,0.0,0.0,0.0,0.0,0.0,0.0,-3.1827,0.0,-3.1551,-3.228,-3.3,-3.3744,-3.4472,-3.5182,-3.5588,-3.5622,-3.4941,-3.3937,-3.2586,-3.2586,-3.1848,-3.0507,-3.0477,-2.9774,-2.8607,-2.8562,-2.8173,-2.7625,-2.7625,-2.7625,-2.7625,-2.7625,-2.7625,-2.7524,-2.6826,-2.6068,-2.5453,-2.5398,-2.4053,-2.2221,-2.1631,-2.1091,-2.0605,-1.9974,-1.9798,-1.9798,-1.9798,-1.9798,-1.9798,-1.9798,-1.9798,-1.9798,-1.9798,-1.9798,-1.9798,-1.9798,-1.9798,-1.9579,-1.8768,-1.8004,-1.7246,-1.6539,-1.5864,-1.541,-1.541,-1.541,-1.541,-1.541,-1.541,-1.5352,-1.5352,-1.5352,-1.505,-1.4204,-1.4213,-1.3846,-1.307,-1.2328,-1.2626,-1.4145,-1.3494,-1.3485,-1.4213,-1.4213,-1.4162,-1.4024,-1.3176,-1.3584,-1.5163,-1.5234,-1.5728,-2.241,-2.288,-2.3119,-2.2986,-2.2764,-2.2599,-2.2599,-2.2164,-2.1682,-2.1275,-2.1083,-2.1045,-2.1316,0.0,0.0,-2.4701,-2.6167,0.0,-2.7996,-2.9373,0.0,0.0,0.0,-3.2007,-3.2401,-3.2018,0.0,0.0,-3.2135,-3.1691,-3.2741,-3.3189,-3.3744,-3.4472,-3.4675,-3.5047,-3.556,-3.4941,-3.3937,-3.2586,-3.2586,-3.1848,-3.0492,-3.0028,-2.937,-2.8562,-2.8053,-2.779,-2.7625,-2.7625,-2.7625,-2.7625,-2.7625,-2.7625,-2.7575,-2.7408,-2.6864,-2.6122,-2.5563,-2.4053,-2.2159,-2.1192,-2.0832,-2.0605,-1.9974,-1.9798,-1.9798,-1.9798,-1.9798,-1.9798,-1.9798,-1.9798,-1.9798,-1.9798,-1.9798,-1.9798,-1.9798,-1.9798,-1.9423,-1.8112,-1.6856,-1.5911,-1.569,-1.5526,-1.541,-1.541,-1.541,-1.541,-1.541,-1.541,-1.5167,-1.4569,-1.505,-1.4805,-1.3433,-1.3846,-1.3846,-1.307,-1.3364,-1.3786,-1.4213,-1.4569,-1.4628,-1.4213,-1.4213,-1.3791,-1.3042,-1.3502,-1.385,-1.4099,-1.5579,-1.6349,-2.3249,-2.358,-2.3744,-2.3305,-2.2947,-2.2608,-2.2279,-2.181,-2.12,-2.0373,-2.0103,0.0,-2.0543,0.0,0.0,0.0,0.0,0.0,-2.766,-2.9457,-3.0737,0.0,-3.1843,0.0,-3.3091,-3.325,-3.3714,0.0,-3.2825,-3.2344,-3.3938,-3.3919,-3.4218,-3.4962,-3.4979,-3.5182,-3.5622,-3.5207,-3.4496,-3.3479,-3.2882,-3.1856,-3.0502,-2.9576,-2.8786,-2.8128,0.0,-2.7625,-2.7625,-2.7625,-2.7625,-2.7625,-2.7625,-2.7625,-2.7625,-2.7625,-2.696,-2.5931,-2.5001,-2.35,-2.1895,-2.1251,-2.069,-2.0225,-1.9899,-1.9798,-1.9798,-1.9798,-1.9798,-1.9798,-1.9798,-1.9798,-1.9798,-1.9798,-1.9798,-1.9798,-1.9798,-1.9527,-1.8874,-1.7413,-1.6197,-1.541,-1.541,-1.541,-1.541,-1.541,-1.541,-1.541,-1.541,-1.541,-1.5235,-1.4746,-1.5108,-1.505,-1.4145,-1.4451,-1.451,-1.4085,-1.4154,-1.4392,-1.4688,-1.4815,-1.4688,-1.4213,-1.4213,-1.3838,-1.3076,-1.3191,-1.3351,-1.3536,-1.5055,-1.5843,-2.412,-2.41,-2.3949,-2.349,-2.31,-2.2631,-2.184,-2.1446,-2.0815,-1.9239,0.0,-1.9199,-1.974,0.0,-2.1775,-2.3391,0.0,-2.7252,-2.7207,-2.9341,-3.1012,-3.1348,-3.221,-3.3036,-3.3733,-3.4073,-3.4449,-3.4944,-3.3407,-3.3276,-3.5149,-3.4829,-3.4914,-3.5588,-3.552,-3.547,-3.547,-3.547,-3.5069,-3.4296,-3.3226,-3.1929,-3.0406,-2.9234,-2.8321,-2.7625,0.0,0.0,-2.7625,-2.7625,-2.7625,-2.7625,-2.7625,-2.7565,-2.749,-2.749,-2.6642,-2.5315,-2.41,-2.2855,-2.1681,-2.139,-2.0602,-1.9798,-1.9798,-1.9798,-1.9798,-1.9798,-1.9798,-1.9798,-1.9798,-1.9798,-1.9798,-1.9798,-1.9798,-1.9798,-1.9798,-1.915,-1.8178,-1.6866,-1.5979,-1.541,-1.541,-1.541,-1.541,-1.541,-1.541,-1.541,-1.541,-1.541,-1.5352,-1.5225,-1.5352,-1.5352,-1.5235,-1.5352,-1.541,-1.541,-1.4756,-1.4688,-1.5352,-1.4756,-1.4332,-1.4213,-1.4213,-1.3978,-1.36,-1.294,-1.2971,-1.367,-1.4668,-1.5273,-2.4835,-2.4625,-2.4389,-2.4301,-2.3905,-2.3263,-2.2255,-2.1755,0.0,0.0,0.0,-1.9447,-1.9075,-2.0039,0.0,-2.2601,0.0,0.0,0.0,0.0,-3.1029,0.0,0.0,0.0,0.0,0.0,0.0,0.0,0.0,-3.3811,-3.4835,-3.5009,-3.5223,-3.5588,-3.5013,-3.4692,-3.4692,-3.4692,-3.4046,-3.28,-3.3151,-3.2064,-2.9704,-2.9446,-2.8732,-2.7625,-2.7625,0.0,-2.7625,-2.7625,-2.7625,-2.7625,-2.7625,-2.7245,-2.6752,-2.6752,-2.6284,-2.5401,-2.4075,-2.3124,-2.2233,-2.0604,-1.9962,-1.9798,-1.9798,-1.9798,-1.9798,-1.9798,-1.9798,-1.9798,-1.9798,-1.9798,-1.9798,-1.9798,-1.9798,-1.9798,-1.9798,-1.8715,-1.7743,-1.7468,-1.6301,-1.541,-1.541,-1.541,-1.541,-1.541,-1.541,-1.541,-1.541,-1.541,-1.5177,-1.451,-1.4991,-1.5108,-1.4451,-1.4991,-1.541,-1.541,-1.5294,-1.5225,-1.541,-1.5294,-1.4874,-1.4204,-1.4213,-1.3978,-1.341,-1.4414,-1.512,-1.5501,-1.681,-1.7444,-2.4938,-2.4885,-2.4723,-2.4543,-2.4192,-2.3478,-2.2078,0.0,0.0,0.0,0.0,-1.8896,-1.8824,0.0,0.0,0.0,0.0,0.0,0.0,0.0,0.0,0.0,0.0,0.0,0.0,0.0,0.0,0.0,0.0,-3.4242,-3.4783,-3.4458,-3.432,-3.4455,-3.4117,-3.3931,-3.3931,-3.3931,-3.3616,-3.2944,-3.2552,-3.1753,-3.0477,-2.9753,-2.895,-2.8042,-2.8042,0.0,-2.7625,-2.7625,-2.7625,-2.7595,-2.72,-2.6871,-2.6557,-2.6213,-2.5659,-2.4906,-2.3604,-2.274,-2.1917,-2.0322,-1.9798,-1.9798,-1.9798,-1.9798,-1.9798,-1.9798,-1.9798,-1.9798,-1.9798,-1.9798,-1.9798,-1.9798,-1.9798,-1.9579,-1.8821,-1.8124,-1.7346,-1.6574,-1.5853,-1.541,-1.541,-1.541,-1.541,-1.541,-1.541,-1.541,-1.541,-1.541,-1.5225,-1.4874,-1.5177,-1.5235,-1.4874,-1.5167,-1.541,-1.541,-1.541,-1.541,-1.541,-1.541,-1.5235,-1.4805,-1.4392,-1.3882,-1.3202,-1.3611,-1.3974,-1.4346,-1.5674,-1.6661,-2.4706,-2.4905,-2.4937,-2.4636,-2.4205,-2.3419,-2.177,-2.0906,0.0,0.0,-1.833,-1.8473,-1.8788,0.0,0.0,0.0,0.0,0.0,0.0,0.0,0.0,0.0,0.0,0.0,0.0,0.0,0.0,0.0,0.0,0.0,-3.4411,-3.3731,-3.3345,-3.3406,-3.3254,-3.3169,-3.3169,-3.3169,-3.3085,-3.2933,-3.2026,-3.1454,-3.1143,-3.0048,-2.9271,-2.8701,-2.8559,0.0,0.0,-2.766,-2.7535,-2.7305,-2.6797,-2.6422,-2.6108,-2.5585,-2.4971,-2.4208,-2.2941,-2.2125,-2.1506,-2.0232,-1.9798,-1.9798,-1.9798,-1.9798,-1.9798,-1.9798,-1.9798,-1.9798,-1.9798,-1.9798,-1.9798,-1.9798,-1.9695,-1.9254,-1.807,-1.7578,-1.7024,-1.5864,-1.5526,-1.541,-1.541,-1.541,-1.541,-1.541,-1.541,-1.541,-1.541,-1.541,-1.541,-1.541,-1.541,-1.541,-1.541,-1.541,-1.541,-1.541,-1.541,-1.5294,-1.5167,-1.5108,-1.505,-1.4874,-1.4273,-1.3606,-1.3009,-1.2743,-1.2891,-1.351,-1.4595,-1.5781,-2.4198,-2.4572,-2.4962,-2.4814,-2.4061,-2.3021,-2.1698,0.0,0.0,0.0,-1.8752,-1.8949,-1.8966,0.0,0.0,0.0,0.0,0.0,0.0,0.0,0.0,0.0,0.0,0.0,0.0,0.0,0.0,0.0,0.0,0.0,-3.313,-3.3069,-3.3144,-3.3389,-3.2747,-3.2374,-3.2374,-3.2374,-3.2053,-3.141,-3.1945,-3.1558,-3.0392,-3.0284,-2.9908,-2.9271,-2.8748,0.0,0.0,-2.781,-2.7215,-2.6677,-2.6617,-2.5854,-2.4761,-2.4686,-2.4283,-2.3495,-2.2217,-2.1752,-2.1506,-2.0232,-1.9798,-1.9798,-1.9798,-1.9798,-1.9798,-1.9798,-1.9798,-1.9798,-1.9798,-1.9798,-1.9798,-1.9798,-1.9307,-1.8768,-1.8608,-1.7523,-1.6539,-1.6436,-1.5864,-1.541,-1.541,-1.541,-1.541,-1.541,-1.541,-1.541,-1.541,-1.541,-1.541,-1.541,-1.541,-1.541,-1.541,-1.541,-1.541,-1.541,-1.541,-1.505,-1.4332,-1.4323,-1.3974,-1.3243,-1.313,-1.307,-1.3009,-1.363,-1.4377,-1.5274,-1.6093,-1.6954,-2.3761,-2.4312,-2.4543,-2.49,-2.429,-2.3318,-2.22,0.0,-2.0074,-1.9264,-1.9104,-1.9141,-1.9228,-1.9372,-1.9908,0.0,-2.1747,0.0,0.0,0.0,0.0,0.0,0.0,0.0,0.0,0.0,0.0,0.0,0.0,0.0,-3.2312,-3.2029,-3.1986,-3.207,-3.1782,-3.163,-3.163,-3.163,-3.1478,-3.119,-3.1495,-3.1341,-3.0838,-3.0838,-3.0518,-2.9951,-2.9673,0.0,0.0,-2.7825,-2.7185,-2.6512,-2.5719,-2.5091,-2.4537,-2.4163,-2.3834,-2.3406,-2.2132,-2.1697,-2.1506,-2.0232,-1.9798,-1.9798,-1.9798,-1.9798,-1.9798,-1.9798,-1.9798,-1.9798,-1.9798,-1.9798,-1.9798,-1.9798,-1.9254,-1.8555,-1.8112,-1.7246,-1.6379,-1.5921,-1.5584,-1.541,-1.541,-1.541,-1.541,-1.541,-1.541,-1.541,-1.541,-1.541,-1.541,-1.541,-1.541,-1.541,-1.541,-1.541,-1.541,-1.541,-1.541,-1.5235,-1.4932,-1.4451,-1.4034,-1.3734,-1.3252,-1.3009,-1.3009,-1.3449,-1.4209,-1.5187,-1.5836,-1.6698,-2.2941,-2.3805,-2.4225,-2.4629,-2.4091,-2.3266,0.0,0.0,-2.0088,-1.9612,-1.9439,-1.9416,-1.95,-1.9561,-1.9897,0.0,-2.1502,-2.2497,-2.4116,0.0,0.0,0.0,0.0,0.0,0.0,0.0,0.0,0.0,0.0,0.0,0.0,-3.1677,-3.1312,-3.119,-3.119,-3.119,-3.119,-3.119,-3.119,-3.119,-3.119,-3.119,-3.119,-3.119,-3.0975,-3.0576,0.0,0.0,0.0,-2.7751,-2.6918,-2.5914,-2.494,-2.4462,-2.4268,-2.3774,-2.3595,-2.3406,-2.2132,-2.1697,-2.1506,-2.0232,-1.9798,-1.9798,-1.9798,-1.9798,-1.9798,-1.9798,-1.9798,-1.9798,-1.9798,-1.9798,-1.9747,-1.9527,-1.8927,-1.8167,-1.7413,-1.6698,-1.6036,-1.5526,-1.541,-1.541,-1.541,-1.541,-1.541,-1.541,-1.541,-1.541,-1.541,-1.541,-1.541,-1.541,-1.541,-1.541,-1.541,-1.541,-1.5294,-1.505,-1.505,-1.4805,-1.4373,-1.4025,-1.3726,-1.3476,-1.3183,-1.3009,-1.3009,-1.3238,-1.3975,-1.5061,-1.5656,-1.6522,-2.1572,-2.2987,-2.4144,-2.3964,-2.3312,-2.2642,0.0,-2.1016,-1.9809,-1.9809,-1.979,-1.979,-1.9809,-1.9695,-1.9862,-2.0662,-2.1364,-2.2372,-2.3969,0.0,0.0,0.0,0.0,0.0,0.0,0.0,0.0,0.0,0.0,0.0,0.0,-3.2298,-3.1603,-3.123,-3.119,-3.119,-3.119,-3.119,-3.119,-3.119,-3.119,-3.119,-3.119,-3.119,-3.119,0.0,0.0,0.0,0.0,-2.776,-2.6367,-2.4612,-2.4582,-2.4208,-2.361,-2.3595,-2.3595,-2.3406,-2.2132,-2.1697,-2.1506,-2.0232,-1.9798,-1.9798,-1.9798,-1.9798,-1.9798,-1.9798,-1.9798,-1.9798,-1.9798,-1.9798,-1.9631,-1.8874,-1.8167,-1.7413,-1.6652,-1.5921,-1.541,-1.541,-1.541,-1.541,-1.541,-1.541,-1.541,-1.541,-1.541,-1.541,-1.541,-1.541,-1.541,-1.541,-1.541,-1.541,-1.541,-1.541,-1.505,-1.4273,-1.4204,-1.3476,-1.1888,-1.2573,-1.2634,-1.1826,-1.2573,-1.3009,-1.3009,-1.3238,-1.4102,-1.5523,-1.5782,-1.6671,-1.9841,-2.0861,-2.1662,-2.1584,-2.1318,-2.1034,-2.0949,-2.0413,-1.9992,-2.0107,-2.0022,-1.9973,-2.0116,-1.9982,-2.0289,-2.1553,0.0,0.0,0.0,0.0,0.0,0.0,0.0,0.0,0.0,0.0,0.0,0.0,0.0,0.0,0.0,-3.132,-3.0992,-3.1605,-3.1351,-3.119,-3.119,-3.119,-3.119,-3.119,-3.119,-3.119,-3.119,-3.119,0.0,0.0,0.0,0.0,0.0,-2.7169,-2.5874,-2.4537,-2.4118,-2.3789,-2.3595,-2.3595,-2.3334,-2.2875,-2.1993,-2.1424,-2.0917,-2.0093,-1.9798,-1.9798,-1.9798,-1.9798,-1.9798,-1.9798,-1.9798,-1.9798,-1.9798,-1.9423,-1.8992,-1.8768,-1.7743,-1.6754,-1.6539,-1.5921,-1.541,-1.541,-1.541,-1.541,-1.541,-1.541,-1.541,-1.541,-1.541,-1.541,-1.541,-1.541,-1.541,-1.541,-1.541,-1.541,-1.541,-1.541,-1.5294,-1.505,-1.451,-1.3965,-1.3476,-1.2626,-1.2081,-1.1834,-1.1538,-1.1911,-1.3009,-1.3063,-1.4249,-1.6329,-1.6398,-1.6977,0.0,-1.9411,-2.0045,-2.0012,-1.9954,-1.9968,-2.0237,-1.9976,-1.9791,-2.0208,-2.0197,-2.0152,-2.0277,-2.0143,-2.0276,-2.1155,0.0,0.0,0.0,0.0,0.0,0.0,0.0,0.0,0.0,0.0,0.0,0.0,0.0,0.0,0.0,-3.0919,-3.0641,-3.1166,-3.0668,-3.0497,-3.0784,-3.0784,-3.092,-3.119,-3.119,-3.1055,-3.0784,-3.0784,0.0,0.0,0.0,0.0,0.0,-2.6647,-2.5483,-2.4193,-2.3759,-2.3595,-2.3595,-2.3595,-2.3377,-2.292,-2.1993,-2.1472,-2.0966,-2.0093,-1.9798,-1.9798,-1.9798,-1.9798,-1.9798,-1.9798,-1.9798,-1.9798,-1.9798,-1.9475,-1.9044,-1.8768,-1.7797,-1.681,-1.6549,-1.5921,-1.541,-1.541,-1.541,-1.541,-1.541,-1.541,-1.541,-1.541,-1.541,-1.541,-1.541,-1.541,-1.541,-1.541,-1.541,-1.541,-1.541,-1.541,-1.5284,-1.4991,-1.451,-1.4085,-1.3786,-1.3053,-1.2679,-1.2679,-1.2504,-1.287,-1.3914,-1.4215,-1.5184,-1.6738,-1.7061,-1.75,0.0,-1.8457,-1.9081,-1.8964,-1.898,-1.92,-1.9884,-1.956,0.0,-2.0065,-2.0254,-2.0331,-2.0369,-2.019,-2.0021,-2.0066,0.0,0.0,0.0,0.0,0.0,0.0,0.0,0.0,0.0,0.0,0.0,0.0,0.0,0.0,0.0,-3.0876,-3.046,-3.007,-2.9299,-2.9285,-3.0023,-3.0023,-3.0378,-3.1038,-3.1038,-3.0683,-3.0023,-3.0023,0.0,0.0,0.0,0.0,0.0,-2.623,-2.517,-2.3595,-2.3595,-2.3595,-2.3595,-2.3595,-2.3551,-2.3319,-2.2132,-2.1649,-2.1363,-2.0181,-1.9798,-1.9798,-1.9798,-1.9798,-1.9798,-1.9798,-1.9798,-1.9798,-1.9798,-1.9747,-1.9527,-1.8874,-1.8124,-1.7357,-1.6652,-1.5921,-1.541,-1.541,-1.541,-1.541,-1.541,-1.541,-1.541,-1.541,-1.541,-1.541,-1.541,-1.541,-1.541,-1.541,-1.541,-1.541,-1.541,-1.541,-1.505,-1.4323,-1.4204,-1.3846,-1.313,-1.3734,-1.4085,-1.4085,-1.4874,-1.5294,-1.5294,-1.6208,-1.6699,-1.6748,-1.7578,-1.7978,-1.5936,0.0,-1.7148,-1.6463,-1.6767,-1.7257,0.0,-1.8317,-1.9151,0.0,0.0,-2.0485,-2.1105,-2.0688,-2.076,0.0,0.0,0.0,0.0,0.0,0.0,0.0,0.0,0.0,0.0,0.0,0.0,0.0,0.0,0.0,0.0,-2.9515,-2.8927,-2.8829,-2.8399,-2.8499,-2.9265,-2.9245,-2.933,-2.9499,-2.9499,-2.9414,-2.9245,-2.9245,0.0,0.0,0.0,0.0,-2.6246,-2.5686,-2.4733,-2.3595,-2.3595,-2.3595,-2.3595,-2.3595,-2.298,-2.2086,-2.1791,-2.1037,-2.0181,-1.9901,-1.9798,-1.9798,-1.9798,-1.9798,-1.9798,-1.9798,-1.9798,-1.9798,-1.9798,-1.9359,-1.8927,-1.8715,-1.7688,-1.6708,-1.6539,-1.5921,-1.541,-1.541,-1.541,-1.541,-1.541,-1.541,-1.541,-1.541,-1.541,-1.541,-1.541,-1.541,-1.541,-1.541,-1.541,-1.541,-1.541,-1.541,-1.5294,-1.5118,-1.4569,-1.4145,-1.3914,-1.3494,-1.3312,-1.3312,-1.4085,-1.451,-1.451,-1.5645,-1.6396,-1.6685,-1.7275,-1.7705,-1.538,-1.6034,-1.6582,-1.6113,-1.6326,-1.6748,-1.7101,0.0,0.0,0.0,0.0,0.0,-2.0265,0.0,0.0,0.0,0.0,0.0,0.0,0.0,0.0,0.0,0.0,0.0,0.0,0.0,0.0,0.0,0.0,0.0,0.0,-2.901,-2.859,-2.842,-2.8237,-2.83,-2.8733,-2.8733,-2.8816,-2.9011,-2.9011,-2.8789,-2.845,-2.845,-2.8264,0.0,0.0,0.0,-2.5766,-2.5365,-2.4592,-2.3595,-2.3595,-2.3595,-2.3595,-2.3595,-2.2995,-2.21,-2.1805,-2.0841,-1.9798,-1.9798,-1.9798,-1.9798,-1.9798,-1.9798,-1.9798,-1.9798,-1.9798,-1.9798,-1.9798,-1.9475,-1.9202,-1.9202,-1.8058,-1.6978,-1.6978,-1.614,-1.541,-1.541,-1.541,-1.541,-1.541,-1.541,-1.541,-1.541,-1.541,-1.541,-1.541,-1.541,-1.541,-1.541,-1.541,-1.541,-1.541,-1.541,-1.541,-1.541,-1.4991,-1.4746,-1.4746,-1.4323,-1.3914,-1.3545,-1.3606,-1.3846,-1.4213,-1.4732,-1.5517,-1.6675,-1.6758,-1.7245,-1.5516,-1.6224,-1.6855,-1.6738,-1.6797,-1.7089,-1.7753,0.0,0.0,0.0,0.0,0.0,0.0,0.0,0.0,0.0,0.0,0.0,0.0,0.0,0.0,0.0,0.0,0.0,0.0,0.0,0.0,0.0,0.0,0.0,0.0,-2.8631,-2.8529,-2.8316,-2.8316,-2.8335,-2.8415,-2.8305,-2.8389,-2.8727,-2.8672,-2.8281,-2.7638,-2.7638,-2.73,0.0,0.0,0.0,-2.5205,-2.5109,-2.4436,-2.346,-2.346,-2.346,-2.3475,-2.3565,-2.3143,-2.2452,-2.1663,-2.0706,-1.9798,-1.9798,-1.9798,-1.9798,-1.9798,-1.9748,-1.9698,-1.9773,-1.9798,-1.9798,-1.9798,-1.9695,-1.9631,-1.9631,-1.8501,-1.7413,-1.7413,-1.6358,-1.541,-1.541,-1.541,-1.541,-1.541,-1.541,-1.541,-1.541,-1.541,-1.541,-1.541,-1.541,-1.541,-1.541,-1.541,-1.541,-1.541,-1.541,-1.541,-1.541,-1.541,-1.5352,-1.5235,-1.5235,-1.4874,-1.4204,-1.3545,-1.3606,-1.4392,-1.4109,-1.4944,-1.6675,-1.6403,-1.6891,-1.6081,-1.7103,-1.7559,-1.6875,-1.7246,-1.7832,0.0,0.0,0.0,0.0,0.0,0.0,0.0,0.0,0.0,0.0,0.0,0.0,0.0,0.0,0.0,0.0,0.0,0.0,0.0,0.0,0.0,0.0,0.0,0.0,0.0,0.0,-2.7251,-2.7867,-2.7885,-2.8064,-2.8398,-2.7777,-2.7497,-2.7572,-2.7231,-2.6979,-2.686,-2.686,-2.681,0.0,0.0,-2.6123,-2.5173,-2.458,-2.3733,-2.2858,-2.2858,-2.2858,-2.2877,-2.34,-2.2846,-2.1663,-2.0521,-1.994,-1.9798,-1.9798,-1.9798,-1.9798,-1.9798,-1.9497,-1.9233,-1.9673,-1.9798,-1.9798,-1.9798,-1.9319,-1.8874,-1.8874,-1.7743,-1.6652,-1.6652,-1.5979,-1.541,-1.541,-1.541,-1.541,-1.541,-1.541,-1.541,-1.541,-1.541,-1.541,-1.541,-1.541,-1.541,-1.541,-1.541,-1.541,-1.541,-1.541,-1.541,-1.541,-1.541,-1.5108,-1.4392,-1.4392,-1.4332,-1.4213,-1.4085,-1.4392,-1.5235,-1.554,-1.6033,-1.6685,-1.7038,-1.7464,-1.5054,-1.6241,-1.7285,-1.7383,-1.8418,-1.9394,0.0,0.0,0.0,0.0,0.0,0.0,0.0,0.0,0.0,0.0,0.0,0.0,0.0,0.0,0.0,0.0,0.0,0.0,0.0,0.0,0.0,0.0,0.0,0.0,0.0,0.0,-2.6778,-2.7145,-2.7145,-2.7244,-2.7432,-2.6887,-2.6834,-2.7286,-2.6702,-2.6514,-2.6674,-2.6285,-2.6319,-2.6674,0.0,-2.5542,-2.4596,-2.3907,-2.3045,-2.2143,-2.2143,-2.2143,-2.2137,-2.212,-2.1517,-2.0684,-2.0041,-1.9623,-1.9434,-1.971,-1.9798,-1.9798,-1.9798,-1.9635,-1.9434,-1.9397,-1.9384,-1.9447,-1.9723,-1.9527,-1.9202,-1.8768,-1.7907,-1.6978,-1.6606,-1.5921,-1.541,-1.541,-1.541,-1.541,-1.541,-1.541,-1.541,-1.541,-1.541,-1.541,-1.541,-1.541,-1.541,-1.541,-1.541,-1.541,-1.541,-1.541,-1.541,-1.541,-1.541,-1.5225,-1.4874,-1.4451,-1.4025,-1.3545,-1.3114,-1.3105,-1.3468,-1.3219,-1.3805,-1.5025,-1.4972,-1.5423,-1.4505,-1.5504,-1.6621,-1.7734,0.0,0.0,0.0,0.0,0.0,0.0,0.0,0.0,0.0,0.0,0.0,0.0,0.0,0.0,0.0,0.0,0.0,0.0,0.0,0.0,0.0,0.0,0.0,0.0,0.0,0.0,0.0,0.0,-2.6117,-2.6319,-2.6319,-2.641,-2.6612,-2.6299,-2.6405,-2.6852,-2.6236,-2.6018,-2.6167,-2.5592,-2.5642,-2.615,-2.5592,-2.4796,-2.3875,-2.317,-2.2306,-2.147,-2.147,-2.156,-2.162,-2.0865,-2.0316,-1.992,-1.957,-1.9171,-1.8894,-1.9296,-1.9434,-1.9434,-1.9434,-1.9346,-1.9183,-1.8907,-1.8744,-1.8794,-1.9447,-1.9441,-1.915,-1.8555,-1.7731,-1.6912,-1.6368,-1.5806,-1.541,-1.541,-1.5332,-1.5264,-1.5264,-1.5264,-1.5264,-1.5264,-1.5352,-1.541,-1.541,-1.541,-1.541,-1.541,-1.541,-1.541,-1.541,-1.541,-1.541,-1.541,-1.5235,-1.505,-1.4874,-1.4085,-1.3356,-1.2757,-1.2143,-1.1888,-1.2081,-1.1476,-1.2014,-1.3609,-1.3249,-1.3672,-1.5755,-1.5916,-1.582,-1.7559,0.0,0.0,0.0,0.0,0.0,0.0,0.0,0.0,0.0,0.0,0.0,0.0,0.0,0.0,0.0,0.0,0.0,0.0,0.0,0.0,0.0,0.0,0.0,0.0,0.0,0.0,0.0,0.0,0.0,-2.5476,-2.5495,-2.5841,-2.6594,-2.6573,-2.6245,-2.5614,-2.5262,-2.4923,-2.4675,-2.4608,-2.4625,-2.4675,-2.4608,-2.405,-2.3135,-2.2467,-2.1608,-2.0782,-2.0782,-2.1156,-2.156,-2.0401,-1.9927,-1.9751,-1.8691,-1.8292,-1.8267,-1.8304,-1.8329,-1.8329,-1.8329,-1.7965,-1.7652,-1.8129,-1.789,-1.7739,-1.8807,-1.8422,-1.7731,-1.7677,-1.6574,-1.5517,-1.5468,-1.541,-1.541,-1.541,-1.5098,-1.4834,-1.4834,-1.4834,-1.4834,-1.4834,-1.5156,-1.541,-1.541,-1.541,-1.541,-1.541,-1.541,-1.541,-1.541,-1.541,-1.541,-1.541,-1.4688,-1.3965,-1.3191,-1.2381,-1.195,-1.1888,-1.1834,-1.2143,-1.2887,-1.2887,-1.3067,-1.36,-1.3562,-1.395,-1.3143,-1.4332,-1.5605,-1.6875,0.0,0.0,0.0,0.0,0.0,0.0,0.0,0.0,0.0,0.0,0.0,0.0,0.0,0.0,0.0,0.0,0.0,0.0,0.0,0.0,0.0,0.0,0.0,0.0,0.0,0.0,0.0,0.0,0.0,-2.463,-2.4649,-2.4795,-2.5107,-2.5107,-2.4868,-2.4377,-2.4562,-2.4576,-2.4489,-2.4019,-2.4083,-2.4458,-2.3706,-2.303,-2.2401,-2.1379,-2.0613,-2.0079,-2.0079,-2.002,-1.9904,-1.9433,-1.8892,-1.8325,-1.8206,-1.7978,-1.7752,-1.8091,-1.8204,-1.8204,-1.8204,-1.8053,-1.7865,-1.7727,-1.779,-1.8066,-1.8832,-1.8428,-1.7785,-1.7609,-1.681,-1.5979,-1.5526,-1.541,-1.541,-1.541,-1.5068,-1.4785,-1.4785,-1.4561,-1.4473,-1.4746,-1.4922,-1.5117,-1.5381,-1.541,-1.541,-1.541,-1.541,-1.541,-1.541,-1.541,-1.541,-1.541,-1.5108,-1.4569,-1.3786,-1.3476,-1.2801,-1.1834,-1.1834,-1.171,-1.1483,-1.1483,-1.1604,-1.1721,-1.1919,-1.2145,-1.2203,-1.3557,-1.5176,0.0,0.0,0.0,0.0,0.0,0.0,0.0,0.0,0.0,0.0,0.0,0.0,0.0,0.0,0.0,0.0,0.0,0.0,0.0,0.0,0.0,0.0,0.0,0.0,0.0,0.0,0.0,0.0,0.0,0.0,0.0,-2.419,-2.419,-2.419,-2.419,-2.4016,-2.3692,-2.3922,-2.3981,-2.3908,-2.3316,-2.3325,-2.3765,-2.277,-2.2117,-2.1696,-2.0704,-2.0054,-1.969,-1.969,-1.9485,-1.9117,-1.8754,-1.8202,-1.7622,-1.7662,-1.7426,-1.7174,-1.7551,-1.7677,-1.7677,-1.7677,-1.7677,-1.7589,-1.7212,-1.7375,-1.7743,-1.809,-1.7855,-1.7508,-1.7373,-1.6759,-1.6036,-1.5526,-1.541,-1.5371,-1.5244,-1.4873,-1.4541,-1.4404,-1.4131,-1.4033,-1.4336,-1.4609,-1.4893,-1.5176,-1.5332,-1.541,-1.541,-1.541,-1.541,-1.541,-1.5177,-1.4991,-1.4991,-1.4805,-1.4392,-1.3846,-1.3356,-1.2565,-1.1469,-1.1406,-1.1163,-1.0624,-1.0624,-1.0624,-1.0624,-1.0762,-1.0909,-1.373,-1.3997,0.0,0.0,0.0,0.0,0.0,0.0,0.0,0.0,0.0,0.0,0.0,0.0,0.0,0.0,0.0,0.0,0.0,0.0,0.0,0.0,0.0,0.0,0.0,0.0,0.0,0.0,0.0,0.0,0.0,0.0,0.0,0.0,-2.419,-2.419,-2.419,-2.419,-2.4036,-2.3692,-2.3369,-2.3021,-2.2695,-2.2426,-2.231,-2.2265,-2.1794,-2.1368,-2.0959,-2.0483,-2.0054,-1.969,-1.969,-1.969,-1.9566,-1.8496,-1.8106,-1.7947,-1.6879,-1.6522,-1.6522,-1.6522,-1.6522,-1.6522,-1.6522,-1.6522,-1.6522,-1.6522,-1.6522,-1.6492,-1.6414,-1.6593,-1.6777,-1.6777,-1.6061,-1.54,-1.54,-1.54,-1.5273,-1.4863,-1.4424,-1.3941,-1.3584,-1.3506,-1.3506,-1.3516,-1.4238,-1.4775,-1.4785,-1.5146,-1.541,-1.541,-1.541,-1.541,-1.541,-1.4688,-1.4213,-1.4213,-1.3425,-1.3009,-1.3009,-1.1483,-1.0624,-1.0624,-1.0624,-1.0624,-1.0624,-1.0624,-1.0624,-1.0624,-1.0624,-1.0715,-1.2108,-1.3063,0.0,0.0,0.0,0.0,0.0,0.0,0.0,0.0,0.0,0.0,0.0,0.0,0.0,0.0,0.0,0.0,0.0,0.0,0.0,0.0,0.0,0.0,0.0,0.0,0.0,0.0,0.0,0.0,0.0,0.0,0.0,0.0,-2.4478,-2.441,-2.441,-2.4266,-2.4151,-2.4054,-2.3714,-2.3236,-2.2695,-2.2426,-2.231,-2.2254,-2.1507,-2.1118,-2.0926,-2.0174,-1.9818,-1.969,-1.969,-1.9479,-1.9043,-1.838,-1.7867,-1.7422,-1.6752,-1.6522,-1.6522,-1.6522,-1.6522,-1.6522,-1.6522,-1.6522,-1.6522,-1.6522,-1.6522,-1.6504,-1.6479,-1.6092,-1.5742,-1.5674,-1.5415,-1.5057,-1.4566,-1.4512,-1.4473,-1.4355,-1.3984,-1.375,-1.3863,-1.3457,-1.3271,-1.3857,-1.3906,-1.4102,-1.4707,-1.4893,-1.5078,-1.5381,-1.541,-1.5167,-1.4628,-1.4332,-1.3965,-1.3364,-1.2573,-1.2143,-1.2143,-1.171,-1.1163,-1.0624,-1.0624,-1.0624,-1.0624,-1.0624,-1.0624,-1.0624,-1.0624,-1.0672,-1.2727,0.0,0.0,0.0,0.0,0.0,0.0,0.0,0.0,0.0,0.0,0.0,0.0,0.0,0.0,0.0,0.0,0.0,0.0,0.0,0.0,0.0,0.0,0.0,0.0,0.0,0.0,0.0,0.0,0.0,0.0,0.0,0.0,0.0,-2.4607,-2.4495,-2.4495,-2.4303,-2.419,-2.419,-2.3732,-2.33,-2.2898,-2.259,-2.2398,-2.2254,-2.1401,-2.0894,-2.0665,-1.998,-1.969,-1.969,-1.969,-1.9369,-1.8855,-1.8302,-1.7747,-1.7229,-1.668,-1.6522,-1.6522,-1.6522,-1.6522,-1.6522,-1.6522,-1.6522,-1.6522,-1.6522,-1.6522,-1.638,-1.5932,-1.5599,-1.5389,-1.5246,-1.4966,-1.4609,-1.4184,-1.4077,-1.4029,-1.3863,-1.3682,-1.3535,-1.3623,-1.3213,-1.3047,-1.3555,-1.3711,-1.4004,-1.4697,-1.4932,-1.5127,-1.5381,-1.541,-1.505,-1.4273,-1.3914,-1.3364,-1.2573,-1.1779,-1.1351,-1.1351,-1.1351,-1.1108,-1.0624,-1.0624,-1.0624,-1.0624,-1.0624,-1.0624,-1.0624,-1.0624,-1.0624,0.0,0.0,0.0,0.0,0.0,0.0,0.0,0.0,0.0,0.0,0.0,0.0,0.0,0.0,0.0,0.0,0.0,0.0,0.0,0.0,0.0,0.0,0.0,0.0,0.0,0.0,0.0,0.0,0.0,0.0,0.0,0.0,0.0,0.0,-2.4639,-2.4528,-2.4528,-2.4321,-2.419,0.0,-2.3544,-2.3212,-2.3189,-2.2822,-2.251,-2.218,-2.1354,-2.0715,-2.028,-1.9874,-1.969,-1.969,-1.969,-1.9369,-1.8855,-1.8302,-1.7747,-1.7229,-1.668,-1.6522,-1.6522,-1.6522,-1.6522,-1.6522,-1.6522,-1.6522,-1.6522,-1.6522,-1.6479,-1.6151,-1.5062,-1.5096,-1.538,-1.5199,-1.4612,-1.4067,-1.4014,-1.397,-1.3906,-1.3525,-1.3447,-1.334,-1.2998,-1.29,-1.2881,-1.2881,-1.3564,-1.4238,-1.4668,-1.5088,-1.5313,-1.5284,-1.5294,-1.4932,-1.4085,-1.3304,-1.2573,-1.1772,-1.0982,-1.0624,-1.0624,-1.0624,-1.0624,-1.0624,-1.0624,-1.0624,-1.0624,-1.0624,-1.0624,-1.0624,-1.0624,-1.0624,0.0,0.0,0.0,0.0,0.0,0.0,0.0,0.0,0.0,0.0,0.0,0.0,0.0,0.0,0.0,0.0,0.0,0.0,0.0,0.0,0.0,0.0,0.0,0.0,0.0,0.0,0.0,0.0,0.0,0.0,0.0,0.0,0.0,-2.5182,-2.4915,-2.4731,-2.4731,-2.4375,-2.419,0.0,-2.3795,-2.3437,-2.3165,-2.2634,-2.2158,-2.1718,-2.1213,-2.0715,-2.028,-1.9874,-1.969,-1.969,-1.969,-1.9369,-1.8855,-1.8302,-1.7747,-1.7229,-1.668,-1.6522,-1.6522,-1.6522,-1.6522,-1.6522,-1.6522,-1.6522,-1.6522,-1.6522,-1.6151,-1.572,-1.5454,-1.4812,-1.4165,-1.4131,-1.3999,-1.3744,-1.3244,-1.3154,-1.3125,-1.3037,-1.3018,-1.3096,-1.333,-1.3096,-1.2881,-1.2881,-1.3311,-1.3799,-1.4219,-1.4648,-1.4811,-1.4483,-1.4451,-1.3897,-1.2443,-1.2135,-1.1717,-1.0926,-1.0681,-1.0624,-1.0624,-1.0624,-1.0624,-1.0624,-1.0624,-1.0624,-1.0624,-1.0624,-1.0624,-1.0624,-1.0624,-1.0624,0.0,0.0,0.0,0.0,0.0,0.0,0.0,0.0,0.0,0.0,0.0,0.0,0.0,0.0,0.0,0.0,0.0,0.0,0.0,0.0,0.0,0.0,0.0,0.0,0.0,0.0,0.0,0.0,0.0,0.0,0.0,-2.5303,-2.5303,-2.5303,-2.5037,-2.485,-2.4804,-2.4495,-2.4303,-2.4208,-2.3876,-2.3437,-2.2947,-2.249,-2.218,-2.1899,-2.1291,-2.0862,-2.0599,-1.9945,-1.969,-1.969,-1.969,-1.9207,-1.8496,-1.8224,-1.7585,-1.6879,-1.6595,-1.6522,-1.6522,-1.6522,-1.6522,-1.6522,-1.6522,-1.6522,-1.6522,-1.6522,-1.6281,-1.592,-1.5332,-1.4687,-1.4107,-1.3515,-1.3372,-1.3286,-1.2978,-1.2881,-1.2881,-1.2881,-1.2881,-1.2949,-1.3174,-1.3027,-1.2881,-1.2881,-1.3408,-1.3834,-1.4048,-1.4687,-1.4869,-1.4246,-1.4213,-1.3537,-1.1958,-1.1834,-1.1469,-1.0618,-1.0624,-1.0624,-1.0624,-1.0624,-1.0624,-1.0624,-1.0624,-1.0624,-1.0624,-1.0624,-1.0624,-1.0624,-1.0624,-1.0624,0.0,0.0,0.0,0.0,0.0,0.0,0.0,0.0,0.0,0.0,0.0,0.0,0.0,0.0,0.0,0.0,0.0,0.0,0.0,0.0,0.0,0.0,0.0,0.0,0.0,0.0,0.0,0.0,0.0,0.0,-2.5063,-2.5101,-2.5159,-2.5303,-2.5077,-2.4917,-2.4804,-2.4578,-2.4357,-2.4208,-2.3795,-2.3277,-2.2608,-2.2398,-2.231,-2.2254,-2.1401,-2.0991,-2.0926,-2.005,-1.969,-1.969,-1.969,-1.9043,-1.8106,-1.8106,-1.7435,-1.6522,-1.6522,-1.6522,-1.6522,-1.6522,-1.6522,-1.6522,-1.6522,-1.6522,-1.6522,-1.6522,-1.6423,-1.6107,-1.5107,-1.4698,-1.4294,-1.3286,-1.2968,-1.2881,-1.2881,-1.2881,-1.2881,-1.2881,-1.2881,-1.2881,-1.2881,-1.2881,-1.2881,-1.2881,-1.3594,-1.4077,-1.4077,-1.477,-1.4874,-1.4085,-1.3846,-1.3174,-1.171,-1.1586,-1.1267,-1.0551,-1.0481,-1.0481,-1.0481,-1.0481,-1.0571,-1.0624,-1.0624,-1.0624,-1.0624,-1.0624,-1.0624,-1.0624,-1.0624,-1.0624,0.0,0.0,0.0,0.0,0.0,0.0,0.0,0.0,0.0,0.0,0.0,0.0,0.0,0.0,0.0,0.0,0.0,0.0,0.0,0.0,0.0,0.0,0.0,0.0,0.0,0.0,0.0,0.0,0.0,0.0,-2.4206,-2.4264,-2.4582,-2.5284,-2.4987,-2.4832,-2.4804,-2.4445,-2.4228,-2.419,-2.3566,-2.2958,-2.2349,-2.231,-2.231,-2.2254,-2.1401,-2.0991,-2.0926,-2.005,-1.969,-1.969,-1.969,-1.9043,-1.8106,-1.8106,-1.7435,-1.6522,-1.6522,-1.6522,-1.6522,-1.6522,-1.6522,-1.6522,-1.6522,-1.6522,-1.6522,-1.6522,-1.6139,-1.5676,-1.5543,-1.4675,-1.3862,-1.3732,-1.3286,-1.2881,-1.2881,-1.2881,-1.2881,-1.2881,-1.2881,-1.2881,-1.2881,-1.2881,-1.2881,-1.2881,-1.3594,-1.4077,-1.4077,-1.4241,-1.4025,-1.3252,-1.2573,-1.1772,-1.0863,-1.0744,-1.0573,-1.0194,-1.0174,-1.0174,-1.0174,-1.0174,-1.0294,-1.0618,-1.0624,-1.0624,-1.0624,-1.0624,-1.0624,-1.0624,-1.0624,-1.0624,0.0,0.0,0.0,0.0,0.0,0.0,0.0,0.0,0.0,0.0,0.0,0.0,0.0,0.0,0.0,0.0,0.0,0.0,0.0,0.0,0.0,0.0,0.0,0.0,0.0,0.0,0.0,0.0,0.0,-2.2447,-2.334,-2.3379,-2.3524,-2.3889,-2.4114,-2.4187,-2.4058,-2.4269,-2.4229,-2.3917,-2.3414,-2.2965,-2.2527,-2.236,-2.231,-2.2254,-2.1401,-2.0991,-2.0926,-2.005,-1.969,-1.969,-1.969,-1.9043,-1.8106,-1.8106,-1.7435,-1.6522,-1.6522,-1.6522,-1.6522,-1.6522,-1.6522,-1.6522,-1.6522,-1.6522,-1.6522,-1.6522,-1.6293,-1.6008,-1.5676,-1.496,-1.4236,-1.3862,-1.3334,-1.2881,-1.2881,-1.2881,-1.2881,-1.2881,-1.2881,-1.2881,-1.2881,-1.2881,-1.2881,-1.2881,-1.3594,-1.3917,-1.3476,-1.3898,-1.3726,-1.2451,-1.202,-1.1469,-1.0688,-1.0408,-1.0254,-1.0127,-0.9967,-0.9873,-0.9873,-1.0027,-1.018,-1.0307,-1.0474,-1.0364,-0.9849,-0.9849,-0.9652,-0.9128,-0.9128,-0.9128,0.0,0.0,0.0,0.0,0.0,0.0,0.0,0.0,0.0,0.0,0.0,0.0,0.0,0.0,0.0,0.0,0.0,0.0,0.0,0.0,0.0,0.0,0.0,0.0,0.0,0.0,0.0,0.0,0.0,-2.1562,-2.2427,-2.2466,-2.2562,-2.2793,-2.3201,-2.3341,-2.321,-2.3715,-2.384,-2.3566,-2.3236,-2.2898,-2.2599,-2.2388,-2.2237,-2.2077,-2.1323,-2.0926,-2.0764,-2.0015,-1.969,-1.969,-1.9566,-1.893,-1.8066,-1.7947,-1.7312,-1.6522,-1.6522,-1.6522,-1.6522,-1.6522,-1.6522,-1.6522,-1.6522,-1.6522,-1.6522,-1.6522,-1.6522,-1.638,-1.5964,-1.5365,-1.4789,-1.419,-1.3552,-1.3104,-1.292,-1.2881,-1.2881,-1.2881,-1.2881,-1.2881,-1.2881,-1.2881,-1.2881,-1.2881,-1.3594,-1.3809,-1.2977,-1.3487,-1.3364,-1.195,-1.1648,-1.1226,-1.0618,-1.0287,-1.0087,-1.0013,-0.9733,-0.9573,-0.9573,-0.9853,-1.004,-1.0114,-1.022,-0.9977,-0.9274,-0.9075,-0.8613,-0.8027,-0.8027,-0.8027,0.0,0.0,0.0,0.0,0.0,0.0,0.0,0.0,0.0,0.0,0.0,0.0,0.0,0.0,0.0,0.0,0.0,0.0,0.0,0.0,0.0,0.0,0.0,0.0,0.0,0.0,0.0,0.0,0.0,-2.0716,-2.1523,-2.1562,-2.1947,-2.2774,-2.254,-2.2375,-2.2362,-2.252,-2.2808,-2.3212,-2.2898,-2.2573,-2.2321,-2.231,-2.2061,-2.1628,-2.1181,-2.0764,-2.0314,-1.9874,-1.969,-1.9639,-1.9132,-1.8612,-1.8027,-1.7544,-1.6993,-1.6522,-1.6522,-1.6522,-1.6522,-1.6522,-1.6522,-1.6522,-1.6522,-1.6522,-1.6522,-1.6522,-1.6522,-1.6466,-1.6479,-1.6008,-1.541,-1.4789,-1.419,-1.36,-1.3017,-1.2881,-1.2881,-1.2881,-1.2881,-1.2881,-1.2881,-1.2881,-1.2881,-1.2881,-1.3594,-1.3809,-1.2977,-1.3023,-1.2757,-1.1888,-1.1108,-1.0624,-1.0624,-1.0287,-1.0,-0.9726,-0.9426,-0.921,-0.921,-0.9546,-0.9833,-1.0114,-0.9649,-0.9338,-0.9274,-0.8484,-0.8027,-0.8027,-0.8027,-0.8027,0.0,0.0,0.0,0.0,0.0,0.0,0.0,0.0,0.0,0.0,0.0,0.0,0.0,0.0,0.0,0.0,0.0,0.0,0.0,0.0,0.0,0.0,0.0,0.0,0.0,0.0,0.0,0.0,0.0,0.0,-2.0716,-2.0735,-2.0869,-2.1196,-2.1377,-2.1634,-2.1977,-2.1844,-2.1767,-2.1742,-2.1912,-2.1842,-2.16,-2.209,-2.1915,-2.1213,-2.1055,-2.0715,-2.028,-1.9874,-1.969,-1.9639,-1.9132,-1.8574,-1.8027,-1.7504,-1.6951,-1.6522,-1.6522,-1.6522,-1.6522,-1.6522,-1.6522,-1.6522,-1.6522,-1.6522,-1.6522,-1.6522,-1.6522,-1.6423,-1.6008,-1.5466,-1.4789,-1.3789,-1.3382,-1.3152,-1.2978,-1.2881,-1.2881,-1.2881,-1.2881,-1.2881,-1.2881,-1.2881,-1.2881,-1.2881,-1.3594,-1.3629,-1.2291,-1.2664,-1.252,-1.117,-1.0567,-1.0274,-1.0274,-0.9833,-0.9455,-0.9406,-0.9125,-0.8767,-0.8373,-0.9227,-0.9571,-0.9291,-0.8742,-0.8484,-0.8484,-0.7567,-0.6854,-0.6338,-0.6338,-0.6338,0.0,0.0,0.0,0.0,0.0,0.0,0.0,0.0,0.0,0.0,0.0,0.0,0.0,0.0,0.0,0.0,0.0,0.0,0.0,0.0,0.0,0.0,0.0,0.0,0.0,0.0,0.0,0.0,0.0,0.0,-2.0312,-2.0312,-2.026,-2.0144,-2.0384,-2.0798,-2.1345,-2.1006,-2.0845,-2.0909,-2.101,-2.0968,-2.0822,-2.1583,-2.1462,-2.0639,-2.0895,-2.0665,-2.0089,-1.9803,-1.9603,-1.9369,-1.8855,-1.8302,-1.7787,-1.7229,-1.6795,-1.6522,-1.6522,-1.6522,-1.6466,-1.6238,-1.6194,-1.6151,-1.5976,-1.5888,-1.5888,-1.5888,-1.5888,-1.5788,-1.5421,-1.4824,-1.4201,-1.3382,-1.3065,-1.2881,-1.2881,-1.2881,-1.2881,-1.2881,-1.2881,-1.2881,-1.2881,-1.2881,-1.2881,-1.2881,-1.3263,-1.3094,-1.1878,-1.2147,-1.1913,-1.0594,-1.0234,-1.0114,-1.0114,-0.9522,-0.9151,-0.9048,-0.8711,-0.8233,-0.7635,-0.8768,-0.9058,-0.836,-0.8101,-0.7827,-0.7567,-0.6658,-0.5947,-0.5428,-0.5428,-0.5428,0.0,0.0,0.0,0.0,0.0,0.0,0.0,0.0,0.0,0.0,0.0,0.0,0.0,0.0,0.0,0.0,0.0,0.0,0.0,0.0,0.0,0.0,0.0,0.0,0.0,0.0,0.0,0.0,0.0,-2.0235,-2.0254,-2.0285,-2.0144,-1.979,-1.9669,-1.9888,-2.0448,-1.9935,-2.007,-2.0817,-2.0237,-1.9968,-1.9985,-2.0795,-2.0704,-1.9923,-2.0671,-2.0499,-1.969,-1.969,-1.9369,-1.8855,-1.8302,-1.7747,-1.7229,-1.671,-1.6522,-1.6522,-1.6522,-1.6479,-1.638,-1.5776,-1.5588,-1.5454,-1.488,-1.4698,-1.4698,-1.4698,-1.4698,-1.4698,-1.4698,-1.4236,-1.3768,-1.3768,-1.3334,-1.2881,-1.2881,-1.2881,-1.2881,-1.2881,-1.2881,-1.2881,-1.2881,-1.2881,-1.2881,-1.2832,-1.2619,-1.2263,-1.1726,-1.1453,-1.0974,-1.0161,-1.0094,-1.0087,-1.0087,-0.9508,-0.9067,-0.8804,-0.8253,-0.7646,-0.7121,-0.8177,-0.8365,-0.7514,-0.7787,-0.7567,-0.6719,-0.5815,-0.5428,-0.5428,-0.5428,-0.5428,-1.0147,0.0,0.0,0.0,0.0,0.0,0.0,0.0,0.0,0.0,0.0,0.0,0.0,0.0,0.0,0.0,0.0,0.0,0.0,0.0,0.0,0.0,0.0,0.0,0.0,0.0,0.0,0.0,-1.7953,-1.8696,-1.9338,-1.9816,-1.9952,-1.9656,-1.9623,-1.9538,-1.9412,-1.9092,-1.8931,-1.8958,-1.9115,-1.9076,-1.8884,-2.0119,-2.028,-1.9577,-2.0235,-2.0193,-1.969,-1.9281,-1.9043,-1.8817,-1.7867,-1.7422,-1.7229,-1.671,-1.6522,-1.6522,-1.6522,-1.6194,-1.582,-1.5632,-1.532,-1.4926,-1.4744,-1.4698,-1.4698,-1.4698,-1.4698,-1.4606,-1.4143,-1.36,-1.3152,-1.3152,-1.3017,-1.2881,-1.2881,-1.2881,-1.2881,-1.2881,-1.2881,-1.2715,-1.2187,-1.208,-1.1931,-1.1425,-1.1602,-1.1514,-1.0755,-1.0895,-1.0704,-0.9917,-0.9613,-0.9422,-0.9422,-0.9276,-0.8907,-0.8172,-0.8224,-0.7709,-0.6476,-0.7345,-0.7573,-0.6961,-0.7015,-0.6915,-0.6719,-0.5815,-0.5428,-0.5428,-0.5428,-0.5428,0.0,0.0,0.0,0.0,0.0,0.0,0.0,0.0,0.0,0.0,0.0,0.0,0.0,0.0,0.0,0.0,0.0,0.0,0.0,0.0,0.0,0.0,0.0,0.0,0.0,0.0,0.0,-1.6493,-1.724,-1.8087,-1.8953,-1.9239,-1.9476,-1.9676,-1.9536,-1.9323,-1.9001,-1.8734,-1.8469,-1.8187,-1.8353,-1.8272,-1.7988,-1.9394,-1.9605,-1.8951,-1.9896,-1.9934,-1.9332,-1.8779,-1.8574,-1.8496,-1.7626,-1.7146,-1.6909,-1.6637,-1.6522,-1.6466,-1.6194,-1.5908,-1.5543,-1.4994,-1.4595,-1.4294,-1.4025,-1.3931,-1.3931,-1.3931,-1.3931,-1.3884,-1.3515,-1.3152,-1.2881,-1.2881,-1.2881,-1.2881,-1.2881,-1.2881,-1.2881,-1.2881,-1.2881,-1.2666,-1.1922,-1.1814,-1.1566,-1.0914,-1.0788,-1.0674,-1.0346,-1.0258,-0.9989,-0.9549,-0.9345,-0.9183,-0.9183,-0.8893,-0.8413,-0.7752,-0.7594,-0.6974,-0.5917,-0.6685,-0.6865,-0.6203,-0.6527,-0.6527,-0.6141,-0.562,-0.5428,-0.5428,-0.5428,-0.5428,0.0,0.0,0.0,0.0,0.0,0.0,-1.2014,-1.1604,0.0,0.0,0.0,0.0,0.0,0.0,0.0,0.0,0.0,0.0,0.0,0.0,0.0,0.0,0.0,0.0,0.0,-1.5939,-1.6368,-1.6368,-1.7105,-1.7907,-1.865,-1.8479,-1.8757,-1.9616,-1.93,-1.9057,-1.8949,-1.8697,-1.843,-1.8146,-1.7883,-1.7572,-1.7297,-1.8582,-1.8799,-1.8223,-1.9467,-1.9611,-1.8855,-1.8263,-1.8027,-1.7947,-1.7435,-1.6909,-1.6522,-1.6522,-1.6479,-1.6337,-1.5776,-1.5487,-1.5219,-1.4133,-1.3732,-1.36,-1.3055,-1.2881,-1.2881,-1.2881,-1.2881,-1.2881,-1.2881,-1.2881,-1.2881,-1.2881,-1.2881,-1.2881,-1.2881,-1.2881,-1.2881,-1.2774,-1.2774,-1.251,-1.1724,-1.1566,-1.1366,-1.0661,-1.0064,-0.9821,-1.0117,-0.9562,-0.9137,-0.9137,-0.9137,-0.915,-0.9183,-0.8435,-0.7786,-0.7536,-0.6688,-0.5958,-0.5422,-0.6137,-0.6203,-0.5428,-0.6141,-0.6203,-0.5428,-0.5428,-0.5428,-0.5428,-0.5428,-0.5428,0.0,-1.238,-1.2154,0.0,0.0,0.0,0.0,-1.1134,0.0,0.0,0.0,0.0,0.0,0.0,0.0,0.0,0.0,0.0,0.0,0.0,0.0,0.0,0.0,0.0,0.0,-1.5395,-1.5449,-1.5449,-1.624,-1.6732,-1.675,-1.7255,-1.7858,-1.8559,-1.8218,-1.823,-1.866,-1.841,-1.8146,-1.7861,-1.7549,-1.7224,-1.6924,-1.746,-1.7744,-1.7809,-1.8185,-1.8564,-1.8817,-1.7867,-1.7463,-1.7394,-1.6879,-1.6595,-1.6522,-1.6522,-1.6182,-1.5764,-1.5632,-1.4949,-1.4086,-1.3862,-1.3467,-1.3065,-1.2929,-1.2881,-1.2881,-1.2881,-1.2881,-1.2881,-1.2881,-1.2881,-1.2881,-1.2881,-1.2881,-1.2881,-1.2881,-1.2881,-1.2715,-1.2129,-1.2021,-1.1625,-1.0415,-1.021,-0.9969,-0.9309,-0.9061,-0.9029,-0.909,-0.8938,-0.8891,-0.8891,-0.8891,-0.8985,-0.9163,-0.8559,-0.7976,-0.7536,-0.6755,-0.6089,-0.5422,-0.5557,-0.5557,-0.5428,-0.5557,-0.5557,-0.5428,-0.5428,-0.5428,-0.5428,-0.5428,-0.5428,0.0,0.0,-1.304,-1.2963,0.0,0.0,0.0,0.0,-1.2068,0.0,0.0,0.0,0.0,0.0,0.0,0.0,0.0,0.0,0.0,0.0,0.0,0.0,0.0,0.0,0.0,-1.4945,-1.512,-1.5071,-1.5496,-1.5898,-1.623,-1.6545,-1.7033,-1.7783,-1.7746,-1.7804,-1.8002,-1.8139,-1.7997,-1.7549,-1.7368,-1.7052,-1.6559,-1.7083,-1.7456,-1.7694,-1.7824,-1.8118,-1.8458,-1.7626,-1.7146,-1.6879,-1.6595,-1.6522,-1.6522,-1.6522,-1.6139,-1.5543,-1.5276,-1.4549,-1.3732,-1.3467,-1.3152,-1.2881,-1.2881,-1.2881,-1.2881,-1.2881,-1.2881,-1.2881,-1.2881,-1.2881,-1.2881,-1.2881,-1.2608,-1.2344,-1.2344,-1.2344,-1.2039,-1.1015,-1.1065,-1.0965,-0.9961,-0.9814,-0.9562,-0.891,-0.8804,-0.8804,-0.8804,-0.8804,-0.8804,-0.8804,-0.8804,-0.8925,-0.9157,-0.862,-0.8041,-0.7546,-0.6913,-0.6177,-0.5425,-0.5428,-0.5428,-0.5428,-0.5428,-0.5428,-0.5428,-0.5428,-0.5428,-0.5428,-0.5428,-0.5428,0.0,0.0,0.0,0.0,0.0,-1.3967,0.0,0.0,0.0,-1.2945,0.0,0.0,0.0,0.0,0.0,0.0,0.0,0.0,0.0,0.0,0.0,0.0,0.0,0.0,0.0,-1.4459,-1.4804,-1.4849,-1.4763,-1.5084,-1.5923,-1.5875,-1.6195,-1.7005,-1.7274,-1.7413,-1.74,-1.7887,-1.7849,-1.7296,-1.7231,-1.6901,-1.6316,-1.6774,-1.7137,-1.7403,-1.7496,-1.7637,-1.7783,-1.73,-1.6879,-1.6522,-1.6522,-1.6423,-1.6337,-1.6337,-1.5864,-1.5174,-1.4698,-1.4154,-1.3552,-1.3065,-1.2881,-1.2881,-1.2881,-1.2881,-1.2881,-1.2881,-1.2881,-1.2881,-1.2881,-1.2881,-1.2881,-1.2881,-1.2452,-1.1972,-1.1814,-1.1814,-1.1416,-1.0064,-1.0269,-1.0415,-0.971,-0.9614,-0.9413,-0.8857,-0.8804,-0.8804,-0.8804,-0.8804,-0.8831,-0.8884,-0.8891,-0.8923,-0.9091,-0.8567,-0.7947,-0.7361,-0.6728,-0.6102,-0.5425,-0.5428,-0.5428,-0.5428,-0.5428,-0.5428,-0.5428,-0.5428,-0.5428,-0.5428,-0.5428,-0.5428,0.0,0.0,0.0,0.0,-1.5092,0.0,0.0,0.0,-1.3794,-1.2357,0.0,0.0,0.0,0.0,0.0,0.0,0.0,0.0,0.0,0.0,0.0,0.0,0.0,0.0,0.0,0.0,-1.3958,-1.4596,-1.4044,-1.4006,-1.4747,-1.4849,-1.5221,-1.603,-1.6265,-1.6711,-1.7382,-1.7683,-1.7664,-1.7296,-1.7002,-1.6659,-1.6301,-1.6059,-1.6099,-1.6279,-1.632,-1.6457,-1.6665,-1.6632,-1.6552,-1.6522,-1.6522,-1.6194,-1.572,-1.572,-1.4994,-1.4003,-1.3909,-1.3505,-1.2968,-1.2929,-1.2881,-1.2881,-1.2881,-1.2881,-1.2881,-1.2881,-1.2881,-1.2881,-1.2881,-1.2881,-1.2881,-1.2881,-1.2822,-1.2608,-1.1922,-1.1814,-1.1416,-1.0064,-0.9865,-0.9718,-0.9008,-0.891,-0.891,-0.8804,-0.8804,-0.8804,-0.8804,-0.8804,-0.8905,-0.911,-0.9137,-0.906,-0.8854,-0.799,-0.7223,-0.6794,-0.5853,-0.5345,-0.5422,-0.5428,-0.5428,-0.5428,-0.5428,-0.5428,-0.5428,-0.5428,-0.5428,-0.5428,-0.5428,-0.5428,0.0,0.0,0.0,0.0,0.0,0.0,0.0,0.0,-1.4293,0.0,0.0,0.0,0.0,0.0,0.0,0.0,0.0,0.0,0.0,0.0,0.0,0.0,0.0,0.0,0.0,0.0,0.0,0.0,0.0,-1.3571,-1.4434,-1.4508,-1.4736,-1.5189,-1.5842,-1.636,-1.6694,-1.7233,-1.7344,-1.7002,-1.6686,-1.6313,-1.6011,-1.5856,-1.5905,-1.6085,-1.5763,-1.5797,-1.603,-1.6038,-1.6045,-1.6028,-1.5972,-1.582,-1.5588,-1.5588,-1.4858,-1.3815,-1.3815,-1.342,-1.2881,-1.2881,-1.2881,-1.2881,-1.2881,-1.2881,-1.2881,-1.2881,-1.2881,-1.2881,-1.2881,-1.2881,-1.2881,-1.2881,-1.2559,-1.2089,-1.1366,-1.1216,-1.0813,-0.9465,-0.951,-0.9562,-0.891,-0.8804,-0.8804,-0.8804,-0.8804,-0.8804,-0.8804,-0.8958,-0.905,-0.917,-0.8928,-0.8762,-0.8827,-0.7966,-0.7183,-0.6702,-0.5814,-0.5294,-0.5425,-0.5428,-0.5428,-0.5428,-0.5428,-0.5428,-0.5428,-0.5428,-0.5428,-0.5428,-0.5428,-0.5428,-1.4737,0.0,0.0,0.0,0.0,0.0,0.0,0.0,0.0,0.0,0.0,0.0,0.0,0.0,0.0,0.0,0.0,0.0,0.0,0.0,0.0,0.0,0.0,0.0,0.0,0.0,0.0,0.0,0.0,0.0,-1.4089,-1.4229,-1.4361,-1.4563,-1.5559,-1.6081,-1.5993,-1.6869,-1.7101,-1.6659,-1.6436,-1.6108,-1.5799,-1.5668,-1.5637,-1.5652,-1.5296,-1.5162,-1.5251,-1.5426,-1.5467,-1.5464,-1.5272,-1.5156,-1.5122,-1.5128,-1.4457,-1.3552,-1.3552,-1.3286,-1.2881,-1.2881,-1.2881,-1.2881,-1.2881,-1.2881,-1.2881,-1.2881,-1.2881,-1.2881,-1.2881,-1.2881,-1.2881,-1.2881,-1.2344,-1.1616,-1.0965,-1.0661,-1.0167,-0.9008,-0.9211,-0.9361,-0.891,-0.8804,-0.8804,-0.8804,-0.8804,-0.8804,-0.8804,-0.9058,-0.9154,-0.9002,-0.8725,-0.844,-0.8251,-0.7651,-0.7022,-0.6388,-0.5752,-0.5428,-0.5428,-0.5428,-0.5428,-0.5428,-0.5428,-0.5428,-0.5428,-0.5428,-0.5428,-0.5428,-0.5428,-0.5428,0.0,0.0,0.0,-1.4738,0.0,0.0,0.0,0.0,-1.5435,0.0,0.0,0.0,0.0,0.0,0.0,0.0,0.0,0.0,0.0,0.0,0.0,0.0,0.0,0.0,0.0,0.0,0.0,0.0,0.0,0.0,-1.3439,-1.3774,-1.4011,-1.4201,-1.5309,-1.5755,-1.5435,-1.6669,-1.6977,-1.6328,-1.6301,-1.6108,-1.577,-1.5329,-1.4921,-1.457,-1.4681,-1.4505,-1.4184,-1.4714,-1.4941,-1.4851,-1.4356,-1.4057,-1.396,-1.3889,-1.3457,-1.2929,-1.2929,-1.2929,-1.2881,-1.2881,-1.2881,-1.2881,-1.2881,-1.2881,-1.2881,-1.2881,-1.2881,-1.2881,-1.2881,-1.2881,-1.2881,-1.2881,-1.2344,-1.1616,-1.0965,-1.0312,-0.9614,-0.8956,-0.8804,-0.8804,-0.8804,-0.8804,-0.8804,-0.8804,-0.8804,-0.8804,-0.8804,-0.9058,-0.9002,-0.8498,-0.8632,-0.8256,-0.6885,-0.6711,-0.6326,-0.5491,-0.5428,-0.5428,-0.5428,-0.5428,-0.5428,-0.5428,-0.5428,-0.5428,-0.5428,-0.5428,-0.5428,-0.5428,-0.5428,-0.5428,0.0,0.0,-1.5509,-1.4701,0.0,0.0,0.0,0.0,0.0,0.0,0.0,0.0,0.0,0.0,0.0,0.0,0.0,0.0,0.0,0.0,0.0,0.0,0.0,0.0,0.0,0.0,0.0,0.0,0.0,0.0,0.0,-1.3584,-1.3719,-1.3739,-1.4486,-1.4766,-1.4483,-1.5468,-1.5861,-1.5635,-1.5854,-1.574,-1.5329,-1.5165,-1.4752,-1.4098,-1.4133,-1.3934,-1.3546,-1.4135,-1.4175,-1.3821,-1.3581,-1.3437,-1.3365,-1.3345,-1.3164,-1.2881,-1.2881,-1.2881,-1.2881,-1.2881,-1.2881,-1.2881,-1.2881,-1.2881,-1.2881,-1.2881,-1.2881,-1.2881,-1.2881,-1.2881,-1.2881,-1.2881,-1.2344,-1.1616,-1.0965,-1.0261,-0.9614,-0.8903,-0.8804,-0.8804,-0.8804,-0.8804,-0.8804,-0.8804,-0.8804,-0.8804,-0.8804,-0.9058,-0.9002,-0.8446,-0.81,-0.7588,-0.6767,-0.6203,-0.5686,-0.5428,-0.5428,-0.5428,-0.5428,-0.5428,-0.5428,-0.5428,-0.5428,-0.5428,-0.5428,-0.5428,-0.5428,-0.5428,-0.5428,-0.5428,-1.4624,-1.4947,0.0,-1.4707,-1.4966,0.0,-1.4689,0.0,0.0,0.0,0.0,0.0,0.0,0.0,0.0,0.0,0.0,0.0,0.0,0.0,0.0,0.0,0.0,0.0,0.0,0.0,-0.9685,-1.0651,0.0,0.0,0.0,0.0,-1.3294,-1.3421,-1.3899,-1.4018,-1.3723,-1.4623,-1.5015,-1.4883,-1.5183,-1.5165,-1.4876,-1.4752,-1.4406,-1.3901,-1.3702,-1.3493,-1.3223,-1.3431,-1.3338,-1.2969,-1.2581,-1.2571,-1.2801,-1.2799,-1.2809,-1.2881,-1.2881,-1.2881,-1.2881,-1.2881,-1.2881,-1.2881,-1.2881,-1.2881,-1.2881,-1.2881,-1.2881,-1.2881,-1.2881,-1.2881,-1.2881,-1.2881,-1.2344,-1.1616,-1.0965,-1.0261,-0.9614,-0.8903,-0.8804,-0.8804,-0.8804,-0.8804,-0.8804,-0.8804,-0.8804,-0.8804,-0.8804,-0.9152,-0.9004,-0.8047,-0.7808,-0.7295,-0.6322,-0.5752,-0.5428,-0.5428,-0.5428,-0.5428,-0.5428,-0.5428,-0.5428,-0.5428,-0.5428,-0.5428,-0.5428,-0.5428,-0.5428,-0.5428,-0.5428,-0.5428]},{"header":{"parameterUnit":"m.s-1","parameterCategory":1,"la1":30.6,"la2":29.2853,"lo1":-89.7004,"lo2":-87.6739,"dy":0.0162,"dx":0.0183,"nx":112,"ny":82,"refTime":"2024-08-09T12:00:00:Z","depth":0,"parameterNumber":3,"parameterNumberName":"V-component_of_WINDS"},"data":[0.0,0.0,0.0,0.0,0.0,0.0,0.0,0.0,0.0,0.0,0.0,0.0,0.0,0.0,0.0,0.0,0.0,0.0,0.0,0.0,0.0,0.0,0.0,0.0,0.0,0.0,0.0,0.0,0.0,0.0,0.0,0.0,0.0,0.0,0.0,0.0,0.0,0.0,0.0,0.0,0.0,0.0,0.0,0.0,0.0,0.0,0.0,0.0,0.0,0.0,0.0,0.0,0.0,0.0,0.0,0.0,0.0,0.0,0.0,0.0,0.0,0.0,0.0,0.0,0.0,0.0,0.0,0.0,0.0,0.0,0.0,0.0,0.0,0.0,0.0,0.0,0.0,0.0,0.0,0.0,0.0,0.0,0.0,0.0,0.0,0.0,0.0,0.0,0.0,0.0,0.0,-2.3877,-2.6236,-2.7413,-2.7025,-2.4875,-2.3782,-2.4216,0.0,0.0,0.0,0.0,0.0,0.0,0.0,0.0,0.0,0.0,0.0,0.0,0.0,0.0,0.0,0.0,0.0,0.0,0.0,0.0,0.0,0.0,0.0,0.0,0.0,0.0,0.0,0.0,0.0,0.0,0.0,0.0,0.0,0.0,0.0,0.0,0.0,0.0,0.0,0.0,0.0,0.0,0.0,0.0,0.0,0.0,0.0,0.0,0.0,0.0,0.0,0.0,0.0,0.0,0.0,0.0,0.0,0.0,0.0,0.0,0.0,0.0,0.0,0.0,0.0,0.0,0.0,0.0,0.0,0.0,0.0,0.0,0.0,0.0,0.0,0.0,0.0,0.0,0.0,0.0,0.0,0.0,0.0,0.0,0.0,0.0,0.0,0.0,0.0,0.0,0.0,0.0,0.0,0.0,0.0,0.0,0.0,0.0,0.0,0.0,0.0,0.0,0.0,0.0,-2.1579,-2.6491,-2.7364,-2.6684,-2.4414,-2.3822,-2.3496,-2.3252,0.0,0.0,0.0,0.0,0.0,0.0,0.0,0.0,0.0,0.0,0.0,0.0,0.0,0.0,0.0,0.0,0.0,0.0,0.0,0.0,0.0,0.0,0.0,0.0,0.0,0.0,0.0,0.0,0.0,0.0,0.0,0.0,0.0,0.0,0.0,0.0,0.0,0.0,0.0,0.0,0.0,0.0,0.0,0.0,0.0,0.0,0.0,0.0,0.0,0.0,0.0,0.0,0.0,0.0,0.0,0.0,0.0,0.0,0.0,0.0,0.0,0.0,0.0,0.0,0.0,0.0,0.0,0.0,0.0,0.0,0.0,0.0,0.0,0.0,0.0,0.0,0.0,0.0,0.0,0.0,0.0,0.0,0.0,0.0,0.0,0.0,0.0,0.0,0.0,0.0,0.0,0.0,0.0,0.0,0.0,0.0,0.0,0.0,0.0,0.0,0.0,0.0,0.0,-2.0949,-2.2753,-2.5152,-2.5438,-2.4946,-2.3681,-2.3985,-2.3836,-2.2959,-2.1198,0.0,0.0,0.0,0.0,0.0,0.0,0.0,0.0,0.0,0.0,0.0,0.0,0.0,0.0,0.0,0.0,0.0,0.0,0.0,0.0,0.0,0.0,0.0,0.0,0.0,0.0,0.0,0.0,0.0,0.0,0.0,0.0,0.0,0.0,0.0,0.0,0.0,0.0,0.0,0.0,0.0,0.0,0.0,0.0,0.0,0.0,0.0,0.0,0.0,0.0,0.0,0.0,0.0,0.0,0.0,0.0,0.0,0.0,0.0,0.0,0.0,0.0,0.0,0.0,0.0,0.0,0.0,0.0,0.0,0.0,0.0,0.0,0.0,0.0,0.0,0.0,0.0,0.0,0.0,0.0,0.0,0.0,0.0,0.0,0.0,0.0,0.0,0.0,0.0,0.0,0.0,0.0,0.0,0.0,0.0,0.0,0.0,0.0,0.0,0.0,0.0,0.0,-2.1857,-2.3616,-2.36,-2.358,-2.3666,-2.3864,-2.3963,-2.3637,-2.2805,-2.0953,0.0,0.0,0.0,0.0,0.0,0.0,0.0,0.0,0.0,0.0,0.0,0.0,0.0,0.0,0.0,0.0,0.0,0.0,0.0,0.0,0.0,0.0,0.0,0.0,0.0,0.0,0.0,0.0,0.0,0.0,0.0,0.0,0.0,0.0,0.0,0.0,0.0,0.0,0.0,0.0,0.0,0.0,0.0,0.0,0.0,0.0,0.0,0.0,0.0,0.0,0.0,0.0,0.0,0.0,0.0,0.0,0.0,0.0,0.0,0.0,0.0,0.0,0.0,0.0,0.0,0.0,0.0,0.0,0.0,0.0,0.0,0.0,0.0,0.0,0.0,0.0,0.0,0.0,0.0,0.0,0.0,0.0,0.0,0.0,0.0,0.0,0.0,0.0,0.0,0.0,0.0,0.0,0.0,0.0,0.0,0.0,0.0,0.0,0.0,0.0,0.0,0.0,-2.1492,-2.3605,-2.3608,-2.3611,-2.39,-2.4581,-2.2977,-2.2108,-2.2573,-1.9927,0.0,0.0,0.0,0.0,0.0,0.0,0.0,0.0,0.0,0.0,0.0,0.0,0.0,0.0,0.0,0.0,0.0,0.0,0.0,0.0,0.0,0.0,0.0,0.0,0.0,0.0,0.0,0.0,0.0,0.0,0.0,0.0,0.0,0.0,0.0,0.0,0.0,0.0,0.0,0.0,0.0,0.0,0.0,0.0,0.0,0.0,0.0,0.0,0.0,0.0,0.0,0.0,0.0,0.0,0.0,0.0,0.0,0.0,0.0,0.0,0.0,0.0,0.0,0.0,0.0,0.0,0.0,0.0,0.0,0.0,0.0,0.0,0.0,0.0,0.0,0.0,0.0,0.0,0.0,0.0,0.0,0.0,0.0,0.0,0.0,0.0,0.0,0.0,0.0,0.0,0.0,0.0,0.0,0.0,0.0,0.0,0.0,0.0,0.0,0.0,0.0,0.0,-2.2316,-2.3582,0.0,-2.3595,-2.3882,-2.4657,-2.3787,-2.2814,-2.1984,0.0,0.0,0.0,0.0,0.0,0.0,0.0,0.0,0.0,0.0,0.0,0.0,0.0,0.0,0.0,0.0,0.0,0.0,0.0,0.0,0.0,0.0,0.0,0.0,0.0,0.0,0.0,0.0,0.0,0.0,0.0,0.0,0.0,0.0,0.0,0.0,0.0,0.0,0.0,0.0,0.0,0.0,0.0,0.0,0.0,0.0,0.0,0.0,0.0,0.0,0.0,0.0,0.0,0.0,0.0,0.0,0.0,0.0,0.0,0.0,0.0,0.0,0.0,0.0,0.0,0.0,0.0,0.0,0.0,0.0,0.0,0.0,0.0,0.0,0.0,0.0,0.0,0.0,0.0,0.0,0.0,0.0,0.0,0.0,0.0,0.0,0.0,0.0,0.0,0.0,0.0,0.0,0.0,0.0,0.0,0.0,0.0,0.0,0.0,0.0,0.0,0.0,-2.0846,-2.2418,-2.3375,0.0,-2.3952,-2.4302,-2.4705,-2.4047,-2.2897,-2.1114,0.0,0.0,0.0,0.0,0.0,0.0,0.0,0.0,0.0,0.0,0.0,0.0,0.0,0.0,0.0,0.0,0.0,0.0,0.0,0.0,0.0,0.0,0.0,0.0,0.0,0.0,0.0,0.0,0.0,0.0,0.0,0.0,0.0,0.0,0.0,0.0,0.0,0.0,0.0,0.0,0.0,0.0,0.0,0.0,0.0,0.0,0.0,0.0,0.0,0.0,0.0,0.0,0.0,0.0,0.0,0.0,0.0,0.0,0.0,0.0,0.0,0.0,0.0,0.0,0.0,0.0,0.0,0.0,0.0,0.0,0.0,0.0,0.0,0.0,0.0,0.0,0.0,0.0,0.0,0.0,0.0,0.0,0.0,0.0,0.0,0.0,0.0,0.0,0.0,0.0,0.0,0.0,0.0,0.0,0.0,0.0,0.0,0.0,0.0,0.0,0.0,0.0,-2.002,-2.1573,-2.2848,-2.3968,-2.4766,-2.5067,-2.482,-2.3457,-2.1867,0.0,0.0,0.0,0.0,0.0,0.0,0.0,0.0,0.0,0.0,0.0,0.0,0.0,0.0,0.0,0.0,0.0,0.0,0.0,0.0,0.0,0.0,0.0,0.0,0.0,0.0,0.0,0.0,0.0,0.0,0.0,0.0,0.0,0.0,0.0,0.0,0.0,0.0,0.0,0.0,0.0,0.0,0.0,0.0,0.0,0.0,0.0,0.0,0.0,0.0,0.0,0.0,0.0,0.0,0.0,0.0,0.0,0.0,0.0,0.0,0.0,0.0,0.0,0.0,0.0,0.0,0.0,0.0,0.0,0.0,0.0,0.0,0.0,0.0,0.0,0.0,0.0,0.0,0.0,0.0,0.0,0.0,0.0,0.0,0.0,0.0,0.0,0.0,0.0,0.0,0.0,0.0,0.0,0.0,0.0,0.0,0.0,0.0,0.0,0.0,0.0,0.0,0.0,-2.0763,-2.2162,-2.3195,-2.4005,-2.4297,-2.4305,-2.4031,-2.3161,-2.2098,-2.0914,0.0,0.0,0.0,0.0,0.0,0.0,0.0,0.0,0.0,0.0,0.0,0.0,0.0,0.0,0.0,0.0,0.0,0.0,0.0,0.0,0.0,0.0,0.0,0.0,0.0,0.0,0.0,0.0,0.0,0.0,0.0,0.0,0.0,0.0,0.0,0.0,0.0,0.0,0.0,0.0,0.0,0.0,0.0,0.0,0.0,0.0,0.0,0.0,0.0,0.0,0.0,0.0,0.0,0.0,0.0,0.0,0.0,0.0,0.0,0.0,0.0,0.0,0.0,0.0,0.0,0.0,0.0,0.0,0.0,0.0,0.0,0.0,0.0,0.0,0.0,0.0,0.0,0.0,0.0,0.0,0.0,0.0,0.0,0.0,0.0,0.0,0.0,0.0,0.0,0.0,0.0,0.0,0.0,0.0,0.0,0.0,0.0,0.0,0.0,0.0,0.0,0.0,-2.0974,-2.2573,-2.3742,-2.4599,-2.4944,-2.4839,-2.4081,-2.3616,-2.2592,-2.0812,0.0,0.0,0.0,0.0,0.0,0.0,0.0,0.0,0.0,0.0,0.0,0.0,0.0,0.0,0.0,0.0,0.0,0.0,0.0,0.0,0.0,0.0,0.0,0.0,0.0,0.0,0.0,0.0,0.0,0.0,0.0,0.0,0.0,0.0,0.0,0.0,0.0,0.0,0.0,0.0,0.0,0.0,0.0,0.0,0.0,0.0,0.0,0.0,0.0,0.0,0.0,0.0,0.0,0.0,0.0,0.0,0.0,0.0,0.0,0.0,0.0,0.0,0.0,0.0,0.0,0.0,0.0,0.0,0.0,0.0,0.0,0.0,0.0,0.0,0.0,0.0,0.0,0.0,0.0,0.0,0.0,0.0,0.0,0.0,0.0,0.0,0.0,0.0,0.0,0.0,0.0,0.0,0.0,0.0,0.0,0.0,0.0,0.0,0.0,0.0,0.0,0.0,-2.0921,-2.2859,-2.438,-2.5492,-2.6201,-2.5998,-2.454,-2.4404,-2.3156,-2.0289,0.0,0.0,0.0,0.0,0.0,0.0,0.0,0.0,0.0,0.0,0.0,0.0,0.0,0.0,0.0,0.0,0.0,0.0,0.0,0.0,0.0,0.0,0.0,0.0,0.0,0.0,0.0,0.0,0.0,0.0,0.0,0.0,0.0,0.0,0.0,0.0,0.0,0.0,0.0,0.0,0.0,0.0,0.0,0.0,0.0,0.0,0.0,0.0,0.0,0.0,0.0,0.0,0.0,0.0,0.0,0.0,0.0,0.0,0.0,0.0,-1.6939,0.0,0.0,0.0,0.0,0.0,0.0,0.0,0.0,0.0,0.0,0.0,0.0,0.0,0.0,0.0,0.0,0.0,0.0,0.0,0.0,0.0,0.0,0.0,0.0,0.0,0.0,0.0,0.0,0.0,0.0,0.0,0.0,0.0,0.0,0.0,0.0,0.0,0.0,0.0,0.0,0.0,-2.1646,-2.3418,-2.4669,-2.5492,-2.5744,-2.5236,-2.3748,-2.363,-2.2852,-2.1059,-2.034,0.0,0.0,0.0,0.0,0.0,0.0,0.0,0.0,0.0,0.0,0.0,0.0,0.0,0.0,0.0,0.0,0.0,0.0,0.0,0.0,0.0,0.0,0.0,0.0,0.0,0.0,0.0,0.0,0.0,0.0,0.0,0.0,0.0,0.0,0.0,0.0,0.0,0.0,0.0,0.0,0.0,0.0,0.0,0.0,0.0,0.0,0.0,0.0,0.0,0.0,0.0,0.0,0.0,0.0,0.0,0.0,0.0,0.0,0.0,0.0,-1.8748,0.0,0.0,0.0,0.0,0.0,0.0,0.0,0.0,0.0,0.0,0.0,0.0,0.0,0.0,0.0,0.0,0.0,0.0,0.0,0.0,0.0,0.0,0.0,0.0,0.0,0.0,0.0,0.0,0.0,0.0,0.0,0.0,0.0,0.0,0.0,0.0,0.0,0.0,0.0,0.0,-2.2417,-2.3799,-2.4929,-2.6015,-2.5812,-2.5152,-2.4019,-2.3596,-2.2988,-2.1987,-2.1108,0.0,0.0,0.0,0.0,0.0,0.0,0.0,0.0,0.0,0.0,0.0,0.0,0.0,0.0,0.0,0.0,0.0,0.0,0.0,0.0,0.0,0.0,0.0,0.0,0.0,0.0,0.0,0.0,0.0,0.0,0.0,0.0,0.0,0.0,0.0,0.0,0.0,0.0,0.0,0.0,0.0,0.0,0.0,0.0,0.0,0.0,0.0,0.0,0.0,0.0,0.0,0.0,0.0,-1.7955,-1.8767,-2.0127,-2.0925,-2.1277,-2.1315,-2.1462,-2.0976,-2.0019,0.0,0.0,0.0,0.0,0.0,0.0,0.0,0.0,0.0,0.0,0.0,0.0,0.0,0.0,0.0,0.0,0.0,0.0,0.0,0.0,0.0,0.0,0.0,0.0,0.0,-2.0467,-2.0898,0.0,0.0,0.0,0.0,0.0,0.0,0.0,0.0,0.0,0.0,0.0,0.0,-2.3021,-2.4036,-2.5082,-2.6539,-2.6167,-2.549,-2.4729,-2.4002,-2.3369,-2.285,-2.1803,-2.1267,0.0,0.0,0.0,0.0,0.0,0.0,0.0,0.0,0.0,0.0,0.0,0.0,0.0,0.0,0.0,0.0,0.0,0.0,0.0,0.0,0.0,0.0,0.0,0.0,0.0,0.0,0.0,0.0,0.0,0.0,0.0,0.0,-1.2721,-1.4109,0.0,0.0,0.0,0.0,0.0,0.0,0.0,0.0,0.0,0.0,0.0,0.0,0.0,-1.6463,-1.6882,-1.7733,-1.8545,-1.9377,-1.9845,-2.0438,-2.1322,-2.264,-2.323,-2.328,-2.4443,0.0,-2.1335,-2.0168,0.0,0.0,0.0,0.0,0.0,0.0,0.0,0.0,0.0,0.0,0.0,0.0,0.0,0.0,0.0,0.0,0.0,0.0,0.0,0.0,0.0,0.0,-2.1306,-2.1306,-2.1805,-2.2259,0.0,-2.0351,-1.8483,-1.7786,-1.7242,0.0,0.0,0.0,0.0,0.0,0.0,0.0,-2.3088,-2.4036,-2.5082,-2.6539,-2.6607,-2.6251,-2.5524,-2.478,-2.4049,-2.3362,-2.3057,-2.2587,-2.1932,-2.1642,0.0,0.0,0.0,0.0,0.0,0.0,0.0,0.0,0.0,0.0,0.0,0.0,0.0,0.0,0.0,0.0,0.0,0.0,0.0,0.0,0.0,0.0,0.0,0.0,0.0,0.0,0.0,0.0,0.0,-1.2026,-1.4219,-1.5577,-1.5388,-1.4936,0.0,0.0,0.0,0.0,0.0,0.0,0.0,0.0,0.0,-1.7155,-1.792,-1.8437,-1.8661,-1.9682,-2.056,-2.1173,-2.135,-2.1807,-2.2455,-2.3541,-2.4033,-2.4111,-2.516,-2.4956,-2.3789,-2.2443,-2.1812,-2.1612,0.0,0.0,0.0,0.0,-2.2445,-2.3124,-2.2719,-2.2438,0.0,0.0,0.0,0.0,0.0,0.0,0.0,0.0,0.0,0.0,0.0,0.0,0.0,-2.2248,-2.3141,-2.3935,-2.3718,-2.3161,-2.2355,0.0,-1.9815,-1.9044,-1.9187,0.0,0.0,0.0,0.0,0.0,-2.3765,-2.4644,-2.5524,-2.659,-2.6336,-2.5778,-2.5033,-2.4306,-2.3616,-2.3059,-2.3115,-2.3117,-2.2954,-2.2644,-2.1914,0.0,0.0,0.0,0.0,0.0,0.0,0.0,0.0,0.0,0.0,0.0,0.0,0.0,0.0,0.0,0.0,0.0,0.0,0.0,0.0,0.0,0.0,0.0,0.0,0.0,0.0,0.0,0.0,-1.4278,-1.4897,-1.6564,-1.6291,-1.5758,0.0,0.0,0.0,0.0,0.0,0.0,-1.562,-1.6598,-1.7622,-1.8777,-1.9589,-2.0213,-2.0584,-2.1362,-2.2014,-2.2523,-2.2673,-2.2874,-2.3113,-2.4184,-2.464,-2.472,-2.5687,-2.6019,-2.5749,-2.4418,-2.3413,-2.2763,-2.2472,-2.2817,-2.3504,-2.337,-2.3762,-2.4365,-2.4148,-2.401,-2.3759,-2.2729,0.0,-2.0279,-1.9956,0.0,0.0,0.0,0.0,-2.1499,-2.1854,-2.2428,-2.2906,-2.2906,-2.4073,-2.5038,-2.4489,-2.5005,-2.5156,0.0,-2.2335,-2.1541,-2.1587,0.0,0.0,0.0,0.0,-2.3325,-2.4611,-2.5253,-2.5879,-2.6623,-2.6201,-2.5659,-2.5133,-2.4205,-2.3527,-2.3175,-2.32,-2.3323,-2.3566,-2.3411,-2.2923,-2.2116,0.0,0.0,0.0,0.0,0.0,0.0,0.0,0.0,0.0,0.0,0.0,0.0,0.0,0.0,0.0,0.0,0.0,0.0,0.0,0.0,0.0,0.0,0.0,0.0,0.0,0.0,0.0,0.0,0.0,-1.7247,-1.689,0.0,0.0,0.0,0.0,-1.7735,-1.6919,-1.6934,-1.8306,-1.9203,-2.0073,-2.0997,-2.0986,-2.1608,-2.294,-2.2722,-2.2747,-2.304,-2.3653,-2.364,-2.3125,-2.4684,-2.5356,-2.5412,-2.6879,-2.7126,-2.6437,-2.5121,-2.4396,-2.4128,-2.3489,-2.3161,-2.3012,-2.3032,-2.3483,-2.4111,-2.4106,-2.3806,-2.3514,-2.4095,-2.328,-2.2147,-2.2623,-2.2327,0.0,0.0,-2.2724,-2.3172,-2.2757,-2.3086,-2.355,-2.355,-2.4399,-2.5205,-2.5134,-2.5386,-2.5372,0.0,-2.4357,-2.4306,-2.4306,0.0,-2.4303,-2.4337,-2.4371,-2.4661,-2.5456,-2.5592,-2.5879,-2.6623,-2.6657,-2.6623,-2.659,-2.5253,-2.4438,-2.4404,-2.3641,-2.3212,-2.3212,-2.3801,-2.3768,-2.296,-2.2097,0.0,0.0,0.0,0.0,0.0,0.0,0.0,0.0,0.0,0.0,0.0,0.0,0.0,0.0,0.0,0.0,0.0,0.0,0.0,0.0,0.0,0.0,0.0,0.0,0.0,0.0,0.0,0.0,-1.7102,-1.7509,0.0,-1.7945,-1.8552,-1.885,-1.8735,-1.9033,-1.9388,-1.9861,-2.0401,-2.1141,-2.1993,-2.2615,-2.3058,-2.3252,-2.3806,-2.3914,-2.369,-2.3904,-2.369,-2.3138,-2.4221,-2.4951,-2.5453,-2.6443,-2.7019,-2.7186,-2.6722,-2.5963,-2.5137,-2.5259,-2.5004,-2.4601,-2.4918,-2.493,-2.4777,-2.443,-2.4177,-2.3962,-2.3483,-2.3117,-2.2848,-2.2643,-2.2664,-2.2829,-2.2925,-2.3218,-2.3489,-2.3308,-2.3697,-2.4032,-2.3681,-2.4657,-2.5615,-2.5259,-2.5766,-2.6234,-2.5964,-2.5167,-2.4644,-2.5118,-2.4797,-2.4506,-2.4506,-2.4898,-2.5304,-2.5575,-2.6015,-2.6404,-2.6657,-2.6691,-2.6302,-2.5338,-2.4811,-2.4069,-2.3139,-2.2945,-2.2972,-2.3189,-2.3649,-2.383,-2.3768,-2.2978,-2.1473,0.0,0.0,0.0,0.0,0.0,0.0,0.0,0.0,0.0,0.0,0.0,0.0,0.0,0.0,0.0,0.0,0.0,0.0,0.0,0.0,0.0,0.0,0.0,0.0,0.0,0.0,-1.6081,-1.7395,-1.7971,-1.8597,-1.9363,-2.0421,-2.1003,-2.0817,-2.1315,-2.1411,-2.1067,-2.1296,-2.154,-2.1841,-2.2362,-2.2752,-2.3084,-2.3797,-2.421,-2.428,-2.428,-2.3979,-2.3414,-2.4034,-2.4681,-2.5453,-2.6176,-2.693,-2.7625,-2.7625,-2.7066,-2.6291,-2.6427,-2.6046,-2.5494,-2.5886,-2.5545,-2.4905,-2.4317,-2.4116,-2.4013,-2.3242,-2.3175,-2.3315,-2.2858,-2.32,-2.3619,-2.3458,-2.3629,-2.3837,-2.3638,-2.3879,-2.4074,-2.3921,-2.4816,-2.5689,-2.5503,-2.6139,-2.6691,-2.6691,-2.5896,-2.5389,-2.5896,-2.5558,-2.522,-2.522,-2.5659,-2.5981,-2.5981,-2.6404,-2.6691,-2.6691,-2.6691,-2.6201,-2.4966,-2.4659,-2.3998,-2.275,-2.2701,-2.2797,-2.3021,-2.3459,-2.3795,-2.4016,-2.3088,-2.2189,-2.1328,0.0,0.0,0.0,0.0,0.0,0.0,0.0,0.0,0.0,0.0,0.0,0.0,0.0,0.0,0.0,0.0,0.0,0.0,0.0,0.0,0.0,0.0,0.0,-1.3532,-1.531,-1.6917,-1.8091,-1.8242,-1.9219,-2.1669,-2.1423,-2.2019,-2.4214,-2.3782,-2.2988,-2.2002,-2.1913,-2.1486,-2.0658,-2.0186,-2.0895,-2.2733,-2.2903,-2.3571,-2.4845,-2.4833,-2.4531,-2.4041,-2.4157,-2.4681,-2.5398,-2.6176,-2.6878,-2.7575,-2.7575,-2.7625,-2.7565,-2.6871,-2.6213,-2.563,-2.563,-2.5226,-2.4522,-2.3894,-2.3655,-2.3625,-2.3625,-2.3625,-2.3595,-2.3595,-2.3948,-2.4266,-2.3767,-2.3948,-2.4282,-2.3709,-2.3595,-2.3752,-2.4282,-2.4831,-2.5373,-2.5888,-2.6367,-2.6691,-2.6691,-2.6691,-2.6691,-2.6691,-2.6691,-2.6691,-2.6691,-2.6691,0.0,-2.6691,-2.6691,-2.6691,-2.6691,-2.6691,-2.6404,-2.5659,-2.4915,-2.4201,-2.3444,-2.2949,-2.2712,-2.2755,-2.3382,-2.3728,-2.375,-2.2538,-2.2263,-2.3015,0.0,0.0,0.0,0.0,0.0,0.0,0.0,0.0,0.0,0.0,0.0,0.0,0.0,0.0,0.0,0.0,0.0,0.0,0.0,0.0,0.0,0.0,-1.4306,-1.4519,-1.5645,-1.6995,-1.8607,-1.9564,-2.0526,-2.1603,-2.278,-2.3499,-2.3619,-2.3573,-2.3194,-2.2349,-2.2062,-2.1607,-2.1052,-2.1604,-2.234,-2.3265,-2.406,-2.4725,-2.5385,-2.5008,-2.4531,-2.3979,-2.3571,-2.3884,-2.4624,-2.5398,-2.6122,-2.6826,-2.7357,-2.7625,-2.761,-2.743,-2.6901,-2.6318,-2.6318,-2.5899,-2.5315,-2.5121,-2.4747,-2.4343,-2.4343,-2.4014,-2.3595,-2.3595,-2.3724,-2.3794,-2.3638,-2.3724,-2.3794,-2.3638,-2.3879,-2.4116,-2.3879,-2.4816,-2.5726,-2.5449,-2.6087,-2.6691,-2.6691,-2.6691,-2.6691,-2.6691,-2.6691,-2.6691,-2.6691,-2.6691,0.0,-2.6691,-2.6691,-2.6691,-2.6691,-2.6691,-2.6404,-2.5659,-2.4915,-2.4201,-2.3444,-2.2768,-2.2875,-2.3897,-2.4129,-2.4428,-2.4915,-2.4592,-2.3933,0.0,0.0,0.0,0.0,0.0,0.0,0.0,0.0,0.0,0.0,0.0,0.0,0.0,0.0,0.0,0.0,0.0,0.0,0.0,0.0,0.0,0.0,-1.3345,-1.4946,-1.5004,-1.6166,-1.7495,-1.8717,-1.9695,-2.0758,-2.1917,-2.3219,-2.3918,-2.3738,-2.3641,-2.3116,-2.2031,-2.1574,-2.1073,-2.0419,-2.1105,-2.191,-2.263,-2.3788,-2.4696,-2.5382,-2.5199,-2.4858,-2.433,-2.3753,-2.3773,0.0,-2.4738,-2.5508,-2.651,-2.693,-2.7306,0.0,0.0,0.0,0.0,0.0,-2.6348,-2.5974,-2.5704,-2.536,-2.494,-2.4672,-2.4537,-2.4328,-2.3774,-2.3804,-2.3969,-2.3684,-2.3595,-2.3595,-2.3595,-2.3837,-2.4032,-2.3964,-2.4816,-2.5652,-2.5561,-2.6175,-2.6691,-2.6691,-2.6691,0.0,-2.6691,-2.6691,-2.6691,-2.6691,-2.6691,-2.6691,-2.6691,-2.6691,-2.6691,-2.6691,-2.6691,-2.6404,-2.5659,-2.5203,0.0,0.0,0.0,-2.3962,-2.5075,-2.5117,0.0,0.0,0.0,0.0,0.0,0.0,0.0,0.0,-2.6153,-2.6264,0.0,0.0,0.0,0.0,0.0,0.0,0.0,0.0,0.0,0.0,0.0,0.0,0.0,0.0,0.0,0.0,-1.4079,-1.5052,-1.5164,-1.6658,-1.7932,-1.8496,-1.9202,-2.0324,-2.2189,-2.2929,-2.3463,-2.4008,-2.3638,-2.2755,-2.1185,0.0,0.0,0.0,0.0,-2.0497,-2.1439,-2.2791,-2.4036,-2.5004,-2.5376,-2.5322,-2.4808,-2.4255,-2.4045,-2.4176,-2.4234,-2.5063,-2.6283,-2.6336,-2.6826,-2.7458,-2.7575,-2.7625,-2.755,-2.6916,-2.6692,-2.6617,-2.6033,0.0,0.0,-2.5046,-2.5196,-2.539,-2.4193,-2.4208,-2.4462,-2.3879,-2.3655,-2.3595,-2.3595,-2.3595,-2.3724,-2.4199,-2.4792,-2.5335,-2.5815,-2.6332,-2.6691,-2.6691,-2.6691,-2.6691,-2.6691,-2.6691,-2.6691,-2.6691,-2.6691,-2.6691,-2.6691,-2.6691,-2.6691,-2.6691,0.0,0.0,-2.5795,-2.5659,-2.5462,-2.5178,-2.524,-2.5579,-2.6206,-2.6362,-2.6518,-2.6741,-2.6833,-2.7181,-2.7787,-2.7879,-2.8723,-3.0155,-2.8007,-2.7824,0.0,0.0,0.0,0.0,0.0,0.0,0.0,0.0,0.0,0.0,0.0,0.0,0.0,0.0,0.0,-1.2771,-1.4481,-1.5519,-1.4959,-1.5953,-1.7037,-1.7731,-1.8861,-1.9905,-2.0763,-2.1843,-2.2451,-2.2384,-2.2255,-2.1822,-2.0737,-2.0609,0.0,-2.0312,-2.0391,-2.0958,-2.1901,-2.2955,-2.4036,-2.5004,0.0,0.0,-2.4808,-2.4255,-2.3739,-2.3365,-2.4002,-2.4452,-2.4794,-2.5342,-2.6068,-2.6774,-2.7357,-2.7625,-2.761,-2.7475,-2.738,-2.7415,-2.7245,-2.6841,-2.6378,-2.6258,-2.5944,-2.5555,-2.53,-2.4941,0.0,-2.4418,-2.4029,-2.3595,-2.3595,-2.3595,-2.3638,-2.3709,-2.4511,-2.5221,-2.5335,-2.6052,-2.6691,-2.6691,-2.6691,-2.6691,-2.6691,-2.6691,-2.6691,-2.6691,-2.6691,-2.6691,-2.6691,-2.6691,-2.6691,-2.6691,-2.6691,-2.664,-2.6488,-2.5947,-2.5573,-2.5516,-2.6098,-2.6632,-2.7043,-2.7953,-2.816,-2.7585,-2.8209,-2.8301,-2.7787,-2.8448,-2.9274,-3.0191,-2.9732,-3.0026,0.0,0.0,0.0,0.0,0.0,0.0,0.0,0.0,0.0,0.0,0.0,-1.0383,-1.141,0.0,-1.2322,-1.2842,-1.3586,-1.4167,-1.4204,-1.4888,-1.5776,-1.6912,-1.7912,-1.8977,-2.026,-2.0831,-2.1295,-2.1842,-2.1498,-2.1086,-2.0603,-2.0607,-2.0566,-2.0566,-2.0566,-2.0867,-2.1298,-2.2776,-2.3745,-2.4253,-2.5159,-2.546,-2.5184,-2.4368,-2.3841,-2.3552,-2.3671,-2.3943,-2.435,-2.5119,-2.5618,-2.6014,-2.6375,-2.6967,-2.7575,-2.7203,-2.7306,-2.7625,-2.7625,-2.74,-2.6976,-2.6318,-2.6318,-2.6333,-2.5016,-2.4837,-2.4971,-2.4298,-2.3864,-2.3595,-2.3595,-2.3595,-2.3595,-2.3595,-2.4184,-2.4855,-2.5144,-2.5799,-2.6401,-2.6657,-2.6691,-2.6691,-2.6691,-2.6691,-2.6691,-2.6691,-2.6691,-2.6691,-2.6691,-2.6691,-2.6691,-2.6691,-2.6691,-2.6691,-2.6691,-2.6708,-2.6732,-2.6732,-2.7285,-2.7767,-2.8148,-2.8506,-2.8615,-2.8411,-2.8815,-2.8792,-2.8411,-2.9219,-3.0008,-3.0797,-3.1219,-3.1623,0.0,0.0,0.0,0.0,0.0,0.0,0.0,0.0,-0.998,-1.1074,-1.1343,-1.1656,-1.2541,-1.2554,-1.2458,-1.2641,-1.2577,-1.2756,-1.3397,-1.377,-1.4501,-1.5901,-1.6738,-1.7941,-1.9773,-1.9832,-2.02,-2.1318,-2.0891,-2.0532,-2.0329,-2.0532,-2.0566,-2.0566,-2.0566,-2.0566,-2.0566,-2.2563,-2.3514,-2.3514,-2.505,-2.5699,-2.5573,-2.4707,-2.4192,-2.3966,-2.3389,-2.3484,-2.4118,-2.4908,-2.5175,-2.5175,-2.5175,-2.6,-2.7137,-2.6669,-2.6878,-2.7408,-2.756,-2.7625,-2.743,-2.6183,-2.6512,-2.6961,-2.4672,-2.4657,-2.5196,-2.4103,-2.3699,-2.3595,-2.3595,-2.3595,-2.3595,-2.3595,-2.3991,-2.4552,-2.5089,-2.5615,-2.6156,-2.6624,-2.6691,-2.6691,-2.6691,-2.6691,-2.6691,-2.6691,-2.6691,-2.6691,-2.6691,-2.6691,-2.6691,-2.6691,-2.6691,-2.6691,-2.6691,-2.7286,-2.7736,-2.7897,-2.8156,-2.8515,-2.8994,-2.8682,-2.8658,-2.8994,-2.8994,-2.8994,-2.8994,-2.9824,-3.0613,-3.1403,-3.2228,-3.2687,-0.9171,-0.8975,-0.9287,-1.0439,-1.0497,-1.0713,0.0,0.0,-1.1991,-1.2568,-1.2695,-1.2551,-1.2012,-1.2393,-1.2641,-1.2117,-1.2547,-1.2951,-1.3072,-1.3105,-1.3485,-1.4323,-1.571,-1.7027,-1.8144,-1.8808,-1.9276,-1.9553,-2.0218,-2.0257,-1.9495,-2.0174,-2.0566,-2.0566,-2.0566,-2.0566,-2.0566,-2.2563,-2.3514,-2.3514,-2.5438,-2.6101,-2.5598,-2.5473,-2.4895,-2.3966,-2.3389,-2.3125,-2.3305,-2.4105,-2.4408,-2.4408,-2.4408,-2.4894,-2.5728,-2.6283,-2.6563,-2.6721,-2.7357,-2.7625,-2.7505,-2.6722,-2.6572,-2.6527,-2.5659,-2.5091,-2.4657,-2.4507,-2.4073,-2.3595,-2.3595,-2.3595,-2.3595,-2.3595,-2.3991,-2.4552,-2.5089,-2.5615,-2.6156,-2.6624,-2.6691,-2.6691,-2.6691,-2.6691,-2.6691,-2.6691,-2.6691,-2.6691,-2.6691,-2.6691,-2.6691,-2.6691,-2.6691,-2.6691,-2.6691,-2.6791,-2.7147,-2.7869,-2.7926,-2.8281,-2.8952,-2.897,-2.8952,-2.8994,-2.8994,-2.8994,-2.8994,-2.9824,-3.0613,-3.1403,-3.2228,-3.2981,-0.979,-1.0117,0.0,0.0,-1.1543,-1.1982,-1.2715,-1.2744,-1.2656,-1.2842,-1.2881,-1.2753,-1.23,-1.2088,-1.1894,0.0,-1.1428,-1.1563,-1.2235,-1.2328,-1.2573,-1.3425,-1.4703,-1.6237,-1.7861,-1.7801,-1.8124,-1.9236,-1.9369,-1.9433,-1.9268,-1.9863,-2.0303,-2.0557,-2.0566,-2.0566,-2.0566,-2.2563,-2.3514,-2.3514,-2.5172,-2.6013,-2.6076,-2.5435,-2.472,-2.3979,-2.374,-2.3439,-2.3138,-2.3484,-2.359,-2.359,-2.359,-2.3767,-2.4208,-2.5398,-2.6122,-2.6616,-2.7357,-2.7625,-2.7445,-2.6363,-2.6273,-2.6318,-2.4881,-2.4522,-2.4507,-2.4148,-2.3819,-2.3595,-2.3595,-2.3595,-2.3595,-2.3595,-2.3752,-2.4158,-2.5028,-2.5373,-2.5762,-2.6539,-2.6691,-2.6691,-2.6691,-2.6691,-2.6691,-2.6691,-2.6691,-2.6691,-2.6691,-2.6691,-2.6691,-2.6691,-2.6906,-2.7051,-2.7051,-2.7452,-2.7747,-2.7897,-2.8075,-2.8237,-2.8352,-2.8378,-2.8456,-2.8658,-2.8658,-2.901,-2.9714,-3.0503,-3.1311,-3.2118,-3.2926,-3.3476,-1.0128,0.0,0.0,-1.1724,-1.2227,-1.2734,-1.2852,-1.2881,-1.2881,-1.2881,-1.2881,-1.2713,-1.2126,-1.1625,-1.1192,-1.0938,-1.0407,-1.0397,-1.1363,-1.1469,-1.1772,-1.2573,-1.3663,-1.5136,-1.7111,-1.707,-1.7466,-1.8859,-1.8735,-1.8769,-1.9092,-1.9619,-2.0059,-2.0381,-2.0498,-2.0566,-2.0566,-2.2563,-2.3514,-2.3514,-2.5087,-2.605,-2.6496,-2.5473,-2.4745,-2.4217,-2.4067,-2.3665,-2.3078,-2.3078,-2.3078,-2.3078,-2.3078,-2.3078,-2.3305,-2.4838,-2.5728,-2.6283,-2.7034,-2.7408,-2.74,-2.6033,-2.5929,-2.5974,-2.4148,-2.3954,-2.4238,-2.3744,-2.3595,-2.3595,-2.3595,-2.3595,-2.3595,-2.3595,-2.3595,-2.3837,-2.4792,-2.4973,-2.5243,-2.6123,-2.6401,-2.6505,-2.6505,-2.6607,-2.6691,-2.6691,-2.6691,-2.6691,-2.6691,-2.6691,-2.6691,-2.6691,-2.6971,-2.7178,-2.7303,-2.7805,-2.8084,-2.8047,-2.8264,-2.829,-2.8047,-2.802,-2.8102,-2.8264,-2.835,-2.8946,-3.0051,-3.0931,-3.1756,-3.2456,-3.3241,-3.3578,0.0,0.0,-1.1133,-1.1947,-1.218,-1.2363,-1.2783,-1.2881,-1.2881,-1.2881,-1.2881,-1.2471,-1.1091,-1.1127,-1.095,-0.9928,-0.9933,-1.0221,-1.0577,-1.0624,-1.0926,-1.1772,-1.2581,-1.3732,0.0,-1.6701,-1.7539,-1.7978,-1.8398,-1.8643,-1.8652,-1.9453,-1.9922,-1.9932,-2.0342,-2.0566,-2.0566,-2.2563,-2.3514,-2.3514,-2.5557,-2.6508,-2.6508,-2.585,-2.5285,-2.477,-2.423,-2.3665,-2.3078,-2.3078,-2.3078,-2.3078,-2.3078,-2.3078,-2.3305,-2.4838,-2.5398,-2.5563,-2.6283,-2.6982,-2.74,-2.6033,-2.5615,-2.539,-2.4014,-2.361,-2.3625,-2.361,-2.3595,-2.3595,-2.3595,-2.3595,-2.3595,-2.3595,-2.3595,-2.3752,-2.4307,-2.443,-2.4592,-2.5144,-2.5652,-2.6013,-2.6013,-2.6401,-2.6691,-2.6691,-2.6691,-2.6691,-2.6691,-2.6691,-2.6691,-2.6691,-2.6725,-2.6873,-2.7272,-2.7334,-2.7631,-2.8324,-2.8376,-2.8394,-2.8394,-2.8376,-2.8237,-2.7926,-2.8237,-2.8799,-2.9602,-3.0812,-3.1608,-3.2029,-3.2852,-3.2983,0.0,0.0,-1.1277,-1.201,-1.2451,-1.2695,-1.2842,-1.319,-1.3372,-1.2968,-1.3238,-1.2957,-1.1116,-1.0912,-1.0674,-0.9822,-0.9766,-1.0,-1.0557,-1.0624,-1.0681,-1.0982,-1.2176,0.0,0.0,0.0,0.0,-1.7939,-1.7881,-1.8047,-1.8533,-1.8906,-1.9326,-1.9893,-2.0059,-2.0273,-2.0566,-2.2563,-2.3514,-2.3514,-2.5569,-2.6533,-2.6508,-2.5862,-2.531,-2.4795,-2.4243,-2.3665,-2.3078,-2.3078,-2.3078,-2.3078,-2.3078,-2.3078,-2.3125,-2.3695,-2.4496,-2.5563,-2.6811,-2.7408,-2.74,-2.6033,-2.5615,-2.536,-2.4014,-2.3595,-2.3595,-2.3595,-2.3595,-2.3595,-2.3595,-2.3595,-2.3595,-2.3595,-2.3595,-2.3767,-2.4266,-2.4389,-2.4657,-2.5577,-2.5888,-2.612,-2.6401,-2.659,-2.6691,-2.6691,-2.6691,-2.6691,-2.6691,-2.6691,-2.6691,-2.6691,-2.6939,-2.7272,-2.7648,-2.789,-2.8139,-2.8376,-2.8394,-2.8192,-2.7689,-2.766,-2.7601,-2.75,-2.7601,-2.8585,-3.045,-3.0876,-3.1801,-3.3195,-3.3223,-3.3124,0.0,-1.0713,-1.1415,-1.2224,-1.2676,-1.2881,-1.2881,-1.32,-1.3331,-1.2771,-1.2959,-1.2673,-1.0921,-1.0582,-1.0249,-0.9299,-0.9195,-0.9419,-0.9949,-1.011,-1.0276,-1.0701,-1.1884,-1.2751,0.0,0.0,0.0,-1.7415,-1.7543,-1.791,-1.8533,-1.8789,-1.9189,-1.9893,-2.0068,-2.0283,-2.0566,-2.2188,-2.3294,-2.4036,-2.5358,-2.6064,-2.6138,-2.5774,-2.5209,-2.4506,-2.4155,-2.3665,-2.3078,-2.3078,-2.3078,-2.3078,-2.3078,-2.3078,-2.3138,-2.3424,-2.4323,-2.5563,-2.6481,-2.699,-2.7036,-2.5959,-2.545,-2.5061,-2.3939,-2.3595,-2.3595,-2.3595,-2.3595,-2.3595,-2.3595,-2.3595,-2.3595,-2.3595,-2.3595,-2.3681,-2.4032,-2.4116,-2.4389,-2.5259,-2.5577,-2.5872,-2.6367,-2.659,-2.6691,-2.6691,-2.6691,-2.6691,-2.6691,-2.6691,-2.6691,-2.6691,-2.6939,-2.7241,-2.7648,-2.789,-2.8084,-2.821,-2.8324,-2.8084,-2.7317,-2.7439,-2.7457,-2.7286,-2.7303,-2.8421,-3.0668,-3.0828,-3.1753,-3.3314,-3.3075,-3.284,-0.9747,-1.0677,-1.1411,-1.2512,-1.2822,-1.2822,-1.2822,-1.2881,-1.2802,-1.2324,-1.218,-1.178,0.0,0.0,-0.9665,-0.8337,-0.8247,-0.851,-0.8955,-0.9178,-0.9709,0.0,0.0,0.0,0.0,0.0,0.0,-1.6392,0.0,-1.8125,-1.8543,-1.9053,-1.9482,-1.9902,-2.0312,-2.0547,-2.0566,-2.1517,-2.2999,-2.5004,-2.5004,-2.522,-2.5598,-2.5573,-2.4983,-2.4004,-2.3966,-2.364,-2.3078,-2.3078,-2.3078,-2.3078,-2.3078,-2.3078,-2.3198,-2.3943,-2.4738,-2.5342,-2.5398,-2.5907,-2.6482,-2.5779,-2.5136,-2.4448,-2.3804,-2.3595,-2.3595,-2.3595,-2.3595,-2.3595,-2.3595,-2.3595,-2.3595,-2.3595,-2.3595,-2.3595,-2.3595,-2.3595,-2.3752,-2.4348,-2.4894,-2.5449,-2.5961,-2.6401,-2.6691,-2.6691,-2.6691,-2.6691,-2.6691,-2.6691,-2.6725,-2.6725,-2.6725,-2.6873,-2.7286,-2.7303,-2.747,-2.7869,-2.8183,-2.8029,-2.7317,-2.7666,-2.7648,-2.7303,-2.7303,-2.825,-3.0247,-3.0668,-3.1428,-3.2517,-3.2484,-3.2248,-0.8491,-0.9477,-1.0354,-1.1149,-1.1724,-1.208,-1.208,-1.2861,-1.3287,-1.2407,-1.2233,-1.1666,-0.9602,0.0,0.0,-0.7317,-0.738,0.0,-0.8894,-0.9332,0.0,0.0,0.0,-1.2047,-1.2276,-1.4088,0.0,0.0,-1.6818,-1.7839,-1.7592,-1.8682,-1.9482,-1.9902,-2.0019,-2.0234,-2.0634,-2.1517,-2.2999,-2.5004,-2.5004,-2.522,-2.5586,-2.5197,-2.4644,-2.3966,-2.354,-2.3215,-2.3078,-2.3078,-2.3078,-2.3078,-2.3078,-2.3078,-2.3138,-2.3305,-2.3872,-2.4681,-2.5231,-2.5907,-2.6408,-2.5255,-2.4716,-2.4448,-2.3804,-2.3595,-2.3595,-2.3595,-2.3595,-2.3595,-2.3595,-2.3595,-2.3595,-2.3595,-2.3595,-2.3595,-2.3595,-2.3595,-2.3879,-2.4816,-2.5709,-2.635,-2.6505,-2.6624,-2.6691,-2.6691,-2.6691,-2.6691,-2.6691,-2.6691,-2.6808,-2.7115,-2.6873,-2.6987,-2.7695,-2.747,-2.747,-2.7869,-2.7707,-2.75,-2.7303,-2.7115,-2.7083,-2.7303,-2.7303,-2.8433,-3.0725,-3.0505,-3.1291,-3.3014,-3.2298,-3.1915,-0.7949,-0.8875,-0.9533,-1.0559,-1.1316,-1.1769,-1.1598,-1.2339,-1.2801,-1.1822,-1.1665,0.0,-0.8986,0.0,0.0,0.0,0.0,0.0,-0.8193,-0.8796,-0.9618,0.0,-1.159,0.0,-1.2044,-1.3688,-1.4398,0.0,-1.6455,-1.8113,-1.7667,-1.8898,-1.9756,-2.0185,-2.0195,-2.0312,-2.0566,-2.1155,-2.2188,-2.3661,-2.389,-2.4224,-2.459,-2.4489,-2.4155,-2.3602,0.0,-2.3078,-2.3078,-2.3078,-2.3078,-2.3078,-2.3078,-2.3078,-2.3078,-2.3078,-2.3436,-2.397,-2.4354,-2.4873,-2.5298,-2.5103,-2.4657,-2.4103,-2.3714,-2.3595,-2.3595,-2.3595,-2.3595,-2.3595,-2.3595,-2.3595,-2.3595,-2.3595,-2.3595,-2.3595,-2.3595,-2.3794,-2.4266,-2.5335,-2.6175,-2.6691,-2.6691,-2.6691,-2.6691,-2.6691,-2.6691,-2.6691,-2.6691,-2.6691,-2.6791,-2.7019,-2.6841,-2.6873,-2.7317,-2.7178,-2.7147,-2.7348,-2.7334,-2.721,-2.7051,-2.7004,-2.7051,-2.7303,-2.7303,-2.8215,-3.0073,-2.998,-3.089,-3.2679,-3.1921,-3.1777,-0.7547,-0.8416,-0.8835,-1.0092,-1.0956,-1.1469,-1.1128,-1.1584,-1.1837,-1.1052,0.0,-1.0154,-0.8481,0.0,-0.7551,-0.5562,0.0,-0.6292,-0.7354,-0.8068,-0.9186,-1.1178,-1.1724,-1.2024,-1.2278,-1.3422,-1.3744,-1.2891,-1.6203,-1.8162,-1.8006,-1.9108,-1.9955,-2.0547,-2.0508,-2.0478,-2.0478,-2.0478,-2.0968,-2.1849,-2.2306,-2.2774,-2.3226,-2.3673,-2.3554,-2.3078,0.0,0.0,-2.3078,-2.3078,-2.3078,-2.3078,-2.3078,-2.3027,-2.2965,-2.2965,-2.3058,-2.3197,-2.3375,-2.3462,-2.3764,-2.4934,-2.4552,-2.3595,-2.3595,-2.3595,-2.3595,-2.3595,-2.3595,-2.3595,-2.3595,-2.3595,-2.3595,-2.3595,-2.3595,-2.3595,-2.3595,-2.4074,-2.4792,-2.5726,-2.6332,-2.6691,-2.6691,-2.6691,-2.6691,-2.6691,-2.6691,-2.6691,-2.6691,-2.6691,-2.6725,-2.6774,-2.6725,-2.6725,-2.6791,-2.6725,-2.6691,-2.6691,-2.7036,-2.7051,-2.6725,-2.7036,-2.7241,-2.7303,-2.7303,-2.7884,-2.9001,-2.9408,-3.0374,-3.1817,-3.1455,-3.1665,-0.5734,-0.6945,-0.7925,-0.819,-0.9176,-1.0175,-1.0319,-1.0906,0.0,0.0,0.0,-0.9224,-0.8097,-0.7244,0.0,-0.5166,0.0,0.0,0.0,0.0,-0.9265,0.0,0.0,0.0,0.0,0.0,0.0,0.0,0.0,-1.6399,-1.6522,-1.7935,-1.9324,-2.0547,-2.0215,-2.0029,-2.0029,-2.0029,-2.0356,-2.0997,-2.1426,-2.2037,-2.2793,-2.2903,-2.2957,-2.3078,-2.3078,0.0,-2.3078,-2.3078,-2.3078,-2.3078,-2.3078,-2.2862,-2.2447,-2.2447,-2.2153,-2.1984,-2.3148,-2.3225,-2.2923,-2.3703,-2.3789,-2.3595,-2.3595,-2.3595,-2.3595,-2.3595,-2.3595,-2.3595,-2.3595,-2.3595,-2.3595,-2.3595,-2.3595,-2.3595,-2.3595,-2.4389,-2.5105,-2.5297,-2.6087,-2.6691,-2.6691,-2.6691,-2.6691,-2.6691,-2.6691,-2.6691,-2.6691,-2.6691,-2.6825,-2.7147,-2.6906,-2.6841,-2.7178,-2.6906,-2.6691,-2.6691,-2.6758,-2.6774,-2.6691,-2.6758,-2.6971,-2.7286,-2.7303,-2.7884,-2.9089,-2.939,-2.9998,-3.0922,-3.1121,-3.1308,-0.5074,-0.6032,-0.674,-0.7503,-0.8448,-0.9248,-0.9371,0.0,0.0,0.0,0.0,-0.9063,-0.799,0.0,0.0,0.0,0.0,0.0,0.0,0.0,0.0,0.0,0.0,0.0,0.0,0.0,0.0,0.0,0.0,-1.5335,-1.6127,-1.7938,-1.922,-1.9893,-1.9697,-1.959,-1.959,-1.959,-1.9703,-1.9991,-2.044,-2.0818,-2.1241,-2.1518,-2.1914,-2.2506,-2.2506,0.0,-2.3078,-2.3078,-2.3078,-2.3053,-2.2824,-2.2548,-2.2284,-2.1995,-2.1531,-2.1272,-2.2596,-2.2641,-2.2303,-2.3275,-2.3595,-2.3595,-2.3595,-2.3595,-2.3595,-2.3595,-2.3595,-2.3595,-2.3595,-2.3595,-2.3595,-2.3595,-2.3595,-2.3752,-2.4307,-2.4831,-2.5357,-2.5892,-2.6385,-2.6691,-2.6691,-2.6691,-2.6691,-2.6691,-2.6691,-2.6691,-2.6691,-2.6691,-2.6774,-2.6971,-2.6825,-2.6791,-2.6971,-2.6808,-2.6691,-2.6691,-2.6691,-2.6691,-2.6691,-2.6691,-2.6791,-2.6987,-2.721,-2.7692,-2.8475,-2.9189,-2.9968,-3.0765,-3.1097,-3.1334,-0.4523,-0.5237,-0.5814,-0.7122,-0.7923,-0.8466,-0.863,-0.9418,0.0,0.0,-0.9239,-0.8861,-0.7975,0.0,0.0,0.0,0.0,0.0,0.0,0.0,0.0,0.0,0.0,0.0,0.0,0.0,0.0,0.0,0.0,0.0,-1.6321,-1.7935,-1.8962,-1.9287,-1.9199,-1.915,-1.915,-1.915,-1.9102,-1.9014,-1.9434,-1.9655,-1.9745,-2.0172,-2.0782,-2.1628,-2.1815,0.0,0.0,-2.3005,-2.3002,-2.2912,-2.2485,-2.2171,-2.1907,-2.1468,-2.0953,-2.0676,-2.1961,-2.2125,-2.1885,-2.3172,-2.3595,-2.3595,-2.3595,-2.3595,-2.3595,-2.3595,-2.3595,-2.3595,-2.3595,-2.3595,-2.3595,-2.3595,-2.3681,-2.3991,-2.4871,-2.5221,-2.5598,-2.6401,-2.6624,-2.6691,-2.6691,-2.6691,-2.6691,-2.6691,-2.6691,-2.6691,-2.6691,-2.6691,-2.6691,-2.6691,-2.6691,-2.6691,-2.6691,-2.6691,-2.6691,-2.6691,-2.6691,-2.6758,-2.6808,-2.6841,-2.6873,-2.6971,-2.7272,-2.7589,-2.7897,-2.9132,-3.0004,-3.0523,-3.1122,-3.1481,-0.3239,-0.4499,-0.5706,-0.6475,-0.707,-0.7647,-0.8492,0.0,0.0,0.0,-0.8398,-0.7995,-0.7904,0.0,0.0,0.0,0.0,0.0,0.0,0.0,0.0,0.0,0.0,0.0,0.0,0.0,0.0,0.0,0.0,0.0,-1.7063,-1.7307,-1.7996,-1.9277,-1.8906,-1.8691,-1.8691,-1.8691,-1.8506,-1.8135,-1.8536,-1.8962,-1.9362,-1.9386,-1.989,-2.0782,-2.1565,0.0,0.0,-2.2823,-2.2836,-2.2385,-2.2334,-2.1694,-2.0869,-2.0806,-2.0376,-2.0067,-2.1361,-2.1752,-2.1885,-2.3172,-2.3595,-2.3595,-2.3595,-2.3595,-2.3595,-2.3595,-2.3595,-2.3595,-2.3595,-2.3595,-2.3595,-2.3595,-2.3948,-2.4348,-2.4471,-2.5259,-2.5961,-2.6049,-2.6401,-2.6691,-2.6691,-2.6691,-2.6691,-2.6691,-2.6691,-2.6691,-2.6691,-2.6691,-2.6691,-2.6691,-2.6691,-2.6691,-2.6691,-2.6691,-2.6691,-2.6691,-2.6691,-2.6873,-2.7241,-2.7224,-2.7426,-2.7765,-2.784,-2.7869,-2.7897,-2.9396,-2.9973,-2.9657,-3.108,-3.1554,-0.2445,-0.3417,-0.4328,-0.5066,-0.5664,-0.6248,-0.6947,0.0,-0.7656,-0.7202,-0.7238,-0.7252,-0.6904,-0.667,-0.6421,0.0,-0.6493,0.0,0.0,0.0,0.0,0.0,0.0,0.0,0.0,0.0,0.0,0.0,0.0,0.0,-1.6731,-1.739,-1.7913,-1.8516,-1.835,-1.8262,-1.8262,-1.8262,-1.8174,-1.8008,-1.8184,-1.837,-1.8529,-1.8529,-1.8977,-1.9824,-2.0204,0.0,0.0,-2.1837,-2.2014,-2.2246,-2.1581,-2.1054,-2.068,-2.0275,-1.9999,-1.9991,-2.128,-2.1697,-2.1885,-2.3172,-2.3595,-2.3595,-2.3595,-2.3595,-2.3595,-2.3595,-2.3595,-2.3595,-2.3595,-2.3595,-2.3595,-2.3595,-2.3991,-2.4511,-2.4816,-2.5449,-2.6085,-2.6367,-2.659,-2.6691,-2.6691,-2.6691,-2.6691,-2.6691,-2.6691,-2.6691,-2.6691,-2.6691,-2.6691,-2.6691,-2.6691,-2.6691,-2.6691,-2.6691,-2.6691,-2.6691,-2.6691,-2.6791,-2.6939,-2.7178,-2.7396,-2.7547,-2.7783,-2.7897,-2.7897,-2.9006,-2.9294,-2.8866,-3.0422,-3.0915,-0.1755,-0.2397,-0.3189,-0.4177,-0.4628,-0.5052,0.0,0.0,-0.6624,-0.5996,-0.6222,-0.6355,-0.5962,-0.6027,-0.6131,0.0,-0.6625,-0.7364,-0.8069,0.0,0.0,0.0,0.0,0.0,0.0,0.0,0.0,0.0,0.0,0.0,0.0,-1.6932,-1.7716,-1.8008,-1.8008,-1.8008,-1.8008,-1.8008,-1.8008,-1.8008,-1.8008,-1.8008,-1.8008,-1.8008,-1.8337,-1.8921,0.0,0.0,0.0,-2.1102,-2.1316,-2.1744,-2.102,-2.0618,-2.0363,-1.9949,-1.9798,-1.9991,-2.128,-2.1697,-2.1885,-2.3172,-2.3595,-2.3595,-2.3595,-2.3595,-2.3595,-2.3595,-2.3595,-2.3595,-2.3595,-2.3595,-2.3638,-2.3794,-2.4225,-2.4776,-2.5335,-2.5835,-2.6297,-2.6624,-2.6691,-2.6691,-2.6691,-2.6691,-2.6691,-2.6691,-2.6691,-2.6691,-2.6691,-2.6691,-2.6691,-2.6691,-2.6691,-2.6691,-2.6691,-2.6691,-2.6758,-2.6873,-2.6873,-2.6987,-2.7175,-2.7378,-2.753,-2.7631,-2.7794,-2.7897,-2.7897,-2.8716,-2.8974,-2.8778,-3.0075,-3.0589,-0.1131,-0.1658,-0.2538,-0.401,-0.4111,-0.4196,0.0,-0.5631,-0.5308,-0.5308,-0.5303,-0.5303,-0.5308,-0.5787,-0.631,-0.6564,-0.7304,-0.8088,-0.8724,0.0,0.0,0.0,0.0,0.0,0.0,0.0,0.0,0.0,0.0,0.0,0.0,-1.5579,-1.707,-1.794,-1.8008,-1.8008,-1.8008,-1.8008,-1.8008,-1.8008,-1.8008,-1.8008,-1.8008,-1.8008,-1.8008,0.0,0.0,0.0,0.0,-2.0635,-2.0879,-2.0743,-2.0718,-2.0313,-1.9811,-1.9798,-1.9798,-1.9991,-2.128,-2.1697,-2.1885,-2.3172,-2.3595,-2.3595,-2.3595,-2.3595,-2.3595,-2.3595,-2.3595,-2.3595,-2.3595,-2.3595,-2.3709,-2.4266,-2.4776,-2.5335,-2.5888,-2.6367,-2.6691,-2.6691,-2.6691,-2.6691,-2.6691,-2.6691,-2.6691,-2.6691,-2.6691,-2.6691,-2.6691,-2.6691,-2.6691,-2.6691,-2.6691,-2.6691,-2.6691,-2.6691,-2.6873,-2.7272,-2.7286,-2.7631,-2.835,-2.8075,-2.8047,-2.8376,-2.8075,-2.7897,-2.7897,-2.8716,-2.9237,-2.9505,-3.0318,-3.0864,-0.0346,-0.0865,-0.1562,-0.2031,-0.2665,-0.3284,-0.3788,-0.4292,-0.457,-0.4228,-0.4439,-0.4565,-0.4184,-0.4613,-0.5247,-0.618,0.0,0.0,0.0,0.0,0.0,0.0,0.0,0.0,0.0,0.0,0.0,0.0,0.0,0.0,0.0,-1.4356,-1.5536,-1.6982,-1.7647,-1.8008,-1.8008,-1.8008,-1.8008,-1.8008,-1.8008,-1.8008,-1.8008,-1.8008,0.0,0.0,0.0,0.0,0.0,-1.929,-1.9764,-2.068,-2.0238,-1.9962,-1.9798,-1.9798,-2.0105,-2.0597,-2.1424,-2.1993,-2.2529,-2.3319,-2.3595,-2.3595,-2.3595,-2.3595,-2.3595,-2.3595,-2.3595,-2.3595,-2.3595,-2.3879,-2.4199,-2.4348,-2.5105,-2.5799,-2.5961,-2.6367,-2.6691,-2.6691,-2.6691,-2.6691,-2.6691,-2.6691,-2.6691,-2.6691,-2.6691,-2.6691,-2.6691,-2.6691,-2.6691,-2.6691,-2.6691,-2.6691,-2.6691,-2.6691,-2.6758,-2.6873,-2.7147,-2.7409,-2.7631,-2.8029,-2.829,-2.8394,-2.8558,-2.8404,-2.7897,-2.8174,-2.8578,-2.9157,-2.9431,-3.016,0.0,-0.0339,-0.0744,-0.1049,-0.1614,-0.2275,-0.2799,-0.3343,-0.3713,-0.3609,-0.388,-0.4008,-0.3667,-0.4052,-0.4728,-0.5718,0.0,0.0,0.0,0.0,0.0,0.0,0.0,0.0,0.0,0.0,0.0,0.0,0.0,0.0,0.0,-1.3284,-1.4288,-1.5624,-1.6825,-1.7607,-1.7773,-1.7773,-1.7852,-1.8008,-1.8008,-1.793,-1.7773,-1.7773,0.0,0.0,0.0,0.0,0.0,-1.8572,-1.9116,-2.03,-1.9936,-1.9798,-1.9798,-1.9798,-2.0055,-2.0547,-2.1424,-2.1946,-2.2483,-2.3319,-2.3595,-2.3595,-2.3595,-2.3595,-2.3595,-2.3595,-2.3595,-2.3595,-2.3595,-2.3837,-2.4158,-2.4348,-2.5067,-2.5762,-2.5977,-2.6367,-2.6691,-2.6691,-2.6691,-2.6691,-2.6691,-2.6691,-2.6691,-2.6691,-2.6691,-2.6691,-2.6691,-2.6691,-2.6691,-2.6691,-2.6691,-2.6691,-2.6691,-2.6691,-2.6741,-2.6906,-2.7147,-2.7348,-2.75,-2.7833,-2.7984,-2.7984,-2.8084,-2.7918,-2.7457,-2.8049,-2.8558,-2.8991,-2.955,-3.0311,0.0,0.0,-0.0167,-0.0869,-0.0953,-0.1216,-0.2486,-0.2705,0.0,-0.3403,-0.3571,-0.3585,-0.3592,-0.4016,-0.453,-0.5096,0.0,0.0,0.0,0.0,0.0,0.0,0.0,0.0,0.0,0.0,0.0,0.0,0.0,0.0,0.0,-1.2318,-1.3165,-1.3942,-1.5579,-1.6738,-1.7334,-1.7334,-1.7539,-1.792,-1.792,-1.7715,-1.7334,-1.7334,0.0,0.0,0.0,0.0,0.0,-1.8282,-1.8881,-1.9798,-1.9798,-1.9798,-1.9798,-1.9798,-1.985,-2.0093,-2.128,-2.1744,-2.2025,-2.3216,-2.3595,-2.3595,-2.3595,-2.3595,-2.3595,-2.3595,-2.3595,-2.3595,-2.3595,-2.3638,-2.3794,-2.4266,-2.4831,-2.5373,-2.5888,-2.6367,-2.6691,-2.6691,-2.6691,-2.6691,-2.6691,-2.6691,-2.6691,-2.6691,-2.6691,-2.6691,-2.6691,-2.6691,-2.6691,-2.6691,-2.6691,-2.6691,-2.6691,-2.6691,-2.6873,-2.7224,-2.7286,-2.747,-2.784,-2.7547,-2.7348,-2.7348,-2.6971,-2.6758,-2.6758,-2.8215,-2.8924,-2.9008,-3.0446,-3.114,0.0209,0.0,-0.0037,-0.0216,-0.0586,-0.098,0.0,-0.1925,-0.2521,0.0,0.0,-0.3612,-0.3579,-0.3694,-0.3848,0.0,0.0,0.0,0.0,0.0,0.0,0.0,0.0,0.0,0.0,0.0,0.0,0.0,0.0,0.0,0.0,-1.1775,-1.213,-1.2311,-1.3318,-1.4835,-1.6811,-1.6885,-1.6934,-1.7031,-1.7031,-1.6982,-1.6885,-1.6885,0.0,0.0,0.0,0.0,-1.8293,-1.7902,-1.8553,-1.9798,-1.9798,-1.9798,-1.9798,-1.9798,-2.0421,-2.1328,-2.1602,-2.2363,-2.3216,-2.3508,-2.3595,-2.3595,-2.3595,-2.3595,-2.3595,-2.3595,-2.3595,-2.3595,-2.3595,-2.3906,-2.4225,-2.4389,-2.5144,-2.5852,-2.5961,-2.6367,-2.6691,-2.6691,-2.6691,-2.6691,-2.6691,-2.6691,-2.6691,-2.6691,-2.6691,-2.6691,-2.6691,-2.6691,-2.6691,-2.6691,-2.6691,-2.6691,-2.6691,-2.6691,-2.6758,-2.6858,-2.7115,-2.7317,-2.7457,-2.7666,-2.7754,-2.7754,-2.7348,-2.7147,-2.7147,-2.7794,-2.8399,-2.9045,-2.9922,-3.0666,0.0571,0.021,0.0,0.0,-0.0249,-0.0585,-0.0971,0.0,0.0,0.0,0.0,0.0,-0.3619,0.0,0.0,0.0,0.0,0.0,0.0,0.0,0.0,0.0,0.0,0.0,0.0,0.0,0.0,0.0,0.0,0.0,0.0,-1.1136,-1.1406,-1.1772,-1.2205,-1.3574,-1.5845,-1.5845,-1.6138,-1.6665,-1.6665,-1.6621,-1.6426,-1.6426,-1.6318,0.0,0.0,0.0,-1.7958,-1.7678,-1.8447,-1.9798,-1.9798,-1.9798,-1.9798,-1.9798,-2.0434,-2.1342,-2.1615,-2.2546,-2.3595,-2.3595,-2.3595,-2.3595,-2.3595,-2.3595,-2.3595,-2.3595,-2.3595,-2.3595,-2.3595,-2.3837,-2.4032,-2.4032,-2.4855,-2.5652,-2.5652,-2.621,-2.6691,-2.6691,-2.6691,-2.6691,-2.6691,-2.6691,-2.6691,-2.6691,-2.6691,-2.6691,-2.6691,-2.6691,-2.6691,-2.6691,-2.6691,-2.6691,-2.6691,-2.6691,-2.6691,-2.6691,-2.6906,-2.7019,-2.7019,-2.7224,-2.7457,-2.7619,-2.7589,-2.747,-2.7303,-2.8001,-2.8579,-2.9028,-2.9924,-3.0636,0.0983,0.046,0.0,0.0,0.0,-0.0186,-0.0853,0.0,0.0,0.0,0.0,0.0,0.0,0.0,0.0,0.0,0.0,0.0,0.0,0.0,0.0,0.0,0.0,0.0,0.0,0.0,0.0,0.0,0.0,0.0,0.0,-1.0421,-1.0809,-1.1512,-1.1512,-1.2468,-1.44,-1.4656,-1.5334,-1.6336,-1.6471,-1.6328,-1.5957,-1.5957,-1.5762,0.0,0.0,0.0,-1.7567,-1.75,-1.833,-1.9685,-1.9685,-1.9685,-1.9698,-1.9773,-2.0295,-2.1028,-2.1758,-2.2696,-2.3595,-2.3595,-2.3595,-2.3595,-2.3595,-2.3535,-2.3475,-2.3565,-2.3595,-2.3595,-2.3595,-2.3681,-2.3709,-2.3709,-2.4552,-2.5335,-2.5335,-2.6052,-2.6691,-2.6691,-2.6691,-2.6691,-2.6691,-2.6691,-2.6691,-2.6691,-2.6691,-2.6691,-2.6691,-2.6691,-2.6691,-2.6691,-2.6691,-2.6691,-2.6691,-2.6691,-2.6691,-2.6691,-2.6691,-2.6725,-2.6791,-2.6791,-2.6971,-2.7286,-2.7619,-2.7589,-2.721,-2.8299,-2.886,-2.9028,-3.0053,-3.0788,0.1019,0.0448,0.0,0.0,0.0,-0.0039,0.0,0.0,0.0,0.0,0.0,0.0,0.0,0.0,0.0,0.0,0.0,0.0,0.0,0.0,0.0,0.0,0.0,0.0,0.0,0.0,0.0,0.0,0.0,0.0,0.0,0.0,-0.9986,-1.035,-1.0356,-1.0984,-1.2274,-1.3623,-1.439,-1.4583,-1.525,-1.5576,-1.5508,-1.5508,-1.5478,0.0,0.0,-1.6244,-1.7544,-1.7131,-1.7803,-1.9096,-1.9096,-1.9096,-1.9196,-1.9635,-2.057,-2.1758,-2.2891,-2.345,-2.3595,-2.3595,-2.3595,-2.3595,-2.3595,-2.3236,-2.2921,-2.3445,-2.3595,-2.3595,-2.3595,-2.3964,-2.4266,-2.4266,-2.5105,-2.5888,-2.5888,-2.6332,-2.6691,-2.6691,-2.6691,-2.6691,-2.6691,-2.6691,-2.6691,-2.6691,-2.6691,-2.6691,-2.6691,-2.6691,-2.6691,-2.6691,-2.6691,-2.6691,-2.6691,-2.6691,-2.6691,-2.6691,-2.6691,-2.6841,-2.721,-2.721,-2.7241,-2.7303,-2.7348,-2.721,-2.6791,-2.7607,-2.8337,-2.9045,-2.981,-3.0556,0.1915,0.0958,0.0,0.0,0.0,0.0,0.0,0.0,0.0,0.0,0.0,0.0,0.0,0.0,0.0,0.0,0.0,0.0,0.0,0.0,0.0,0.0,0.0,0.0,0.0,0.0,0.0,0.0,0.0,0.0,0.0,0.0,-0.9746,-0.988,-0.988,-1.0118,-1.0668,-1.1831,-1.3016,-1.4204,-1.4347,-1.4773,-1.54,-1.5176,-1.5195,-1.54,0.0,-1.5883,-1.7142,-1.6662,-1.7287,-1.8581,-1.8581,-1.8581,-1.874,-1.9917,-2.0961,-2.1891,-2.3157,-2.3385,-2.3161,-2.349,-2.3595,-2.3595,-2.3595,-2.34,-2.3161,-2.3116,-2.3101,-2.3176,-2.3505,-2.3794,-2.4032,-2.4348,-2.4989,-2.5652,-2.5941,-2.6367,-2.6691,-2.6691,-2.6691,-2.6691,-2.6691,-2.6691,-2.6691,-2.6691,-2.6691,-2.6691,-2.6691,-2.6691,-2.6691,-2.6691,-2.6691,-2.6691,-2.6691,-2.6691,-2.6691,-2.6691,-2.6691,-2.6774,-2.6971,-2.7178,-2.7378,-2.7619,-2.7805,-2.7787,-2.7613,-2.8187,-2.8622,-2.9017,-3.0029,-3.0765,0.2656,0.1391,0.0,0.0,0.0,0.0,0.0,0.0,0.0,0.0,0.0,0.0,0.0,0.0,0.0,0.0,0.0,0.0,0.0,0.0,0.0,0.0,0.0,0.0,0.0,0.0,0.0,0.0,0.0,0.0,0.0,0.0,-0.9506,-0.9579,-0.9579,-0.9613,-0.9686,-1.0293,-1.1618,-1.3682,-1.3513,-1.4053,-1.5107,-1.4775,-1.4805,-1.5098,-1.4775,-1.5419,-1.664,-1.6149,-1.6808,-1.8016,-1.8016,-1.8091,-1.8383,-2.0062,-2.0946,-2.1456,-2.2712,-2.2847,-2.2517,-2.2996,-2.3161,-2.3161,-2.3161,-2.3056,-2.2862,-2.2532,-2.2338,-2.2398,-2.3176,-2.3688,-2.4074,-2.4511,-2.5089,-2.5672,-2.6068,-2.6436,-2.6691,-2.6691,-2.6556,-2.6437,-2.6437,-2.6437,-2.6437,-2.6437,-2.659,-2.6691,-2.6691,-2.6691,-2.6691,-2.6691,-2.6691,-2.6691,-2.6691,-2.6691,-2.6691,-2.6691,-2.6791,-2.6873,-2.6971,-2.7348,-2.7689,-2.7992,-2.8264,-2.835,-2.829,-2.8583,-2.8827,-2.9018,-2.9933,-3.0707,0.2531,0.1392,0.0,0.0,0.0,0.0,0.0,0.0,0.0,0.0,0.0,0.0,0.0,0.0,0.0,0.0,0.0,0.0,0.0,0.0,0.0,0.0,0.0,0.0,0.0,0.0,0.0,0.0,0.0,0.0,0.0,0.0,0.0,-0.921,-0.9216,-0.9406,-0.9679,-0.9737,-1.0537,-1.2081,-1.2802,-1.3532,-1.4175,-1.4136,-1.4145,-1.4175,-1.4136,-1.4955,-1.6199,-1.5586,-1.6209,-1.7438,-1.7438,-1.7752,-1.8333,-1.953,-2.0014,-2.0187,-2.1407,-2.1799,-2.1769,-2.1814,-2.1844,-2.1844,-2.1844,-2.141,-2.1036,-2.1605,-2.1321,-2.1141,-2.2413,-2.39,-2.5089,-2.5128,-2.5892,-2.6607,-2.6657,-2.6691,-2.6691,-2.6691,-2.615,-2.5693,-2.5693,-2.5693,-2.5693,-2.5693,-2.6251,-2.6691,-2.6691,-2.6691,-2.6691,-2.6691,-2.6691,-2.6691,-2.6691,-2.6691,-2.6691,-2.6691,-2.7051,-2.7409,-2.7811,-2.8139,-2.8324,-2.835,-2.8394,-2.8264,-2.7954,-2.7954,-2.8344,-2.9001,-2.9083,-2.9915,0.1614,0.0814,0.0,0.0,0.0,0.0,0.0,0.0,0.0,0.0,0.0,0.0,0.0,0.0,0.0,0.0,0.0,0.0,0.0,0.0,0.0,0.0,0.0,0.0,0.0,0.0,0.0,0.0,0.0,0.0,0.0,0.0,0.0,-0.8965,-0.8971,-0.9025,-0.9138,-0.9138,-0.9608,-1.06,-1.1519,-1.2726,-1.4068,-1.3867,-1.3834,-1.4121,-1.4244,-1.4813,-1.5612,-1.5533,-1.6032,-1.6848,-1.6848,-1.7635,-1.8806,-1.9264,-1.9822,-2.0531,-2.1411,-2.1425,-2.1156,-2.156,-2.1695,-2.1695,-2.1695,-2.1515,-2.1291,-2.1126,-2.1201,-2.153,-2.2443,-2.3375,-2.4256,-2.5032,-2.5762,-2.6332,-2.6624,-2.6691,-2.6691,-2.6691,-2.6099,-2.5609,-2.5609,-2.522,-2.5067,-2.5541,-2.5845,-2.6184,-2.664,-2.6691,-2.6691,-2.6691,-2.6691,-2.6691,-2.6691,-2.6691,-2.6691,-2.6691,-2.6841,-2.7115,-2.75,-2.7631,-2.7929,-2.8394,-2.8394,-2.8446,-2.8601,-2.8601,-2.8721,-2.9011,-2.95,-3.0061,0.1417,0.0681,0.0,0.0,0.0,0.0,0.0,0.0,0.0,0.0,0.0,0.0,0.0,0.0,0.0,0.0,0.0,0.0,0.0,0.0,0.0,0.0,0.0,0.0,0.0,0.0,0.0,0.0,0.0,0.0,0.0,0.0,0.0,0.0,-0.8804,-0.8804,-0.8804,-0.8804,-0.9159,-0.9814,-1.0713,-1.1957,-1.3389,-1.3326,-1.3467,-1.3721,-1.4091,-1.4569,-1.5121,-1.5461,-1.5952,-1.6522,-1.6522,-1.7238,-1.8301,-1.8673,-1.9265,-2.0006,-2.0771,-2.0767,-2.0468,-2.0917,-2.1066,-2.1066,-2.1066,-2.1066,-2.0961,-2.0513,-2.0707,-2.124,-2.2043,-2.2956,-2.3878,-2.4697,-2.5562,-2.6297,-2.6624,-2.6691,-2.6623,-2.6404,-2.5761,-2.5186,-2.4949,-2.4475,-2.4306,-2.4831,-2.5304,-2.5795,-2.6285,-2.6556,-2.6691,-2.6691,-2.6691,-2.6691,-2.6691,-2.6825,-2.6906,-2.6906,-2.6987,-2.721,-2.747,-2.7689,-2.8057,-2.8565,-2.859,-2.8707,-2.8994,-2.8994,-2.8994,-2.8994,-2.9567,-2.9971,0.2205,0.1132,0.0,0.0,0.0,0.0,0.0,0.0,0.0,0.0,0.0,0.0,0.0,0.0,0.0,0.0,0.0,0.0,0.0,0.0,0.0,0.0,0.0,0.0,0.0,0.0,0.0,0.0,0.0,0.0,0.0,0.0,0.0,0.0,-0.8804,-0.8804,-0.8804,-0.8804,-0.9106,-0.9814,-1.0466,-1.1166,-1.1814,-1.2559,-1.2881,-1.292,-1.3552,-1.4143,-1.4744,-1.5365,-1.5952,-1.6522,-1.6522,-1.6522,-1.6637,-1.7706,-1.8106,-1.8263,-1.9332,-1.969,-1.969,-1.969,-1.969,-1.969,-1.969,-1.969,-1.969,-1.969,-1.969,-1.9918,-2.1008,-2.2733,-2.4184,-2.4184,-2.5454,-2.6674,-2.6674,-2.6674,-2.6454,-2.5744,-2.4983,-2.4269,-2.3528,-2.3393,-2.3393,-2.341,-2.4661,-2.5592,-2.5609,-2.6234,-2.6691,-2.6691,-2.6691,-2.6691,-2.6691,-2.7051,-2.7303,-2.7303,-2.7678,-2.7897,-2.7897,-2.8601,-2.8994,-2.8994,-2.8994,-2.8994,-2.8994,-2.8994,-2.8994,-2.8994,-2.8994,-2.9439,0.1837,0.146,0.0,0.0,0.0,0.0,0.0,0.0,0.0,0.0,0.0,0.0,0.0,0.0,0.0,0.0,0.0,0.0,0.0,0.0,0.0,0.0,0.0,0.0,0.0,0.0,0.0,0.0,0.0,0.0,0.0,0.0,0.0,0.0,-0.7777,-0.8049,-0.8049,-0.8533,-0.891,-0.9113,-0.9762,-1.0712,-1.1814,-1.2559,-1.2881,-1.2978,-1.3967,-1.4514,-1.4789,-1.5832,-1.6337,-1.6522,-1.6522,-1.671,-1.7146,-1.7827,-1.8341,-1.8765,-1.9442,-1.969,-1.969,-1.969,-1.969,-1.969,-1.969,-1.969,-1.969,-1.969,-1.969,-1.9756,-2.008,-2.1452,-2.2905,-2.3681,-2.4314,-2.4812,-2.5103,-2.5135,-2.5067,-2.4864,-2.4222,-2.3816,-2.4133,-2.3308,-2.2987,-2.4002,-2.4086,-2.4425,-2.5473,-2.5795,-2.6116,-2.664,-2.6691,-2.6808,-2.7083,-2.7241,-2.7409,-2.7707,-2.8075,-2.8264,-2.8264,-2.8446,-2.8707,-2.8994,-2.8994,-2.8994,-2.8994,-2.8994,-2.8994,-2.8994,-2.8994,-2.9122,0.2044,0.0,0.0,0.0,0.0,0.0,0.0,0.0,0.0,0.0,0.0,0.0,0.0,0.0,0.0,0.0,0.0,0.0,0.0,0.0,0.0,0.0,0.0,0.0,0.0,0.0,0.0,0.0,0.0,0.0,0.0,0.0,0.0,0.0,-0.7289,-0.7723,-0.7723,-0.8427,-0.8804,-0.8804,-0.9769,-1.0618,-1.1416,-1.2138,-1.2608,-1.2978,-1.4165,-1.4835,-1.5152,-1.6107,-1.6522,-1.6522,-1.6522,-1.6837,-1.7353,-1.7907,-1.8458,-1.8968,-1.953,-1.969,-1.969,-1.969,-1.969,-1.969,-1.969,-1.969,-1.969,-1.969,-1.969,-1.9782,-2.012,-2.0795,-2.1674,-2.2817,-2.3605,-2.4193,-2.4444,-2.4506,-2.4421,-2.4133,-2.3697,-2.3444,-2.3596,-2.2885,-2.2598,-2.3477,-2.3748,-2.4255,-2.5456,-2.5862,-2.6201,-2.664,-2.6691,-2.6873,-2.7272,-2.7457,-2.7707,-2.8075,-2.8438,-2.8633,-2.8633,-2.8633,-2.8749,-2.8994,-2.8994,-2.8994,-2.8994,-2.8994,-2.8994,-2.8994,-2.8994,-2.8994,0.0,0.0,0.0,0.0,0.0,0.0,0.0,0.0,0.0,0.0,0.0,0.0,0.0,0.0,0.0,0.0,0.0,0.0,0.0,0.0,0.0,0.0,0.0,0.0,0.0,0.0,0.0,0.0,0.0,0.0,0.0,0.0,0.0,0.0,-0.7182,-0.7616,-0.7616,-0.8374,-0.8804,0.0,-1.0115,-1.0762,-1.0813,-1.1566,-1.2286,-1.3065,-1.4201,-1.505,-1.5632,-1.6238,-1.6522,-1.6522,-1.6522,-1.6837,-1.7353,-1.7907,-1.8458,-1.8968,-1.953,-1.969,-1.969,-1.969,-1.969,-1.969,-1.969,-1.969,-1.969,-1.969,-1.9726,-1.9945,-2.0731,-2.0682,-2.0691,-2.1808,-2.3158,-2.4242,-2.4272,-2.432,-2.4086,-2.3427,-2.3291,-2.3105,-2.2513,-2.2344,-2.231,-2.231,-2.3494,-2.4661,-2.5406,-2.6133,-2.6657,-2.6741,-2.6758,-2.6939,-2.7348,-2.7736,-2.8075,-2.842,-2.8797,-2.8994,-2.8994,-2.8994,-2.8994,-2.8994,-2.8994,-2.8994,-2.8994,-2.8994,-2.8994,-2.8994,-2.8994,-2.8994,0.0,0.0,0.0,0.0,0.0,0.0,0.0,0.0,0.0,0.0,0.0,0.0,0.0,0.0,0.0,0.0,0.0,0.0,0.0,0.0,0.0,0.0,0.0,0.0,0.0,0.0,0.0,0.0,0.0,0.0,0.0,0.0,0.0,-0.4952,-0.6154,-0.6858,-0.6858,-0.8156,-0.8804,0.0,-0.9614,-1.0312,-1.0864,-1.2098,-1.2987,-1.3637,-1.4376,-1.505,-1.5632,-1.6238,-1.6522,-1.6522,-1.6522,-1.6837,-1.7353,-1.7907,-1.8458,-1.8968,-1.953,-1.969,-1.969,-1.969,-1.969,-1.969,-1.969,-1.969,-1.969,-1.969,-1.9945,-2.0212,-2.0416,-2.0862,-2.1401,-2.1657,-2.1974,-2.2319,-2.2709,-2.2784,-2.2733,-2.2581,-2.2547,-2.2682,-2.3088,-2.2682,-2.231,-2.231,-2.3054,-2.39,-2.4628,-2.5372,-2.6179,-2.7095,-2.7178,-2.7422,-2.8112,-2.8246,-2.8464,-2.8839,-2.8952,-2.8994,-2.8994,-2.8994,-2.8994,-2.8994,-2.8994,-2.8994,-2.8994,-2.8994,-2.8994,-2.8994,-2.8994,-2.8994,0.0,0.0,0.0,0.0,0.0,0.0,0.0,0.0,0.0,0.0,0.0,0.0,0.0,0.0,0.0,0.0,0.0,0.0,0.0,0.0,0.0,0.0,0.0,0.0,0.0,0.0,0.0,0.0,0.0,0.0,0.0,-0.4519,-0.4519,-0.4519,-0.555,-0.6253,-0.6588,-0.7723,-0.8427,-0.8811,-0.9465,-1.0312,-1.1316,-1.2403,-1.3065,-1.342,-1.4294,-1.488,-1.5242,-1.6151,-1.6522,-1.6522,-1.6522,-1.6993,-1.7706,-1.7987,-1.8612,-1.9332,-1.9603,-1.969,-1.969,-1.969,-1.969,-1.969,-1.969,-1.969,-1.969,-1.969,-1.9839,-2.0104,-2.0532,-2.0975,-2.1415,-2.184,-2.1928,-2.2003,-2.2254,-2.231,-2.231,-2.231,-2.231,-2.2429,-2.2818,-2.2564,-2.231,-2.231,-2.3224,-2.4083,-2.4455,-2.5439,-2.6415,-2.722,-2.7303,-2.7601,-2.8342,-2.8394,-2.8565,-2.8975,-2.8994,-2.8994,-2.8994,-2.8994,-2.8994,-2.8994,-2.8994,-2.8994,-2.8994,-2.8994,-2.8994,-2.8994,-2.8994,-2.8994,0.0,0.0,0.0,0.0,0.0,0.0,0.0,0.0,0.0,0.0,0.0,0.0,0.0,0.0,0.0,0.0,0.0,0.0,0.0,0.0,0.0,0.0,0.0,0.0,0.0,0.0,0.0,0.0,0.0,0.0,-0.4419,-0.4426,-0.4436,-0.4519,-0.5273,-0.5982,-0.6588,-0.7456,-0.8209,-0.8811,-0.9614,-1.0669,-1.2021,-1.2608,-1.2881,-1.2978,-1.4165,-1.4698,-1.4789,-1.602,-1.6522,-1.6522,-1.6522,-1.7146,-1.8106,-1.8106,-1.8779,-1.969,-1.969,-1.969,-1.969,-1.969,-1.969,-1.969,-1.969,-1.969,-1.969,-1.969,-1.9747,-1.998,-2.0698,-2.0991,-2.1291,-2.2003,-2.2237,-2.231,-2.231,-2.231,-2.231,-2.231,-2.231,-2.231,-2.231,-2.231,-2.231,-2.231,-2.3545,-2.4506,-2.4506,-2.5842,-2.6971,-2.7348,-2.747,-2.7776,-2.8446,-2.8496,-2.8603,-2.8792,-2.8796,-2.8796,-2.8796,-2.8796,-2.8847,-2.8994,-2.8994,-2.8994,-2.8994,-2.8994,-2.8994,-2.8994,-2.8994,-2.8994,0.0,0.0,0.0,0.0,0.0,0.0,0.0,0.0,0.0,0.0,0.0,0.0,0.0,0.0,0.0,0.0,0.0,0.0,0.0,0.0,0.0,0.0,0.0,0.0,0.0,0.0,0.0,0.0,0.0,0.0,-0.4214,-0.4224,-0.4334,-0.4515,-0.5769,-0.648,-0.6588,-0.7943,-0.8699,-0.8804,-1.0064,-1.1384,-1.2774,-1.2881,-1.2881,-1.2978,-1.4165,-1.4698,-1.4789,-1.602,-1.6522,-1.6522,-1.6522,-1.7146,-1.8106,-1.8106,-1.8779,-1.969,-1.969,-1.969,-1.969,-1.969,-1.969,-1.969,-1.969,-1.969,-1.969,-1.969,-1.9929,-2.0246,-2.0348,-2.0959,-2.1552,-2.1658,-2.2003,-2.231,-2.231,-2.231,-2.231,-2.231,-2.231,-2.231,-2.231,-2.231,-2.231,-2.231,-2.3545,-2.4506,-2.4506,-2.6093,-2.7378,-2.7783,-2.8075,-2.842,-2.8863,-2.8929,-2.8659,-2.8007,-2.7952,-2.7952,-2.7952,-2.7952,-2.8282,-2.8975,-2.8994,-2.8994,-2.8994,-2.8994,-2.8994,-2.8994,-2.8994,-2.8994,0.0,0.0,0.0,0.0,0.0,0.0,0.0,0.0,0.0,0.0,0.0,0.0,0.0,0.0,0.0,0.0,0.0,0.0,0.0,0.0,0.0,0.0,0.0,0.0,0.0,0.0,0.0,0.0,0.0,-0.3958,-0.4063,-0.407,-0.4148,-0.4212,-0.5291,-0.6087,-0.6503,-0.7594,-0.858,-0.9361,-1.0364,-1.1325,-1.2295,-1.2715,-1.2881,-1.2978,-1.4165,-1.4698,-1.4789,-1.602,-1.6522,-1.6522,-1.6522,-1.7146,-1.8106,-1.8106,-1.8779,-1.969,-1.969,-1.969,-1.969,-1.969,-1.969,-1.969,-1.969,-1.969,-1.969,-1.969,-1.9854,-2.0035,-2.0246,-2.0781,-2.1306,-2.1552,-2.1974,-2.231,-2.231,-2.231,-2.231,-2.231,-2.231,-2.231,-2.231,-2.231,-2.231,-2.231,-2.3545,-2.4598,-2.482,-2.6277,-2.753,-2.8129,-2.8316,-2.8565,-2.897,-2.8594,-2.8172,-2.7824,-2.7383,-2.7126,-2.7126,-2.7548,-2.797,-2.8319,-2.8778,-2.9067,-2.9225,-2.9225,-2.927,-2.9397,-2.9397,-2.9397,0.0,0.0,0.0,0.0,0.0,0.0,0.0,0.0,0.0,0.0,0.0,0.0,0.0,0.0,0.0,0.0,0.0,0.0,0.0,0.0,0.0,0.0,0.0,0.0,0.0,0.0,0.0,0.0,0.0,-0.3802,-0.3955,-0.3961,-0.3978,-0.4019,-0.4984,-0.5766,-0.6273,-0.7534,-0.8795,-1.0064,-1.0712,-1.1416,-1.208,-1.2666,-1.2968,-1.32,-1.4247,-1.4789,-1.5017,-1.6064,-1.6522,-1.6522,-1.6637,-1.7271,-1.8145,-1.8263,-1.8893,-1.969,-1.969,-1.969,-1.969,-1.969,-1.969,-1.969,-1.969,-1.969,-1.969,-1.969,-1.969,-1.9782,-2.007,-2.0483,-2.0926,-2.1337,-2.1794,-2.2135,-2.2265,-2.231,-2.231,-2.231,-2.231,-2.231,-2.231,-2.231,-2.231,-2.231,-2.3545,-2.4658,-2.5062,-2.6469,-2.7707,-2.8324,-2.8471,-2.8682,-2.8975,-2.8264,-2.7714,-2.7512,-2.6741,-2.63,-2.63,-2.7071,-2.7585,-2.7787,-2.8662,-2.9181,-2.9412,-2.9454,-2.9551,-2.9696,-2.9696,-2.9696,0.0,0.0,0.0,0.0,0.0,0.0,0.0,0.0,0.0,0.0,0.0,0.0,0.0,0.0,0.0,0.0,0.0,0.0,0.0,0.0,0.0,0.0,0.0,0.0,0.0,0.0,0.0,0.0,0.0,-0.3653,-0.3795,-0.3802,-0.387,-0.4016,-0.5256,-0.5995,-0.6044,-0.8196,-0.9799,-1.0762,-1.1416,-1.2129,-1.2822,-1.2881,-1.319,-1.3779,-1.4422,-1.5017,-1.5588,-1.6238,-1.6522,-1.6552,-1.7076,-1.7585,-1.8185,-1.865,-1.9207,-1.969,-1.969,-1.969,-1.969,-1.969,-1.969,-1.969,-1.969,-1.969,-1.969,-1.969,-1.969,-1.9711,-1.9726,-2.0035,-2.0449,-2.0926,-2.1337,-2.1764,-2.2209,-2.231,-2.231,-2.231,-2.231,-2.231,-2.231,-2.231,-2.231,-2.231,-2.3545,-2.4658,-2.5062,-2.67,-2.7992,-2.835,-2.8749,-2.8994,-2.8994,-2.8264,-2.7475,-2.6722,-2.5897,-2.5476,-2.5476,-2.6227,-2.7016,-2.7787,-2.8839,-2.9392,-2.9412,-2.9589,-2.9696,-2.9696,-2.9696,-2.9696,0.0,0.0,0.0,0.0,0.0,0.0,0.0,0.0,0.0,0.0,0.0,0.0,0.0,0.0,0.0,0.0,0.0,0.0,0.0,0.0,0.0,0.0,0.0,0.0,0.0,0.0,0.0,0.0,0.0,0.0,-0.3653,-0.3656,-0.368,-0.3737,-0.5083,-0.6254,-0.7194,-0.8385,-0.9352,-1.0081,-1.0985,-1.1797,-1.2471,-1.2754,-1.343,-1.4376,-1.4606,-1.505,-1.5632,-1.6238,-1.6522,-1.6552,-1.7076,-1.7626,-1.8185,-1.8688,-1.9244,-1.969,-1.969,-1.969,-1.969,-1.969,-1.969,-1.969,-1.969,-1.969,-1.969,-1.969,-1.969,-1.9747,-2.0035,-2.0431,-2.0926,-2.1645,-2.1945,-2.2106,-2.2254,-2.231,-2.231,-2.231,-2.231,-2.231,-2.231,-2.231,-2.231,-2.231,-2.3545,-2.4714,-2.5341,-2.6851,-2.812,-2.8725,-2.8453,-2.8227,-2.8227,-2.7016,-2.6156,-2.5841,-2.5071,-2.4929,-2.5579,-2.6237,-2.7027,-2.797,-2.9045,-2.9589,-2.9589,-2.9796,-2.9988,-3.0142,-3.0142,-3.0142,0.0,0.0,0.0,0.0,0.0,0.0,0.0,0.0,0.0,0.0,0.0,0.0,0.0,0.0,0.0,0.0,0.0,0.0,0.0,0.0,0.0,0.0,0.0,0.0,0.0,0.0,0.0,0.0,0.0,0.0,-0.3581,-0.3581,-0.3755,-0.4144,-0.5272,-0.6458,-0.7769,-0.854,-0.9172,-0.9694,-1.0821,-1.1563,-1.2021,-1.2461,-1.3346,-1.4519,-1.4631,-1.5152,-1.5908,-1.6324,-1.6595,-1.6837,-1.7353,-1.7907,-1.8419,-1.8968,-1.9406,-1.969,-1.969,-1.969,-1.9711,-1.9874,-1.9909,-1.9945,-2.0085,-2.0154,-2.0154,-2.0154,-2.0154,-2.0208,-2.0465,-2.0878,-2.1354,-2.1945,-2.218,-2.231,-2.231,-2.231,-2.231,-2.231,-2.231,-2.231,-2.231,-2.231,-2.231,-2.231,-2.3442,-2.4626,-2.5472,-2.681,-2.7895,-2.8526,-2.8117,-2.7787,-2.7787,-2.634,-2.5663,-2.6279,-2.53,-2.5152,-2.6195,-2.6785,-2.7471,-2.8221,-2.921,-2.9729,-2.9796,-3.0032,-3.0241,-3.0398,-3.0398,-3.0398,0.0,0.0,0.0,0.0,0.0,0.0,0.0,0.0,0.0,0.0,0.0,0.0,0.0,0.0,0.0,0.0,0.0,0.0,0.0,0.0,0.0,0.0,0.0,0.0,0.0,0.0,0.0,0.0,0.0,-0.3568,-0.3571,-0.3622,-0.4144,-0.5303,-0.5873,-0.6606,-0.7493,-0.8668,-0.9412,-0.9707,-1.0988,-1.1587,-1.1596,-1.2067,-1.2937,-1.4145,-1.4541,-1.5377,-1.6522,-1.6522,-1.6837,-1.7353,-1.7907,-1.8458,-1.8968,-1.9479,-1.969,-1.969,-1.969,-1.9726,-1.9782,-2.0193,-2.0314,-2.0416,-2.0862,-2.0991,-2.0991,-2.0991,-2.0991,-2.0991,-2.0991,-2.1306,-2.1612,-2.1612,-2.1974,-2.231,-2.231,-2.231,-2.231,-2.231,-2.231,-2.231,-2.231,-2.231,-2.231,-2.2338,-2.3241,-2.433,-2.5435,-2.6498,-2.7332,-2.7728,-2.7732,-2.7714,-2.7714,-2.6303,-2.6148,-2.7922,-2.658,-2.6233,-2.7289,-2.7827,-2.824,-2.8539,-2.9315,-2.9796,-2.9999,-3.0267,-3.0398,-3.0398,-3.0398,-3.0398,-0.1607,0.0,0.0,0.0,0.0,0.0,0.0,0.0,0.0,0.0,0.0,0.0,0.0,0.0,0.0,0.0,0.0,0.0,0.0,0.0,0.0,0.0,0.0,0.0,0.0,0.0,0.0,0.0,-0.2884,-0.3297,-0.3366,-0.3897,-0.4744,-0.5916,-0.6093,-0.6728,-0.7794,-0.85,-0.908,-0.9556,-1.0596,-1.1293,-1.1686,-1.2511,-1.3487,-1.4619,-1.511,-1.5776,-1.6522,-1.6909,-1.7146,-1.7394,-1.8341,-1.8765,-1.8968,-1.9479,-1.969,-1.969,-1.969,-1.9909,-2.0158,-2.028,-2.0516,-2.0829,-2.0959,-2.0991,-2.0991,-2.0991,-2.0991,-2.1055,-2.1368,-2.1764,-2.2106,-2.2106,-2.2209,-2.231,-2.231,-2.231,-2.231,-2.231,-2.231,-2.236,-2.2563,-2.2599,-2.2678,-2.2915,-2.3656,-2.4413,-2.5033,-2.5823,-2.6493,-2.6881,-2.641,-2.6064,-2.6064,-2.566,-2.5687,-2.6319,-2.6487,-2.7109,-2.8332,-2.8401,-2.8766,-2.9563,-2.9791,-2.9954,-2.9999,-3.0267,-3.0398,-3.0398,-3.0398,-3.0398,0.0,0.0,0.0,0.0,0.0,0.0,0.0,0.0,0.0,0.0,0.0,0.0,0.0,0.0,0.0,0.0,0.0,0.0,0.0,0.0,0.0,0.0,0.0,0.0,0.0,0.0,0.0,-0.2208,-0.2769,-0.3149,-0.3299,-0.4177,-0.5037,-0.5782,-0.6301,-0.6985,-0.787,-0.8439,-0.8958,-0.9518,-1.0278,-1.0925,-1.146,-1.2415,-1.3474,-1.4541,-1.5267,-1.6071,-1.6879,-1.7435,-1.7626,-1.7706,-1.8574,-1.9043,-1.9281,-1.9566,-1.969,-1.9711,-1.9909,-2.0089,-2.0348,-2.0732,-2.1039,-2.1291,-2.1493,-2.1554,-2.1554,-2.1554,-2.1554,-2.1584,-2.184,-2.2106,-2.231,-2.231,-2.231,-2.231,-2.231,-2.231,-2.231,-2.231,-2.231,-2.2388,-2.266,-2.2695,-2.2822,-2.3141,-2.3673,-2.4259,-2.4825,-2.5389,-2.5852,-2.6059,-2.5676,-2.5403,-2.5403,-2.5465,-2.5894,-2.6812,-2.7384,-2.8233,-2.9411,-2.9246,-2.9444,-3.015,-3.0061,-3.0061,-3.0182,-3.0323,-3.0398,-3.0398,-3.0398,-3.0398,0.0,0.0,0.0,0.0,0.0,0.0,-0.3079,-0.2947,0.0,0.0,0.0,0.0,0.0,0.0,0.0,0.0,0.0,0.0,0.0,0.0,0.0,0.0,0.0,0.0,0.0,-0.1922,-0.2264,-0.2264,-0.2747,-0.3158,-0.3331,-0.4436,-0.5158,-0.5348,-0.6458,-0.7363,-0.7995,-0.8521,-0.9039,-0.9597,-1.0118,-1.0611,-1.1126,-1.2125,-1.3163,-1.4237,-1.5278,-1.6311,-1.7353,-1.7947,-1.8185,-1.8263,-1.8779,-1.9281,-1.969,-1.969,-1.9726,-1.9818,-2.0193,-2.0366,-2.0567,-2.1352,-2.1658,-2.1764,-2.2163,-2.231,-2.231,-2.231,-2.231,-2.231,-2.231,-2.231,-2.231,-2.231,-2.231,-2.231,-2.231,-2.231,-2.231,-2.2349,-2.2349,-2.2453,-2.2764,-2.2822,-2.2923,-2.3259,-2.3566,-2.4006,-2.4729,-2.5074,-2.5274,-2.5274,-2.5274,-2.5311,-2.5403,-2.5579,-2.6497,-2.8372,-2.8684,-2.9283,-3.0359,-3.0163,-3.015,-3.0398,-3.0182,-3.015,-3.0398,-3.0398,-3.0398,-3.0398,-3.0398,-3.0398,0.0,-0.2434,-0.275,0.0,0.0,0.0,0.0,-0.3591,0.0,0.0,0.0,0.0,0.0,0.0,0.0,0.0,0.0,0.0,0.0,0.0,0.0,0.0,0.0,0.0,0.0,-0.2301,-0.2585,-0.2585,-0.2827,-0.3177,-0.3675,-0.4342,-0.5036,-0.5763,-0.6766,-0.7738,-0.8553,-0.9079,-0.9597,-1.0157,-1.0649,-1.1132,-1.1686,-1.2686,-1.3739,-1.4812,-1.5877,-1.6715,-1.7394,-1.8341,-1.8727,-1.8817,-1.9332,-1.9603,-1.969,-1.969,-1.9894,-2.0177,-2.028,-2.0765,-2.1383,-2.1552,-2.1869,-2.218,-2.2282,-2.231,-2.231,-2.231,-2.231,-2.231,-2.231,-2.231,-2.231,-2.231,-2.231,-2.231,-2.231,-2.231,-2.236,-2.2573,-2.2608,-2.2815,-2.3392,-2.3482,-2.3628,-2.3937,-2.4074,-2.4149,-2.4313,-2.439,-2.4428,-2.4428,-2.4428,-2.4685,-2.5348,-2.5579,-2.6501,-2.8372,-2.8688,-2.9276,-3.0359,-3.0355,-3.0355,-3.0398,-3.0355,-3.0355,-3.0398,-3.0398,-3.0398,-3.0398,-3.0398,-3.0398,0.0,0.0,-0.3403,-0.3686,0.0,0.0,0.0,0.0,-0.4362,0.0,0.0,0.0,0.0,0.0,0.0,0.0,0.0,0.0,0.0,0.0,0.0,0.0,0.0,0.0,0.0,-0.2401,-0.2871,-0.3307,-0.3188,-0.3271,-0.3673,-0.4202,-0.4724,-0.5225,-0.6635,-0.7741,-0.8442,-0.9143,-0.9873,-1.0649,-1.0905,-1.1394,-1.2197,-1.2932,-1.3885,-1.4979,-1.6049,-1.697,-1.7747,-1.8574,-1.9043,-1.9332,-1.9603,-1.969,-1.969,-1.969,-1.9929,-2.0348,-2.055,-2.107,-2.1658,-2.1869,-2.2106,-2.231,-2.231,-2.231,-2.231,-2.231,-2.231,-2.231,-2.231,-2.231,-2.231,-2.231,-2.2398,-2.25,-2.25,-2.25,-2.2643,-2.3093,-2.3069,-2.3117,-2.361,-2.3692,-2.3816,-2.4151,-2.419,-2.419,-2.419,-2.419,-2.419,-2.419,-2.419,-2.452,-2.5329,-2.595,-2.6931,-2.8409,-2.9072,-2.9696,-3.0379,-3.0398,-3.0398,-3.0398,-3.0398,-3.0398,-3.0398,-3.0398,-3.0398,-3.0398,-3.0398,-3.0398,0.0,0.0,0.0,0.0,0.0,-0.4606,0.0,0.0,0.0,-0.4808,0.0,0.0,0.0,0.0,0.0,0.0,0.0,0.0,0.0,0.0,0.0,0.0,0.0,0.0,0.0,-0.2582,-0.3248,-0.4048,-0.3681,-0.3517,-0.3786,-0.4217,-0.4529,-0.4676,-0.6501,-0.7707,-0.8206,-0.9163,-1.0099,-1.1019,-1.1084,-1.1616,-1.252,-1.3046,-1.3877,-1.493,-1.6032,-1.7106,-1.8096,-1.8797,-1.9332,-1.969,-1.969,-1.9747,-1.9818,-1.9818,-2.0124,-2.0601,-2.0991,-2.1385,-2.1794,-2.218,-2.231,-2.231,-2.231,-2.231,-2.231,-2.231,-2.231,-2.231,-2.231,-2.231,-2.231,-2.231,-2.2463,-2.2634,-2.2695,-2.2695,-2.2898,-2.3566,-2.3477,-2.3392,-2.3735,-2.3795,-2.3896,-2.417,-2.419,-2.419,-2.419,-2.419,-2.4263,-2.441,-2.4428,-2.4853,-2.585,-2.6563,-2.7488,-2.872,-2.9436,-2.9991,-3.0379,-3.0398,-3.0398,-3.0398,-3.0398,-3.0398,-3.0398,-3.0398,-3.0398,-3.0398,-3.0398,-3.0398,0.0,0.0,0.0,0.0,-0.5123,0.0,0.0,0.0,-0.5157,-0.4868,0.0,0.0,0.0,0.0,0.0,0.0,0.0,0.0,0.0,0.0,0.0,0.0,0.0,0.0,0.0,0.0,-0.397,-0.4497,-0.4094,-0.4016,-0.4473,-0.454,-0.4726,-0.5016,-0.682,-0.7882,-0.8198,-0.9551,-1.0457,-1.1019,-1.1468,-1.1993,-1.2508,-1.3004,-1.375,-1.4787,-1.5968,-1.7042,-1.8028,-1.9133,-1.9639,-1.969,-1.969,-1.9909,-2.0212,-2.0212,-2.0732,-2.146,-2.1521,-2.1823,-2.2237,-2.2282,-2.231,-2.231,-2.231,-2.231,-2.231,-2.231,-2.231,-2.231,-2.231,-2.231,-2.231,-2.231,-2.2321,-2.2398,-2.266,-2.2695,-2.2898,-2.3566,-2.3671,-2.3753,-2.4094,-2.4151,-2.4151,-2.419,-2.419,-2.419,-2.419,-2.419,-2.4465,-2.5201,-2.5274,-2.5944,-2.766,-2.7414,-2.7929,-2.9722,-2.9423,-2.956,-3.0359,-3.0398,-3.0398,-3.0398,-3.0398,-3.0398,-3.0398,-3.0398,-3.0398,-3.0398,-3.0398,-3.0398,0.0,0.0,0.0,0.0,0.0,0.0,0.0,0.0,-0.5273,0.0,0.0,0.0,0.0,0.0,0.0,0.0,0.0,0.0,0.0,0.0,0.0,0.0,0.0,0.0,0.0,0.0,0.0,0.0,0.0,-0.4739,-0.4935,-0.496,-0.4895,-0.4826,-0.6766,-0.7847,-0.7963,-0.98,-1.0943,-1.1468,-1.1957,-1.2461,-1.2908,-1.3129,-1.3766,-1.4739,-1.5558,-1.643,-1.7418,-1.8614,-1.9121,-1.9186,-1.9813,-2.0158,-2.0314,-2.0314,-2.083,-2.1582,-2.1582,-2.1899,-2.231,-2.231,-2.231,-2.231,-2.231,-2.231,-2.231,-2.231,-2.231,-2.231,-2.231,-2.231,-2.231,-2.231,-2.2426,-2.2616,-2.2923,-2.2996,-2.3189,-2.3876,-2.3837,-2.3816,-2.4151,-2.419,-2.419,-2.419,-2.419,-2.419,-2.419,-2.4612,-2.5035,-2.5366,-2.5928,-2.6767,-2.7997,-2.801,-2.8544,-2.9923,-2.9909,-3.0025,-3.0379,-3.0398,-3.0398,-3.0398,-3.0398,-3.0398,-3.0398,-3.0398,-3.0398,-3.0398,-3.0398,-3.0398,-0.4505,0.0,0.0,0.0,0.0,0.0,0.0,0.0,0.0,0.0,0.0,0.0,0.0,0.0,0.0,0.0,0.0,0.0,0.0,0.0,0.0,0.0,0.0,0.0,0.0,0.0,0.0,0.0,0.0,0.0,-0.5692,-0.5605,-0.5369,-0.4979,-0.6927,-0.8018,-0.8149,-1.0036,-1.1319,-1.1993,-1.233,-1.2756,-1.3198,-1.3323,-1.3835,-1.466,-1.5363,-1.6118,-1.6938,-1.7981,-1.8433,-1.8512,-1.9372,-1.9931,-2.025,-2.0538,-2.1134,-2.1794,-2.1794,-2.2003,-2.231,-2.231,-2.231,-2.231,-2.231,-2.231,-2.231,-2.231,-2.231,-2.231,-2.231,-2.231,-2.231,-2.231,-2.25,-2.2797,-2.3117,-2.3259,-2.3522,-2.4094,-2.3996,-2.3917,-2.4151,-2.419,-2.419,-2.419,-2.419,-2.419,-2.419,-2.4887,-2.5496,-2.5778,-2.6655,-2.7606,-2.8538,-2.8806,-2.9247,-3.0051,-3.0299,-3.0398,-3.0398,-3.0398,-3.0398,-3.0398,-3.0398,-3.0398,-3.0398,-3.0398,-3.0398,-3.0398,-3.0398,-3.0398,0.0,0.0,0.0,-0.5364,0.0,0.0,0.0,0.0,-0.5618,0.0,0.0,0.0,0.0,0.0,0.0,0.0,0.0,0.0,0.0,0.0,0.0,0.0,0.0,0.0,0.0,0.0,0.0,0.0,0.0,0.0,-0.6922,-0.6644,-0.6275,-0.5882,-0.7508,-0.8599,-0.9047,-1.0365,-1.1505,-1.2473,-1.2508,-1.2756,-1.3232,-1.3682,-1.4098,-1.457,-1.5606,-1.6323,-1.6755,-1.7458,-1.7727,-1.7777,-1.8129,-1.8997,-2.0124,-2.1185,-2.1853,-2.2282,-2.2282,-2.2282,-2.231,-2.231,-2.231,-2.231,-2.231,-2.231,-2.231,-2.231,-2.231,-2.231,-2.231,-2.231,-2.231,-2.231,-2.25,-2.2797,-2.3117,-2.3437,-2.3795,-2.4113,-2.419,-2.419,-2.419,-2.419,-2.419,-2.419,-2.419,-2.419,-2.419,-2.4887,-2.5778,-2.6749,-2.7587,-2.8557,-2.9821,-2.9961,-3.0084,-3.0367,-3.0398,-3.0398,-3.0398,-3.0398,-3.0398,-3.0398,-3.0398,-3.0398,-3.0398,-3.0398,-3.0398,-3.0398,-3.0398,-3.0398,0.0,0.0,-0.5645,-0.5351,0.0,0.0,0.0,0.0,0.0,0.0,0.0,0.0,0.0,0.0,0.0,0.0,0.0,0.0,0.0,0.0,0.0,0.0,0.0,0.0,0.0,0.0,0.0,0.0,0.0,0.0,0.0,-0.7109,-0.6802,-0.6627,-0.7743,-0.8525,-0.8962,-1.0631,-1.163,-1.1997,-1.2667,-1.3207,-1.3682,-1.3835,-1.4246,-1.4921,-1.5289,-1.568,-1.6144,-1.6771,-1.7196,-1.7532,-1.8354,-1.937,-2.0384,-2.0747,-2.1482,-2.231,-2.231,-2.231,-2.231,-2.231,-2.231,-2.231,-2.231,-2.231,-2.231,-2.231,-2.231,-2.231,-2.231,-2.231,-2.231,-2.231,-2.25,-2.2797,-2.3117,-2.3459,-2.3795,-2.4133,-2.419,-2.419,-2.419,-2.419,-2.419,-2.419,-2.419,-2.419,-2.419,-2.4887,-2.5778,-2.6786,-2.7789,-2.8822,-2.9908,-3.015,-3.0311,-3.0398,-3.0398,-3.0398,-3.0398,-3.0398,-3.0398,-3.0398,-3.0398,-3.0398,-3.0398,-3.0398,-3.0398,-3.0398,-3.0398,-3.0398,-0.4858,-0.5183,0.0,-0.51,-0.519,0.0,-0.5094,0.0,0.0,0.0,0.0,0.0,0.0,0.0,0.0,0.0,0.0,0.0,0.0,0.0,0.0,0.0,0.0,0.0,0.0,0.0,-0.6563,-0.7703,0.0,0.0,0.0,0.0,-0.756,-0.7249,-0.8228,-0.893,-0.9343,-1.1069,-1.1997,-1.216,-1.3198,-1.3835,-1.4117,-1.4246,-1.4596,-1.5104,-1.5285,-1.5522,-1.5829,-1.6366,-1.6693,-1.7055,-1.7967,-1.9083,-2.019,-2.0583,-2.1424,-2.231,-2.231,-2.231,-2.231,-2.231,-2.231,-2.231,-2.231,-2.231,-2.231,-2.231,-2.231,-2.231,-2.231,-2.231,-2.231,-2.231,-2.25,-2.2797,-2.3117,-2.3459,-2.3795,-2.4133,-2.419,-2.419,-2.419,-2.419,-2.419,-2.419,-2.419,-2.419,-2.419,-2.5144,-2.6149,-2.6949,-2.8156,-2.926,-3.0065,-3.0299,-3.0398,-3.0398,-3.0398,-3.0398,-3.0398,-3.0398,-3.0398,-3.0398,-3.0398,-3.0398,-3.0398,-3.0398,-3.0398,-3.0398,-3.0398,-3.0398]}]]